[[{"header":{"parameterUnit":"m.s-1","parameterCategory":1,"la1":30.6,"la2":29.2853,"lo1":-89.7004,"lo2":-87.6739,"dx":0.0162,"dy":0.0183,"nx":112,"ny":82,"refTime":"2022-11-20T18:00:00:Z","depth":0,"parameterNumber":2,"parameterNumberName":"U-component_of_WINDS"},"data":[0.0,0.0,0.0,0.0,0.0,0.0,0.0,0.0,0.0,0.0,0.0,0.0,0.0,0.0,0.0,0.0,0.0,0.0,0.0,0.0,0.0,0.0,0.0,0.0,0.0,0.0,0.0,0.0,0.0,0.0,0.0,0.0,0.0,0.0,0.0,0.0,0.0,0.0,0.0,0.0,0.0,0.0,0.0,0.0,0.0,0.0,0.0,0.0,0.0,0.0,0.0,0.0,0.0,0.0,0.0,0.0,0.0,0.0,0.0,0.0,0.0,0.0,0.0,0.0,0.0,0.0,0.0,0.0,0.0,0.0,0.0,0.0,0.0,0.0,0.0,0.0,0.0,0.0,0.0,0.0,0.0,0.0,0.0,0.0,0.0,0.0,0.0,0.0,0.0,0.0,5.2875,5.4397,6.0892,6.5053,6.4952,6.485,6.0281,4.9675,0.0,0.0,0.0,0.0,0.0,0.0,0.0,0.0,0.0,0.0,0.0,0.0,0.0,0.0,0.0,0.0,0.0,0.0,0.0,0.0,0.0,0.0,0.0,0.0,0.0,0.0,0.0,0.0,0.0,0.0,0.0,0.0,0.0,0.0,0.0,0.0,0.0,0.0,0.0,0.0,0.0,0.0,0.0,0.0,0.0,0.0,0.0,0.0,0.0,0.0,0.0,0.0,0.0,0.0,0.0,0.0,0.0,0.0,0.0,0.0,0.0,0.0,0.0,0.0,0.0,0.0,0.0,0.0,0.0,0.0,0.0,0.0,0.0,0.0,0.0,0.0,0.0,0.0,0.0,0.0,0.0,0.0,0.0,0.0,0.0,0.0,0.0,0.0,0.0,0.0,0.0,0.0,0.0,0.0,0.0,0.0,0.0,0.0,0.0,0.0,0.0,0.0,0.0,0.0,5.548,6.3734,6.6271,6.7151,6.6542,6.5899,6.0818,4.9772,0.0,0.0,0.0,0.0,0.0,0.0,0.0,0.0,0.0,0.0,0.0,0.0,0.0,0.0,0.0,0.0,0.0,0.0,0.0,0.0,0.0,0.0,0.0,0.0,0.0,0.0,0.0,0.0,0.0,0.0,0.0,0.0,0.0,0.0,0.0,0.0,0.0,0.0,0.0,0.0,0.0,0.0,0.0,0.0,0.0,0.0,0.0,0.0,0.0,0.0,0.0,0.0,0.0,0.0,0.0,0.0,0.0,0.0,0.0,0.0,0.0,0.0,0.0,0.0,0.0,0.0,0.0,0.0,0.0,0.0,0.0,0.0,0.0,0.0,0.0,0.0,0.0,0.0,0.0,0.0,0.0,0.0,0.0,0.0,0.0,0.0,0.0,0.0,0.0,0.0,0.0,0.0,0.0,0.0,0.0,0.0,0.0,0.0,0.0,0.0,0.0,0.0,0.0,5.2503,5.7273,6.7015,6.8368,6.8402,6.8098,6.732,6.2293,5.1499,4.9512,0.0,0.0,0.0,0.0,0.0,0.0,0.0,0.0,0.0,0.0,0.0,0.0,0.0,0.0,0.0,0.0,0.0,0.0,0.0,0.0,0.0,0.0,0.0,0.0,0.0,0.0,0.0,0.0,0.0,0.0,0.0,0.0,0.0,0.0,0.0,0.0,0.0,0.0,0.0,0.0,0.0,0.0,0.0,0.0,0.0,0.0,0.0,0.0,0.0,0.0,0.0,0.0,0.0,0.0,0.0,0.0,0.0,0.0,0.0,0.0,0.0,0.0,0.0,0.0,0.0,0.0,0.0,0.0,0.0,0.0,0.0,0.0,0.0,0.0,0.0,0.0,0.0,0.0,0.0,0.0,0.0,0.0,0.0,0.0,0.0,0.0,0.0,0.0,0.0,0.0,0.0,0.0,0.0,0.0,0.0,0.0,0.0,0.0,0.0,0.0,0.0,0.0,5.6731,6.1129,6.8571,6.935,6.935,6.935,6.8639,6.3634,5.2932,5.0685,0.0,0.0,0.0,0.0,0.0,0.0,0.0,0.0,0.0,0.0,0.0,0.0,0.0,0.0,0.0,0.0,0.0,0.0,0.0,0.0,0.0,0.0,0.0,0.0,0.0,0.0,0.0,0.0,0.0,0.0,0.0,0.0,0.0,0.0,0.0,0.0,0.0,0.0,0.0,0.0,0.0,0.0,0.0,0.0,0.0,0.0,0.0,0.0,0.0,0.0,0.0,0.0,0.0,0.0,0.0,0.0,0.0,0.0,0.0,0.0,0.0,0.0,0.0,0.0,0.0,0.0,0.0,0.0,0.0,0.0,0.0,0.0,0.0,0.0,0.0,0.0,0.0,0.0,0.0,0.0,0.0,0.0,0.0,0.0,0.0,0.0,0.0,0.0,0.0,0.0,0.0,0.0,0.0,0.0,0.0,0.0,0.0,0.0,0.0,0.0,0.0,0.0,6.3091,6.935,7.0026,7.0094,7.0094,7.0094,6.9451,6.4237,5.2965,5.1554,0.0,0.0,0.0,0.0,0.0,0.0,0.0,0.0,0.0,0.0,0.0,0.0,0.0,0.0,0.0,0.0,0.0,0.0,0.0,0.0,0.0,0.0,0.0,0.0,0.0,0.0,0.0,0.0,0.0,0.0,0.0,0.0,0.0,0.0,0.0,0.0,0.0,0.0,0.0,0.0,0.0,0.0,0.0,0.0,0.0,0.0,0.0,0.0,0.0,0.0,0.0,0.0,0.0,0.0,0.0,0.0,0.0,0.0,0.0,0.0,0.0,0.0,0.0,0.0,0.0,0.0,0.0,0.0,0.0,0.0,0.0,0.0,0.0,0.0,0.0,0.0,0.0,0.0,0.0,0.0,0.0,0.0,0.0,0.0,0.0,0.0,0.0,0.0,0.0,0.0,0.0,0.0,0.0,0.0,0.0,0.0,0.0,0.0,0.0,0.0,0.0,0.0,6.1569,6.7286,0.0,7.0906,7.0906,7.0906,7.0195,6.4975,5.3726,0.0,0.0,0.0,0.0,0.0,0.0,0.0,0.0,0.0,0.0,0.0,0.0,0.0,0.0,0.0,0.0,0.0,0.0,0.0,0.0,0.0,0.0,0.0,0.0,0.0,0.0,0.0,0.0,0.0,0.0,0.0,0.0,0.0,0.0,0.0,0.0,0.0,0.0,0.0,0.0,0.0,0.0,0.0,0.0,0.0,0.0,0.0,0.0,0.0,0.0,0.0,0.0,0.0,0.0,0.0,0.0,0.0,0.0,0.0,0.0,0.0,0.0,0.0,0.0,0.0,0.0,0.0,0.0,0.0,0.0,0.0,0.0,0.0,0.0,0.0,0.0,0.0,0.0,0.0,0.0,0.0,0.0,0.0,0.0,0.0,0.0,0.0,0.0,0.0,0.0,0.0,0.0,0.0,0.0,0.0,0.0,0.0,0.0,0.0,0.0,0.0,0.0,5.5277,6.1738,6.7354,0.0,7.1312,7.1312,7.1312,7.0838,6.5746,5.4398,0.0,0.0,0.0,0.0,0.0,0.0,0.0,0.0,0.0,0.0,0.0,0.0,0.0,0.0,0.0,0.0,0.0,0.0,0.0,0.0,0.0,0.0,0.0,0.0,0.0,0.0,0.0,0.0,0.0,0.0,0.0,0.0,0.0,0.0,0.0,0.0,0.0,0.0,0.0,0.0,0.0,0.0,0.0,0.0,0.0,0.0,0.0,0.0,0.0,0.0,0.0,0.0,0.0,0.0,0.0,0.0,0.0,0.0,0.0,0.0,0.0,0.0,0.0,0.0,0.0,0.0,0.0,0.0,0.0,0.0,0.0,0.0,0.0,0.0,0.0,0.0,0.0,0.0,0.0,0.0,0.0,0.0,0.0,0.0,0.0,0.0,0.0,0.0,0.0,0.0,0.0,0.0,0.0,0.0,0.0,0.0,0.0,0.0,0.0,0.0,0.0,0.0,5.5716,6.485,7.1312,7.1312,7.1312,7.1312,7.1312,7.1312,6.6484,0.0,0.0,0.0,0.0,0.0,0.0,0.0,0.0,0.0,0.0,0.0,0.0,0.0,0.0,0.0,0.0,0.0,0.0,0.0,0.0,0.0,0.0,0.0,0.0,0.0,0.0,0.0,0.0,0.0,0.0,0.0,0.0,0.0,0.0,0.0,0.0,0.0,0.0,0.0,0.0,0.0,0.0,0.0,0.0,0.0,0.0,0.0,0.0,0.0,0.0,0.0,0.0,0.0,0.0,0.0,0.0,0.0,0.0,0.0,0.0,0.0,0.0,0.0,0.0,0.0,0.0,0.0,0.0,0.0,0.0,0.0,0.0,0.0,0.0,0.0,0.0,0.0,0.0,0.0,0.0,0.0,0.0,0.0,0.0,0.0,0.0,0.0,0.0,0.0,0.0,0.0,0.0,0.0,0.0,0.0,0.0,0.0,0.0,0.0,0.0,0.0,0.0,0.0,5.6494,6.5155,7.1312,7.1312,7.1312,7.1312,7.1312,7.1312,6.6484,5.5147,0.0,0.0,0.0,0.0,0.0,0.0,0.0,0.0,0.0,0.0,0.0,0.0,0.0,0.0,0.0,0.0,0.0,0.0,0.0,0.0,0.0,0.0,0.0,0.0,0.0,0.0,0.0,0.0,0.0,0.0,0.0,0.0,0.0,0.0,0.0,0.0,0.0,0.0,0.0,0.0,0.0,0.0,0.0,0.0,0.0,0.0,0.0,0.0,0.0,0.0,0.0,0.0,0.0,0.0,0.0,0.0,0.0,0.0,0.0,0.0,0.0,0.0,0.0,0.0,0.0,0.0,0.0,0.0,0.0,0.0,0.0,0.0,0.0,0.0,0.0,0.0,0.0,0.0,0.0,0.0,0.0,0.0,0.0,0.0,0.0,0.0,0.0,0.0,0.0,0.0,0.0,0.0,0.0,0.0,0.0,0.0,0.0,0.0,0.0,0.0,0.0,0.0,5.6799,6.529,7.1312,7.1312,7.1312,7.1312,7.1312,7.1312,6.7477,5.8478,0.0,0.0,0.0,0.0,0.0,0.0,0.0,0.0,0.0,0.0,0.0,0.0,0.0,0.0,0.0,0.0,0.0,0.0,0.0,0.0,0.0,0.0,0.0,0.0,0.0,0.0,0.0,0.0,0.0,0.0,0.0,0.0,0.0,0.0,0.0,0.0,0.0,0.0,0.0,0.0,0.0,0.0,0.0,0.0,0.0,0.0,0.0,0.0,0.0,0.0,0.0,0.0,0.0,0.0,0.0,0.0,0.0,0.0,0.0,0.0,0.0,0.0,0.0,0.0,0.0,0.0,0.0,0.0,0.0,0.0,0.0,0.0,0.0,0.0,0.0,0.0,0.0,0.0,0.0,0.0,0.0,0.0,0.0,0.0,0.0,0.0,0.0,0.0,0.0,0.0,0.0,0.0,0.0,0.0,0.0,0.0,0.0,0.0,0.0,0.0,0.0,0.0,5.7002,6.5425,7.1447,7.1515,7.1515,7.1515,7.1515,7.1515,6.9166,6.3762,0.0,0.0,0.0,0.0,0.0,0.0,0.0,0.0,0.0,0.0,0.0,0.0,0.0,0.0,0.0,0.0,0.0,0.0,0.0,0.0,0.0,0.0,0.0,0.0,0.0,0.0,0.0,0.0,0.0,0.0,0.0,0.0,0.0,0.0,0.0,0.0,0.0,0.0,0.0,0.0,0.0,0.0,0.0,0.0,0.0,0.0,0.0,0.0,0.0,0.0,0.0,0.0,0.0,0.0,0.0,0.0,0.0,0.0,0.0,0.0,5.7334,5.1861,0.0,0.0,0.0,0.0,0.0,0.0,0.0,0.0,0.0,0.0,0.0,0.0,0.0,0.0,0.0,0.0,0.0,0.0,0.0,0.0,0.0,0.0,0.0,0.0,0.0,0.0,0.0,0.0,0.0,0.0,0.0,0.0,0.0,0.0,0.0,0.0,0.0,0.0,0.0,0.0,5.8457,6.6508,7.2394,7.2969,7.3003,7.3003,7.3003,7.3003,7.0445,6.4561,6.3557,0.0,0.0,0.0,0.0,0.0,0.0,0.0,0.0,0.0,0.0,0.0,0.0,0.0,0.0,0.0,0.0,0.0,0.0,0.0,0.0,0.0,0.0,0.0,0.0,0.0,0.0,0.0,0.0,0.0,0.0,0.0,0.0,0.0,0.0,0.0,0.0,0.0,0.0,0.0,0.0,0.0,0.0,0.0,0.0,0.0,0.0,0.0,0.0,0.0,0.0,0.0,0.0,0.0,0.0,0.0,0.0,0.0,0.0,0.0,6.2618,5.9278,0.0,0.0,0.0,0.0,0.0,0.0,0.0,0.0,0.0,0.0,0.0,0.0,0.0,0.0,0.0,0.0,0.0,0.0,0.0,0.0,0.0,0.0,0.0,0.0,0.0,0.0,0.0,0.0,0.0,0.0,0.0,0.0,0.0,0.0,0.0,0.0,0.0,0.0,0.0,0.0,5.8964,6.7151,7.3071,7.3443,7.3477,7.3477,7.3477,7.3477,7.2279,6.9524,6.7235,0.0,0.0,0.0,0.0,0.0,0.0,0.0,0.0,0.0,0.0,0.0,0.0,0.0,0.0,0.0,0.0,0.0,0.0,0.0,0.0,0.0,0.0,0.0,0.0,0.0,0.0,0.0,0.0,0.0,0.0,0.0,0.0,0.0,0.0,0.0,0.0,0.0,0.0,0.0,0.0,0.0,0.0,0.0,0.0,0.0,0.0,0.0,0.0,0.0,0.0,0.0,0.0,0.0,6.3494,6.3749,6.3835,6.4562,6.7148,7.0973,6.7725,6.7469,6.8699,6.0933,0.0,0.0,0.0,0.0,0.0,0.0,0.0,0.0,0.0,0.0,0.0,0.0,0.0,0.0,0.0,0.0,0.0,0.0,0.0,0.0,0.0,0.0,6.1767,6.1767,6.4752,6.6504,6.2623,0.0,0.0,0.0,0.0,0.0,0.0,0.0,0.0,0.0,0.0,0.0,6.0655,6.8436,7.3984,7.4255,7.4255,7.4255,7.4255,7.4255,7.4492,7.4965,7.1069,6.8169,0.0,0.0,0.0,0.0,0.0,0.0,0.0,0.0,0.0,0.0,0.0,0.0,0.0,0.0,0.0,0.0,0.0,0.0,0.0,0.0,0.0,0.0,0.0,0.0,0.0,0.0,0.0,0.0,0.0,0.0,0.0,0.0,5.9019,5.982,0.0,0.0,0.0,0.0,0.0,0.0,0.0,0.0,0.0,0.0,0.0,0.0,0.0,6.4166,6.5237,6.8203,7.0001,7.064,7.2318,7.3406,7.3913,7.4201,7.4706,7.5345,7.6104,0.0,6.9778,6.7263,0.0,0.0,0.0,0.0,0.0,0.0,0.0,0.0,0.0,0.0,0.0,0.0,0.0,0.0,0.0,0.0,0.0,0.0,0.0,0.0,0.0,0.0,7.4787,7.4787,7.5287,7.5605,7.4995,6.6691,5.963,6.0463,6.0535,0.0,0.0,0.0,0.0,0.0,0.0,0.0,6.7083,7.2225,7.5912,7.7232,7.7401,7.7401,7.7401,7.7401,7.7164,7.6623,7.6526,7.3816,6.7945,6.6965,0.0,0.0,0.0,0.0,0.0,0.0,0.0,0.0,0.0,0.0,0.0,0.0,0.0,0.0,0.0,0.0,0.0,0.0,0.0,0.0,0.0,0.0,0.0,0.0,0.0,0.0,0.0,0.0,0.0,5.5454,5.7401,5.774,5.5988,5.3831,0.0,0.0,0.0,0.0,0.0,0.0,0.0,0.0,0.0,6.7008,6.7158,6.8445,7.1007,7.2473,7.3573,7.4179,7.5023,7.5531,7.5798,7.6329,7.6692,7.679,7.7445,7.6354,7.3891,7.09,6.6699,6.1933,0.0,0.0,0.0,0.0,5.6993,5.7882,6.2745,6.5009,6.537,6.3221,0.0,0.0,0.0,0.0,0.0,0.0,0.0,6.3609,6.8995,7.1939,7.408,7.6692,7.7671,7.8148,7.8626,7.4993,7.0738,0.0,6.4279,6.0629,5.5904,0.0,0.0,0.0,0.0,6.6271,6.9316,7.3984,7.7232,7.7908,7.7976,7.7976,7.7976,7.8382,7.8653,7.8754,7.9431,7.8351,7.4892,7.1465,6.6784,0.0,0.0,0.0,0.0,0.0,0.0,0.0,0.0,0.0,0.0,0.0,0.0,0.0,0.0,0.0,0.0,0.0,0.0,0.0,0.0,0.0,0.0,0.0,0.0,0.0,0.0,0.0,0.0,5.7108,5.8681,5.7486,5.8608,5.7636,0.0,0.0,0.0,0.0,0.0,0.0,6.6258,6.5764,6.7421,7.185,7.1738,7.3222,7.6625,7.647,7.6716,7.7415,7.7013,7.6792,7.6829,7.7423,7.7805,7.7965,7.7965,7.7965,7.7659,7.3848,7.1065,6.8772,6.4908,6.2618,6.1579,6.2435,6.2853,6.3711,6.8995,7.1429,7.2012,7.0956,7.0326,6.9491,6.6679,0.0,0.0,0.0,0.0,6.758,7.2725,7.4014,7.4905,7.8317,7.9653,8.0314,8.0901,8.0369,7.8565,0.0,7.0184,6.5625,6.0924,0.0,0.0,0.0,0.0,7.0331,7.2225,7.6014,7.8619,7.8822,7.8991,7.9126,7.9126,7.9803,8.0378,8.075,8.1426,8.1528,8.0784,7.627,7.2333,6.9543,0.0,0.0,0.0,0.0,0.0,0.0,0.0,0.0,0.0,0.0,0.0,0.0,0.0,0.0,0.0,0.0,0.0,0.0,0.0,0.0,0.0,0.0,0.0,0.0,0.0,0.0,0.0,0.0,0.0,6.3524,6.7626,0.0,0.0,0.0,0.0,6.4317,6.3988,6.5827,7.0453,7.008,7.2263,7.7713,7.857,7.9748,8.1328,8.0795,8.0917,8.1662,8.0235,7.9606,7.9606,7.9643,7.968,7.9653,7.9653,7.9653,7.947,7.6925,7.3083,6.8825,6.7913,6.5624,6.3094,6.6328,6.7956,6.921,7.4052,7.6252,7.6326,7.2511,6.8763,6.6649,7.1003,6.9192,0.0,0.0,7.4623,7.6025,8.2245,8.3881,8.3918,8.4205,8.4278,8.4315,8.4352,8.0223,7.7801,0.0,8.1629,7.9214,7.4434,0.0,7.1877,7.0643,7.0906,7.3003,7.801,7.9498,8.0344,8.1054,8.1765,8.2205,8.2205,8.2847,8.3016,8.234,8.2983,8.305,8.234,8.1359,7.7681,7.1109,6.9982,0.0,0.0,0.0,0.0,0.0,0.0,0.0,0.0,0.0,0.0,0.0,0.0,0.0,0.0,0.0,0.0,0.0,0.0,0.0,0.0,0.0,0.0,0.0,0.0,0.0,0.0,0.0,0.0,6.4769,6.8574,0.0,6.511,6.7543,6.9398,6.936,7.2062,7.4711,7.6959,7.6499,7.7255,7.9744,7.9755,7.9971,8.0465,8.0267,8.0271,8.0567,8.0062,7.98,7.98,7.98,7.98,7.98,7.98,7.98,7.9727,7.8846,7.7451,7.5909,7.5654,7.4775,7.3891,7.5141,7.5751,7.6313,7.9066,8.0204,8.0388,7.9984,7.8903,7.8153,7.9873,7.9267,7.837,8.0612,8.1263,8.1806,8.3991,8.4609,8.4719,8.5233,8.5783,8.6297,8.6811,8.5793,8.5215,8.6925,8.2348,7.7413,7.5006,7.7055,7.7577,7.3402,7.5574,7.8585,8.0919,8.146,8.1731,8.1968,8.2678,8.3118,8.3118,8.4268,8.4877,8.4606,8.5283,8.5351,8.4606,8.3828,8.2067,7.9128,7.8354,7.3217,0.0,0.0,0.0,0.0,0.0,0.0,0.0,0.0,0.0,0.0,0.0,0.0,0.0,0.0,0.0,0.0,0.0,0.0,0.0,0.0,0.0,0.0,0.0,0.0,0.0,0.0,6.9971,6.5638,7.0844,7.3079,6.8701,7.2472,7.5241,7.5506,7.8134,7.9954,8.0468,7.9911,7.985,8.0406,8.0039,7.991,8.0204,8.0204,8.0461,8.1012,8.1012,8.1158,8.1415,8.1415,8.1415,8.1415,8.1415,8.1415,8.1415,8.1415,8.1415,8.1305,8.0204,7.98,7.98,8.0094,8.0204,8.0424,8.2039,8.2774,8.3177,8.4242,8.4976,8.5416,8.5416,8.5783,8.6224,8.6224,8.6224,8.6224,8.6224,8.6224,8.6407,8.7215,8.7839,8.8463,8.9271,8.9858,9.0225,9.0225,8.4428,7.9279,7.852,8.0626,8.0524,7.5077,7.8686,8.1562,8.031,8.2137,8.3456,8.3186,8.4065,8.464,8.464,8.42,8.4539,8.6061,8.5215,8.5114,8.6129,8.3964,8.2408,8.1663,8.0648,7.6386,6.8673,0.0,0.0,0.0,0.0,0.0,0.0,0.0,0.0,0.0,0.0,0.0,0.0,0.0,0.0,0.0,0.0,0.0,0.0,0.0,0.0,0.0,0.0,0.0,6.4423,6.8455,7.0506,6.6853,7.5135,7.9697,7.5991,7.9057,8.1647,8.2485,8.1395,8.0712,8.0712,8.0221,7.99,7.9937,7.9874,8.0277,8.1122,8.1122,8.1893,8.3471,8.3471,8.3875,8.4609,8.4609,8.4609,8.4609,8.4609,8.4609,8.4609,8.4609,8.4609,8.4315,8.1158,7.9947,8.0057,8.0865,8.1195,8.1452,8.303,8.4095,8.4756,8.4756,8.582,8.7068,8.7068,8.8169,8.9417,8.9417,8.9417,8.9417,8.9417,8.9417,8.9601,9.0408,9.0629,9.0886,9.173,9.1913,9.1877,9.1804,8.8654,8.6064,8.5993,8.4074,8.1122,7.6657,8.0344,0.0,7.669,8.1765,8.5452,8.4539,8.579,8.6704,8.6704,8.2712,8.2171,8.6704,8.2881,8.2441,8.6805,8.2103,7.9025,7.828,7.6623,7.5405,7.4566,0.0,0.0,0.0,0.0,0.0,0.0,0.0,0.0,0.0,0.0,0.0,0.0,0.0,0.0,0.0,0.0,0.0,0.0,0.0,0.0,0.0,6.6153,7.0294,7.0289,7.5047,7.8315,7.7873,8.0267,8.1623,8.0698,8.1203,8.1472,8.1243,8.095,8.1028,8.1625,8.1492,8.1933,8.3061,8.2655,8.281,8.3618,8.3618,8.3838,8.4278,8.4278,8.4389,8.4609,8.4609,8.4609,8.4609,8.4609,8.4609,8.4609,8.4609,8.4939,8.5306,8.3838,8.3618,8.4168,8.4389,8.5233,8.6297,8.6738,8.7435,8.8096,8.8096,8.839,8.8757,8.8757,8.905,8.9417,8.9417,8.9417,8.9417,8.9417,8.9417,8.9601,9.0408,9.1069,9.1693,9.2574,9.3198,9.334,9.2417,9.0667,8.8931,8.7798,8.7536,8.6401,8.3464,8.4708,0.0,8.4031,8.5452,8.508,8.1054,8.1494,8.2035,8.2035,8.1393,8.3118,8.8158,8.7313,8.7211,8.8429,8.6602,8.5215,8.4471,7.9769,7.6635,0.0,0.0,0.0,0.0,0.0,0.0,0.0,0.0,0.0,0.0,0.0,0.0,0.0,0.0,0.0,0.0,0.0,0.0,0.0,0.0,0.0,0.0,7.0367,7.4312,7.6197,7.8635,8.0698,8.1881,8.2034,8.2301,8.3061,8.2589,8.2432,8.305,8.2871,8.2927,8.3507,8.3487,8.3818,8.4435,8.4138,8.4132,8.4609,8.4609,8.4756,8.5086,8.5086,8.527,8.5637,8.5967,8.6114,8.6114,8.6481,8.6628,8.6628,8.6628,8.6885,8.7178,0.0,0.0,0.0,0.0,8.7619,8.872,8.872,8.9014,8.9417,8.9417,8.9638,8.9931,8.9931,9.0152,9.0408,9.0408,9.0408,9.0408,9.0408,9.0408,9.0702,9.1877,9.2244,9.2758,9.4299,9.4703,9.4698,9.4293,9.3602,0.0,9.1193,8.9507,8.7254,8.3903,8.5689,8.6569,8.437,8.6298,8.6535,8.3186,8.349,8.393,8.393,8.2306,0.0,0.0,0.0,8.5824,8.5824,8.5418,0.0,0.0,0.0,7.9398,8.023,7.6776,0.0,0.0,6.987,6.8208,0.0,0.0,0.0,0.0,0.0,0.0,0.0,0.0,0.0,0.0,0.0,0.0,0.0,0.0,0.0,0.0,7.5807,7.983,8.1279,8.0197,7.9999,8.1754,8.1943,8.2551,8.405,8.3619,8.4126,8.6165,8.583,8.553,8.5595,8.5574,0.0,0.0,0.0,8.4792,8.4866,8.4866,8.5233,8.593,8.593,8.6297,8.7031,8.7839,8.8206,8.8243,8.905,8.9417,8.9417,8.9417,8.9454,8.9344,8.7178,8.6775,8.7509,8.8316,8.905,8.9674,8.9674,0.0,0.0,8.9674,9.0152,9.0739,9.0739,9.1216,9.1803,9.1803,9.1803,9.1803,9.1803,9.1803,9.217,9.3639,9.3602,9.3822,9.5988,9.6025,9.5765,9.6384,9.6494,9.6027,9.4806,9.0647,8.6185,8.2072,8.5221,8.6433,8.1799,8.5824,8.8598,8.738,8.782,0.0,8.8192,8.3964,8.3524,8.8767,8.4742,8.2171,8.2171,8.2171,8.2171,8.2171,8.146,8.3016,8.6907,8.6907,8.6569,8.5655,7.4031,7.1508,0.0,0.0,0.0,0.0,0.0,0.0,0.0,0.0,0.0,0.0,0.0,0.0,0.0,0.0,0.0,7.3018,7.7371,8.096,8.1918,8.1242,8.153,8.3983,8.4243,8.4709,8.581,8.5799,8.5697,8.5712,8.6162,8.6132,8.5611,8.5611,8.5827,8.6375,8.589,8.5894,8.6554,8.6554,8.6628,8.6775,8.6775,0.0,8.7031,8.7839,8.8206,8.8243,8.905,8.9417,8.9417,8.9417,8.9784,9.0335,8.9858,8.9784,9.0005,9.0812,9.1216,9.1326,9.1326,9.1326,9.1326,9.1326,9.1436,9.1583,9.1583,9.1693,0.0,9.1803,9.1803,9.1803,9.1803,9.1803,9.1877,9.2207,9.3198,9.4189,9.4666,9.5658,9.6233,9.5348,9.5181,9.4806,9.3455,9.2459,9.113,8.919,8.8891,8.8497,8.7482,8.8361,8.7414,8.305,8.2712,8.278,8.278,8.1866,8.3524,8.8767,8.8125,8.7583,8.7583,8.7583,8.7583,8.7583,8.6873,8.6636,8.6907,8.6907,8.6839,8.6636,8.3554,8.2705,0.0,0.0,0.0,0.0,0.0,0.0,0.0,0.0,0.0,0.0,0.0,6.7136,0.0,0.0,7.5579,7.7598,8.0351,8.2573,8.3756,8.3929,8.4121,8.4627,8.4651,8.5279,8.6913,8.6729,8.671,8.721,8.7235,8.711,8.684,8.6877,8.6882,8.6925,8.6575,8.6591,8.6995,8.6995,8.6995,8.6995,8.6995,8.6995,8.7031,8.8243,8.8793,8.8867,9.0078,9.0592,9.0592,9.0592,9.0849,9.1216,9.1216,9.1216,9.1253,9.1657,9.1803,9.1803,9.1803,9.1803,9.1803,9.1803,9.1803,9.1803,9.1803,9.1803,9.1803,9.1803,9.1803,9.1803,9.1803,9.1803,9.2024,9.2831,9.3382,9.4153,9.5731,9.6428,9.6751,9.6887,9.695,9.6749,9.6083,9.4908,9.344,9.1819,9.0509,8.9782,9.0154,9.0188,8.9173,8.6569,8.6298,8.6298,8.6298,8.6298,8.7414,9.0019,9.0188,9.0188,9.0188,9.0188,9.0188,9.0188,8.9478,8.8734,8.7989,8.7989,8.782,8.7448,8.7448,8.7448,0.0,0.0,0.0,0.0,0.0,0.0,0.0,0.0,6.2658,6.7577,6.9853,7.1945,7.5212,7.7011,7.9066,8.237,8.3581,8.4543,8.5695,8.6425,8.6449,8.5462,8.5338,8.6079,8.8022,8.7647,8.784,8.9137,8.8494,8.8129,8.8146,8.7973,8.7618,8.6995,8.6995,8.6995,8.6995,8.6995,8.6995,8.6995,8.6995,8.6995,8.7068,8.85,8.9271,8.9491,9.1106,9.1803,9.1803,9.1803,9.1803,9.1803,9.1803,9.1803,9.1803,9.1803,9.1803,9.1803,9.1803,9.1803,9.1803,9.1803,9.1803,9.1803,9.1803,9.1803,9.1803,9.1803,9.1913,9.206,9.206,9.217,9.2648,9.4153,9.4153,9.4556,9.7309,9.7493,9.7566,9.8851,9.9108,9.9108,9.9108,9.6939,9.4595,9.2928,9.1371,9.0628,9.1203,9.1305,9.1305,9.1305,9.1305,9.1305,9.1305,9.1305,9.1305,9.1305,9.1305,9.1305,9.1305,9.1305,9.1305,9.1305,9.0729,9.0053,8.9309,8.9444,8.914,8.8463,8.9173,8.9342,5.0655,5.3812,5.9171,6.2475,6.3833,6.6476,0.0,0.0,7.4404,7.9286,8.1599,8.2847,8.3287,8.4095,8.4866,8.5306,8.6077,8.6628,8.6838,8.6912,8.7402,8.858,8.856,8.8888,8.9928,8.9952,8.9967,9.0288,8.9593,8.8864,8.823,8.75,8.7064,8.6995,8.6995,8.6995,8.6995,8.6995,8.6995,8.6995,8.6995,8.6995,8.7031,8.7949,8.872,8.9491,9.1106,9.1803,9.1803,9.1803,9.1803,9.1803,9.1803,9.1803,9.1803,9.1803,9.1803,9.1803,9.1803,9.1803,9.1803,9.1803,9.1803,9.1803,9.1803,9.1803,9.1803,9.1803,9.2354,9.2941,9.2941,9.3492,9.4263,9.5144,9.5841,9.6575,9.7676,9.8374,9.8888,9.9071,9.9108,9.9108,9.9108,9.6939,9.5065,9.4897,9.2744,9.1203,9.1271,9.1305,9.1305,9.1305,9.1305,9.1305,9.1305,9.1305,9.1305,9.1305,9.1305,9.1305,9.1305,9.1305,9.1305,9.1305,9.1203,9.0797,9.0087,9.0729,9.0662,8.9985,9.0696,9.0324,6.1777,6.2254,6.3466,6.8421,7.0293,7.1982,7.6203,7.6717,7.7708,8.259,8.4499,8.5306,8.5306,8.6334,8.7178,0.0,8.7876,8.8573,8.905,8.9124,8.9522,9.0605,9.0646,9.0702,9.096,9.0681,9.0423,9.0528,8.9757,8.9189,8.884,8.8115,8.7642,8.7618,8.7231,8.6995,8.6995,8.6995,8.6995,8.6995,8.6995,8.6995,8.7068,8.8316,8.9601,9.0849,9.151,9.1803,9.1803,9.1803,9.1803,9.184,9.2354,9.2574,9.2501,9.1987,9.1803,9.1803,9.1803,9.1803,9.1877,9.2391,9.2574,9.2648,9.3125,9.3235,9.3235,9.3235,9.3529,9.3786,9.3786,9.4042,9.4483,9.5327,9.6098,9.7052,9.8337,9.9218,9.9952,10.0393,10.0503,10.0503,10.0503,9.8911,9.7724,9.7724,9.4388,9.2116,9.2556,9.3293,9.4083,9.4877,9.3519,9.2904,9.3675,9.31,9.2624,9.2624,9.2624,9.2624,9.2624,9.2624,9.2624,9.2624,9.2184,9.1812,9.1508,9.1372,9.1135,9.0865,9.1169,9.0966,6.7357,6.7834,6.7944,7.334,7.6166,7.7745,7.8295,7.9066,8.0645,8.4205,8.5563,8.6187,8.6407,8.7399,8.828,8.85,8.9234,8.9931,9.0519,9.0812,9.1215,9.2015,9.2159,9.215,9.2202,9.159,9.1261,9.1507,9.0759,9.0323,9.0274,8.9155,8.859,8.8777,8.7616,8.7105,8.7325,8.7105,8.6995,8.6995,8.6995,8.6995,8.7068,8.8683,9.0408,9.217,9.217,9.2281,9.2501,9.2501,9.2501,9.2537,9.3198,9.3418,9.3345,9.2721,9.2501,9.2501,9.2501,9.2501,9.2574,9.3235,9.3418,9.3529,9.4116,9.4299,9.4299,9.4299,9.4446,9.463,9.463,9.4813,9.5217,9.6245,9.6942,9.7787,9.9402,10.0209,10.0796,10.1384,10.1494,10.1494,10.1494,10.0396,9.9497,9.9497,9.6234,9.4018,9.4601,9.5527,9.631,9.6895,9.5234,9.4363,9.4936,9.4168,9.3571,9.3571,9.3571,9.3571,9.3571,9.3571,9.3571,9.3571,9.303,9.2759,9.2725,9.2184,9.1913,9.1913,9.1913,9.1913,6.1337,6.6439,7.1101,7.5983,8.0791,8.4315,8.4352,8.4939,8.5563,8.571,8.6407,8.7215,8.7986,8.8169,8.8463,8.9271,9.0041,9.0592,9.0592,9.1253,9.2052,9.2858,9.2987,9.3264,0.0,9.3372,9.3189,9.3916,9.318,9.2689,9.2706,9.0505,8.9597,9.0441,8.8169,8.7362,8.8169,8.7399,8.6995,8.6995,8.6995,8.6995,8.7068,8.8683,9.0739,9.3051,9.3051,9.3492,9.4226,9.4226,9.4226,9.4226,9.4226,9.4263,9.4263,9.4226,9.4226,9.4226,9.4226,9.4226,9.4226,9.4226,9.4263,9.4263,9.4299,9.4299,9.4299,9.4299,9.485,9.5474,9.5474,9.6061,9.7016,9.8631,9.9035,9.9475,10.109,10.1384,10.1494,10.1494,10.1494,10.1494,10.1494,10.0396,9.9497,9.9497,9.8277,9.7399,9.7399,9.7435,9.6895,9.5708,9.5492,9.4936,9.3772,9.3571,9.3571,9.3571,9.3571,9.3571,9.3571,9.3571,9.3571,9.3571,9.3571,9.3537,9.3537,9.3537,9.3503,9.3503,9.3503,9.3503,6.604,7.1174,7.6056,8.0938,8.3765,8.538,8.538,8.6004,8.6591,8.6591,8.4682,8.3104,8.3361,8.4315,8.5123,8.538,8.8793,9.14,9.14,9.162,9.2089,9.2858,9.2987,0.0,0.0,0.0,0.0,9.3387,9.3125,9.2713,9.2091,9.0852,9.0025,8.9709,8.8465,8.7655,8.7435,8.7655,8.7802,8.7802,8.8353,8.8867,8.9454,9.0519,9.1767,9.3125,9.3675,9.4042,9.4299,9.4299,9.4299,9.4336,9.4887,9.5107,9.518,9.5694,9.5878,9.5731,9.4666,9.4299,9.4373,9.4923,9.5107,9.5217,9.5731,9.5878,9.5878,9.5878,9.6098,9.6318,9.6318,9.6502,9.6979,9.8043,9.8704,9.9402,10.0503,10.109,10.1494,10.1494,10.1494,10.1494,10.1494,10.1058,10.0772,10.0772,9.8913,9.7794,9.8691,9.8024,9.8024,9.9371,9.7098,9.5743,9.6135,9.4556,9.3808,9.4282,9.4315,9.4552,9.5026,9.506,9.506,9.506,9.4586,9.4315,9.4315,9.3842,9.3571,9.3571,9.3571,9.3571,7.2343,7.6497,7.98,8.4682,8.604,8.6224,8.6224,8.6628,8.7105,8.7362,8.4022,8.1195,8.1746,8.27,8.292,8.1489,8.571,8.9234,8.9234,8.9234,9.0172,9.2737,9.3202,9.3878,0.0,0.0,0.0,9.3821,9.353,9.3162,9.2601,9.1853,9.132,9.1024,9.0052,8.9234,8.8757,8.9234,8.9344,8.905,8.9307,8.9968,9.1069,9.1546,9.2574,9.4006,9.452,9.4887,9.5144,9.5144,9.5144,9.5217,9.5731,9.5951,9.5988,9.6502,9.6685,9.6539,9.5511,9.5144,9.5254,9.5768,9.5951,9.6025,9.6539,9.6685,9.6685,9.6685,9.6685,9.6685,9.6685,9.6685,9.6979,9.808,9.8741,9.9402,10.0503,10.1384,10.1898,10.1898,10.2191,10.2375,10.2375,10.2375,10.2375,10.2375,10.0935,9.9929,10.0173,9.975,9.9804,10.1125,9.87,9.7255,9.7672,9.5684,9.4586,9.506,9.5093,9.5296,9.577,9.5804,9.5804,9.5804,9.533,9.5093,9.5093,9.462,9.4383,9.4383,9.4383,9.4383,7.9213,8.1746,8.248,8.7068,8.7619,8.7068,8.7031,8.6995,8.7178,8.7729,8.4022,8.1085,0.0,0.0,8.1819,7.7965,8.1636,8.4976,8.4976,8.4976,8.6966,0.0,0.0,0.0,0.0,0.0,0.0,9.5172,9.45,9.4122,9.4067,9.3438,9.3407,9.4152,9.2672,9.1877,9.1877,9.1877,9.151,9.0776,9.0041,9.0445,9.1877,9.195,9.3235,9.5437,9.5547,9.5988,9.6685,9.6685,9.6685,9.6685,9.6685,9.6685,9.6685,9.6685,9.6685,9.6685,9.6685,9.6685,9.6685,9.6685,9.6685,9.6685,9.6685,9.6685,9.6685,9.6685,9.6722,9.6759,9.6759,9.6795,9.7236,9.8814,9.9181,9.9659,10.12,10.2191,10.2815,10.2815,10.3403,10.388,10.388,10.388,10.3806,10.3806,10.3806,10.3293,10.1788,10.2301,10.2291,10.0978,10.0276,9.9392,9.8145,9.6618,9.5804,9.5838,9.5838,9.5872,9.5905,9.5905,9.5905,9.5905,9.5838,9.5804,9.5804,9.577,9.5736,9.5736,9.577,9.5804,8.0186,8.3765,8.6664,8.7876,8.8059,8.7729,8.7142,8.6995,8.6224,8.3434,7.9433,7.5652,7.3083,7.6056,0.0,7.7488,8.4425,0.0,8.9968,8.9968,0.0,9.2774,0.0,9.353,9.4319,9.4443,0.0,0.0,9.4285,9.3919,9.3393,9.3742,9.3784,9.3378,9.3014,9.2464,9.184,9.2464,9.2978,9.3345,9.3161,9.2941,9.2831,9.4006,9.4593,9.4666,9.5878,9.6502,9.6685,9.6685,9.6685,9.6685,9.6685,9.6685,9.6685,9.6685,9.6685,9.6685,9.6685,9.6685,9.6685,9.6685,9.6685,9.6685,9.6685,9.6685,9.6685,9.6685,9.7126,9.7566,9.7566,9.8043,9.8741,9.9769,10.0503,10.12,10.2191,10.2999,10.3586,10.3586,10.3806,10.388,10.388,10.3403,10.2999,10.2999,10.2999,10.3109,10.3293,10.3476,10.3504,10.3059,10.121,9.9804,9.9392,9.7128,9.6041,9.6582,9.6616,9.6853,9.7428,9.7461,9.7461,9.7461,9.6345,9.5804,9.5804,9.5263,9.4992,9.4992,9.5533,9.5804,8.3741,8.6407,8.8206,8.8206,8.7949,8.6995,8.4425,8.3838,8.27,7.8626,7.4294,7.0734,6.9192,7.323,7.6203,0.0,0.0,0.0,8.8647,8.8647,8.9592,0.0,9.283,0.0,9.4055,9.4173,9.4366,0.0,9.4413,9.4071,9.3602,9.441,9.463,9.4189,9.452,9.4446,9.3969,9.3749,9.4042,9.4813,9.4483,9.4042,9.3675,9.4923,9.5254,9.4887,9.6135,9.6685,9.6685,9.6685,9.6685,9.6685,9.6685,9.6685,9.6685,9.6685,9.6906,9.7236,9.7236,9.7456,9.764,9.6942,9.6942,9.7236,9.7236,9.7456,9.775,9.775,9.808,9.8411,9.8411,9.8778,9.9292,10.0099,10.0907,10.1677,10.2522,10.3623,10.4504,10.4908,10.4981,10.4908,10.4504,10.41,10.3806,10.3806,10.3806,10.3917,10.4394,10.4394,10.4394,10.4394,10.2298,10.0897,10.0897,9.832,9.6785,9.6886,9.7191,9.7428,9.7495,9.7834,9.8003,9.8003,9.7191,9.6785,9.6751,9.6345,9.6142,9.6176,9.6582,9.6785,8.7876,8.872,8.8206,8.8206,8.7692,8.5857,8.0901,7.98,7.8442,7.3707,6.9412,6.6769,6.7614,7.1798,7.4221,7.1358,0.0,8.4829,8.5453,8.5563,8.7105,9.1289,9.2399,9.3128,9.3983,9.4169,9.4541,9.5359,9.4888,9.4556,9.4446,9.5217,9.5658,9.5658,9.6355,9.6685,9.6685,9.5327,9.496,9.5658,9.496,9.4556,9.4483,9.529,9.5621,9.5547,9.6355,9.6685,9.6722,9.6832,9.6869,9.6869,9.6979,9.7016,9.7016,9.7016,9.7456,9.8043,9.8043,9.8521,9.8888,9.7456,9.7493,9.8043,9.8043,9.8557,9.9108,9.9108,9.9181,9.9255,9.9255,9.9365,9.9585,10.0283,10.109,10.1898,10.2705,10.41,10.5495,10.6302,10.6302,10.6009,10.5201,10.4908,10.4798,10.4798,10.4798,10.4798,10.4908,10.5128,10.5201,10.5128,10.3413,10.2172,10.2172,9.956,9.7732,9.7089,9.7631,9.7664,9.692,9.7495,9.7867,9.7867,9.7766,9.7766,9.7867,9.7867,9.7867,9.7867,9.7969,9.8003,8.7949,8.8316,8.8206,8.8206,8.8096,8.6554,8.1048,7.98,7.7488,6.9412,6.7063,6.5558,6.2438,6.6402,7.1248,7.4515,8.0424,8.6004,9.0005,9.0555,9.0849,0.0,9.1912,0.0,0.0,9.386,0.0,0.0,9.5954,9.5988,9.5327,9.6061,9.6502,9.6502,9.6649,9.6685,9.6685,9.6428,9.6355,9.6502,9.6355,9.5951,9.5327,9.6135,9.6135,9.5547,9.6355,0.0,9.6759,9.7419,9.7676,9.775,9.8411,9.8704,9.8704,9.8704,9.8778,9.8888,9.8888,9.8998,9.9071,9.8778,9.8778,9.8888,9.8888,9.8998,9.9108,9.9108,9.9585,10.0099,10.0099,10.0613,10.109,10.1274,10.1898,10.2705,10.3513,10.4981,10.6192,10.6376,10.5789,10.5311,10.5128,10.4027,10.3109,10.3109,10.3109,10.3403,10.399,10.5311,10.5899,10.5201,10.3413,10.2207,10.2172,9.956,9.7969,9.7834,9.7935,9.7664,9.692,9.7022,9.7089,9.7089,9.648,9.648,9.7089,9.7089,9.7089,9.7089,9.7732,9.8003,8.7362,8.7582,8.7582,8.7582,8.7582,8.5563,7.7781,7.5983,7.334,6.4016,6.2071,6.1594,6.0052,6.442,6.9155,7.1908,7.925,8.5416,8.7729,9.0225,9.1803,9.1803,9.1803,9.2317,0.0,9.4079,9.4813,9.6025,9.6502,9.6539,9.6171,9.6502,9.6685,9.6685,9.6685,9.6685,9.6685,9.6685,9.6685,9.6685,9.6685,9.6502,9.6135,9.6539,9.6722,9.6759,9.7163,9.7566,9.797,9.8374,9.8521,9.8557,9.8961,9.9108,9.9108,9.9108,9.9365,9.9732,9.9732,9.9989,10.0319,10.0319,10.0099,9.9732,9.9732,9.9989,10.0319,10.0319,10.0613,10.0907,10.0907,10.12,10.1494,10.1494,10.2412,10.3513,10.4394,10.5201,10.5715,10.5715,10.5018,10.432,10.3917,10.3219,10.2705,10.2705,10.2705,10.2999,10.3806,10.4981,10.5715,10.5789,10.4268,10.3258,10.3357,10.1009,9.9319,9.8578,9.8495,9.8002,9.6886,9.7258,9.7461,9.7461,9.7123,9.7123,9.7461,9.7461,9.7461,9.7461,9.7834,9.8003,8.6518,8.6995,8.6995,8.6995,8.6995,8.4462,7.4735,7.2496,6.9743,6.0015,5.7997,5.818,5.8841,6.2732,6.6476,6.8348,7.5726,8.2039,8.4278,8.7876,9.0629,0.0,9.195,0.0,9.4153,9.4446,0.0,9.6805,9.6915,9.6877,9.6685,9.6685,9.6685,9.6685,9.6685,9.6685,9.6685,9.6685,9.6685,9.6685,9.6869,9.6942,9.6942,9.7126,9.7566,9.8154,9.8154,9.8521,9.9108,9.9292,9.9365,9.9365,9.9548,9.9622,9.9622,9.9622,9.9989,10.0576,10.0576,10.098,10.1494,10.1494,10.109,10.0576,10.0576,10.098,10.1494,10.1494,10.1494,10.1494,10.1494,10.1494,10.1494,10.1494,10.2595,10.3806,10.443,10.4724,10.4798,10.4798,10.421,10.3403,10.2815,10.2595,10.2412,10.2412,10.2595,10.2925,10.3586,10.4504,10.5422,10.6009,10.4999,10.4189,10.4081,10.2238,10.0378,9.8861,9.8775,9.8159,9.6771,9.736,9.7766,9.7766,9.7766,9.7834,9.8003,9.8003,9.8003,9.8003,9.8003,9.8003,8.56,8.6995,8.6995,8.6995,8.6995,8.4462,7.4735,7.2496,6.9743,6.0015,5.7997,5.8033,5.8107,5.9134,6.1704,6.6953,6.9229,7.367,8.3251,8.4976,8.6885,9.1289,0.0,0.0,9.4189,9.496,9.6032,9.7589,9.7695,9.7422,9.6762,9.6685,9.6685,9.6685,9.6685,9.6685,9.6685,9.6685,9.6685,9.6722,9.7419,9.7787,9.7787,9.8557,9.8924,9.8998,9.8998,9.9035,0.0,9.9879,10.0209,10.0283,10.098,10.1274,10.1274,10.1274,10.1274,10.1384,10.1384,10.1384,10.1494,10.1494,10.1384,10.1384,10.1384,10.1384,10.1494,10.1494,10.1494,10.1494,10.1494,10.1494,10.1494,10.1494,10.2191,10.2815,10.2925,10.3513,10.399,10.399,10.3403,10.2815,10.2705,10.2081,10.1604,10.1604,10.2191,10.2705,10.2815,10.421,10.5128,10.5201,10.4708,10.4008,10.3287,10.1953,10.0097,9.8098,9.8498,9.7952,9.6026,9.6582,9.6988,9.6988,9.6988,9.7326,9.8003,9.8003,9.8003,9.8003,9.8003,9.8003,8.4866,8.6628,8.6995,8.6995,8.4829,8.0865,7.4037,7.0257,6.6219,5.9391,5.7997,5.7997,5.7997,5.8657,6.0126,6.2842,6.6439,7.055,7.5212,8.1342,8.5857,8.7288,9.1602,0.0,0.0,0.0,9.7134,9.7756,9.783,9.7492,9.6762,9.6685,9.6685,9.6685,9.6685,9.6942,9.7419,9.7419,9.7676,9.8154,9.8484,9.8631,9.8631,9.8961,9.9365,9.9805,9.9805,10.0099,0.0,10.0907,10.098,10.109,10.1384,10.1494,10.1494,10.1494,10.1494,10.1494,10.1494,10.1494,10.1494,10.1494,10.1494,10.1494,10.1494,10.1494,10.1494,10.1494,10.1494,10.1494,10.1494,10.1494,10.1494,10.1494,10.2081,10.2705,10.2705,10.2999,10.3182,10.3182,10.2485,10.2008,10.2008,10.1677,10.1494,10.1494,10.1788,10.2191,10.2595,10.3696,10.4614,10.5018,10.5362,10.5392,10.51,10.4109,10.2991,10.1796,10.0694,9.9658,9.8468,9.7813,9.7563,9.7563,9.7563,9.7698,9.8003,9.8003,9.8003,9.8003,9.8003,9.8003,8.2553,8.549,8.6995,8.6995,8.3361,7.8516,7.3634,6.8788,6.3906,5.9024,5.7997,5.7997,5.7997,5.8474,5.9208,6.0236,6.3759,6.7247,6.9743,7.646,8.1489,8.2333,0.0,9.1455,9.3125,9.6459,9.8308,9.7823,9.7993,9.7806,9.7093,9.7052,9.7052,9.7052,9.7052,9.7456,9.8264,9.8264,9.8557,9.9108,9.9365,9.9475,9.9475,9.9695,10.0099,10.0686,10.0686,10.098,0.0,10.1494,10.1494,10.1494,10.1494,10.1494,10.1494,10.1494,10.1494,10.1494,10.1494,10.1494,10.1494,10.1494,10.1494,10.1494,10.1494,10.1494,10.1494,10.1494,10.1494,10.1494,10.1494,10.1494,10.1494,10.1494,10.1898,10.2301,10.2301,10.2301,10.2301,10.2301,10.1898,10.1494,10.1494,10.1494,10.1494,10.1494,10.1677,10.2081,10.2595,10.3586,10.4504,10.5018,10.5899,10.6302,10.6009,10.5495,10.4691,10.3705,10.1961,10.0625,9.9867,9.8617,9.8003,9.8003,9.8003,9.8003,9.8003,9.8003,9.8003,9.8003,9.8003,9.8003,7.8075,8.3361,8.6995,8.6995,8.3361,7.8516,7.3634,6.8788,6.3906,5.9024,5.7997,5.7997,5.7997,5.7997,5.8547,6.0126,6.0456,6.2732,6.9192,7.0183,7.2018,7.6827,7.8883,8.2191,8.772,9.5484,9.9509,9.7927,9.8529,9.8653,9.7978,9.7897,9.7897,9.7897,9.7897,9.8264,9.9071,9.9108,9.9108,9.9108,9.9916,10.0283,10.0283,10.109,10.1494,10.1494,10.1494,10.1494,0.0,10.1494,10.1494,10.1494,10.1494,10.1494,10.1494,10.1494,10.1494,10.1494,10.1494,10.1494,10.1494,10.1494,10.1494,10.1494,10.1494,10.1494,10.1494,10.1494,10.1494,10.1494,10.1494,10.1494,10.1494,10.1494,10.1494,10.1494,10.1494,10.1494,10.1494,10.1494,10.1494,10.1494,10.1494,10.1494,10.1494,10.1494,10.2191,10.2705,10.2705,10.41,10.5128,10.5128,10.5899,10.6082,10.5201,10.5128,10.418,10.2079,10.1283,10.0414,9.9104,9.8344,9.8003,9.8003,9.8003,9.8003,9.8003,9.8003,9.8003,9.8003,9.8003,9.8003,7.1688,7.4698,7.6423,7.6974,7.345,6.9486,6.7944,6.3833,5.9869,5.8327,5.7997,5.7997,5.7997,5.7997,5.8547,6.0126,6.0419,6.152,6.4677,7.1358,7.6276,7.7194,8.5567,9.2618,9.6082,9.8731,9.9547,9.7927,9.8619,9.8768,9.7937,9.8411,9.8741,9.8741,9.8741,9.9108,9.9916,9.9916,10.0209,10.0686,10.098,10.109,10.109,10.1384,10.1494,10.1494,10.1494,10.1494,10.1494,10.1494,10.1494,10.1494,10.1494,10.1494,10.1494,10.1494,10.1494,10.1494,10.1494,10.1494,10.1494,10.1494,10.1494,10.1494,10.1494,10.1494,10.1494,10.1494,10.1494,10.1494,10.1494,10.1494,10.1494,10.1494,10.1494,10.1494,10.1494,10.1494,10.1494,10.1494,10.1494,10.1494,10.1494,10.1494,10.1494,10.1494,10.1677,10.2081,10.2595,10.3623,10.4504,10.5018,10.5899,10.6302,10.6009,10.6009,10.5693,10.4983,10.3885,10.2631,10.1152,10.011,9.8924,9.8003,9.851,9.8747,9.8747,9.9254,9.9525,9.9525,9.9525,9.9525,6.5852,6.9302,7.1431,7.1945,6.8641,6.5301,6.5301,6.152,5.7997,5.7997,5.7997,5.7997,5.7997,5.8253,5.8877,6.0199,6.0639,6.1961,6.5118,7.1248,7.6093,7.8038,8.7459,9.4575,9.6431,9.85,9.9179,9.786,9.8613,9.8865,9.8415,9.9108,9.9695,9.9989,9.9695,9.9952,10.0686,10.0796,10.098,10.1494,10.1494,10.1494,10.1494,10.1494,10.1494,10.1494,10.1494,10.1494,0.0,10.1494,10.1494,10.1494,10.1494,10.1494,10.1494,10.1494,10.1494,10.1494,10.1494,10.1494,10.1494,10.1494,10.1494,10.1494,10.1494,10.1494,10.1494,10.1494,10.1494,10.1494,10.1494,10.1494,10.1494,10.1494,10.1494,10.1494,10.1494,10.1494,10.1494,10.1494,10.1494,10.1494,10.1494,10.1494,10.1494,10.1494,10.1788,10.2191,10.2999,10.388,10.4687,10.5495,10.6082,10.6376,10.6376,10.6376,10.6376,10.6376,10.4614,10.323,10.2561,10.1269,10.0029,9.8848,9.9805,10.0078,9.9525,9.9999,10.0235,10.0235,10.0235,10.0235,0.0,6.6035,7.0146,7.0257,6.7467,6.4714,6.4787,6.1263,0.0,5.7997,5.7997,5.8033,5.807,5.8694,5.9501,6.0346,6.1117,6.3576,6.9302,7.0734,7.3508,7.9669,8.6029,9.0092,9.0577,9.5638,9.8591,9.7837,9.8588,9.9127,9.9223,9.9952,10.0686,10.1494,10.0796,10.0686,10.1494,10.1494,10.1494,10.1494,10.1494,10.1494,10.1494,10.1494,10.1494,10.1494,10.1494,10.1494,10.1494,10.1494,10.1494,10.1494,10.1494,10.1494,10.1494,10.1494,10.1494,10.1494,10.1494,10.1494,10.1494,10.1494,10.1494,10.1494,10.1494,10.1494,10.1494,10.1494,10.1494,10.1494,10.1494,10.1494,10.1494,10.1494,10.1494,10.1494,10.1494,10.1494,10.1494,10.1494,10.1494,10.1494,10.1494,10.1494,10.1494,10.1494,10.2191,10.2999,10.3806,10.4614,10.5422,10.6302,10.6302,10.6376,10.6486,10.6413,10.6413,10.6486,10.4012,10.2943,10.348,10.2334,10.1346,10.051,10.175,10.1784,10.0463,10.0371,10.0405,10.0405,10.0405,10.0405,5.4876,0.0,5.8657,5.9905,5.9501,5.8951,0.0,5.8841,5.7997,5.7997,5.7997,5.818,5.8804,5.9098,5.9685,6.108,6.1484,6.3576,6.9302,7.7011,8.3171,8.5892,9.1322,9.3797,9.0913,9.5118,9.8023,9.7912,9.8685,9.9342,9.9989,10.0796,10.1274,10.1494,10.1274,10.1274,10.1494,10.1494,10.1494,10.1494,10.1494,10.1494,10.1494,10.1494,10.1494,10.1494,10.1494,10.1494,10.1494,10.1494,10.1494,10.1494,10.1494,10.1494,10.1494,10.1494,10.1494,10.1494,10.1494,10.1494,10.1494,10.1494,10.1494,10.1494,10.1494,10.1494,10.1494,10.1494,10.1494,10.1494,10.1494,10.1494,10.1494,10.1494,10.1494,10.1494,10.1494,10.1494,10.1494,10.1494,10.1494,10.1494,10.1494,10.1494,10.1494,10.1494,10.2191,10.2999,10.3806,10.41,10.4798,10.6192,10.5789,10.5899,10.7183,10.678,10.667,10.7294,10.6664,10.616,10.5894,10.5633,10.482,10.3642,10.337,10.3344,10.3557,10.2495,10.1995,10.1995,10.1995,10.1995,5.2527,5.3518,5.462,5.55,5.6271,5.6932,5.7336,5.774,5.7997,5.7997,5.7997,5.8253,5.9061,6.1337,6.2768,6.1741,6.5668,7.0036,7.3523,7.9213,8.433,8.7767,9.1239,9.3319,9.3356,9.5762,9.7469,9.7901,9.8668,9.9475,10.0283,10.109,10.1494,10.1494,10.1494,10.1494,10.1494,10.1494,10.1494,10.1494,10.1494,10.1494,10.1494,10.1494,10.1494,10.1494,10.1494,10.1494,10.1494,10.1494,10.1494,10.1494,10.1494,10.1494,10.1494,10.1494,10.1494,10.1494,10.1494,10.1494,10.1494,10.1494,10.1494,10.1494,10.1494,10.1494,10.1494,10.1494,10.1494,10.1494,10.1494,10.1494,10.1494,10.1494,10.1494,10.1494,10.1494,10.1494,10.1494,10.1494,10.1494,10.1494,10.1494,10.1494,10.1494,10.1494,10.2485,10.3403,10.3806,10.4577,10.5495,10.678,10.6486,10.678,10.7991,10.7771,10.7697,10.8101,10.7467,10.7216,10.7148,10.7184,10.7071,10.6619,10.4892,10.4189,10.4639,10.3132,10.2502,10.2502,10.2502,10.2502,5.2123,5.3812,5.5317,5.4583,5.5537,5.6638,5.6785,5.7409,5.7997,5.7997,5.8107,5.8657,6.0236,6.3943,6.5925,6.3319,7.1027,7.7892,7.947,8.1048,8.3544,8.7692,8.9564,9.1877,9.5254,9.6355,9.7236,9.8007,9.8814,9.9622,10.0393,10.109,10.1494,10.1494,10.1494,10.1494,10.1494,10.1494,10.1494,10.1494,10.1494,10.1494,10.1494,10.1494,10.1494,10.1494,10.1494,10.1494,10.1494,10.1494,10.1494,10.1494,10.1494,10.1494,10.1494,10.1494,10.1494,10.1494,10.1494,10.1494,10.1494,10.1494,10.1494,10.1494,10.1494,10.1494,10.1494,10.1494,10.1494,10.1494,10.1494,10.1494,10.1494,10.1494,10.1494,10.1494,10.1494,10.1494,10.1494,10.1494,10.1494,10.1494,10.1494,10.1604,10.1677,10.1677,10.3072,10.41,10.41,10.5311,10.6596,10.7477,10.7477,10.7807,10.8909,10.8982,10.9019,10.9202,10.7945,10.7472,10.8305,10.8341,10.8763,10.9282,10.6446,10.4924,10.4924,10.3257,10.2502,10.2502,10.2502,10.2502,5.2637,5.6675,5.9501,5.5427,5.5097,5.5941,5.6638,5.7409,5.7997,5.7997,5.8547,6.0529,6.5485,6.4273,6.3906,6.8091,7.3634,7.9103,8.4022,8.894,9.1106,8.85,9.2574,9.4263,9.0849,9.4887,9.8043,9.8851,9.9659,10.0503,10.1274,10.1384,10.1494,10.1494,10.1494,10.1494,10.1494,10.1494,10.1494,10.1494,10.1494,10.1494,10.1494,10.1494,10.1494,10.1494,10.1494,10.1494,10.1494,10.1494,10.1494,10.1494,10.1494,10.1494,10.1494,10.1494,10.1494,10.1494,10.1494,10.1494,10.1494,10.1494,10.1494,10.1494,10.1494,10.1494,10.1494,10.1494,10.1494,10.1494,10.1494,10.1494,10.1494,10.1494,10.1494,10.1494,10.1494,10.1494,10.1494,10.1494,10.1494,10.1494,10.1494,10.2081,10.2522,10.2522,10.3917,10.4908,10.4908,10.5128,10.5899,10.7404,10.7,10.7477,10.9606,10.979,11.0083,11.0817,10.9981,10.9782,11.0624,11.0698,11.0698,11.0917,10.8046,10.6517,10.6517,10.381,10.2502,10.2502,10.2502,10.2502,5.2234,5.506,5.7813,5.818,6.1227,6.42,6.4567,6.5595,6.5742,6.3135,6.3246,6.4714,6.7797,6.8935,7.2129,8.0461,7.969,8.0021,8.5673,8.6848,8.7545,8.872,9.1179,9.2905,9.3308,9.6098,9.8227,9.9035,9.9842,10.0686,10.1494,10.1494,10.1494,10.1494,10.1494,10.1494,10.1494,10.1494,10.1494,10.1494,10.1494,10.1494,10.1494,10.1494,10.1494,10.1494,10.1494,10.1494,10.1494,10.1494,10.1494,10.1494,10.1494,10.1494,10.1494,10.1494,10.1494,10.1494,10.1494,10.1494,10.1494,10.1494,10.1494,10.1494,10.1494,10.1494,10.1494,10.1494,10.1494,10.1494,10.1494,10.1494,10.1494,10.1494,10.1494,10.1494,10.1494,10.1788,10.2118,10.2118,10.2485,10.2779,10.2779,10.3109,10.3293,10.3293,10.432,10.5128,10.5128,10.5495,10.6413,10.8101,10.7881,10.8505,11.0487,11.0597,11.0817,11.1221,11.0891,11.0817,11.1221,11.1221,11.1221,11.1221,10.9123,10.7558,10.681,10.4674,10.3223,10.2502,10.2502,10.2502,5.2234,5.4399,5.7299,6.119,6.5081,6.8568,7.1027,7.1798,7.1321,6.8972,6.9119,6.9853,7.0477,7.378,7.9029,8.7105,8.3838,8.226,8.7912,8.6224,8.6077,9.0592,9.1143,9.2574,9.6355,9.7603,9.8447,9.9071,9.9989,10.0796,10.1494,10.1494,10.1494,10.1494,10.1494,10.1494,10.1494,10.1494,10.1494,10.1494,10.1494,10.1494,10.1494,10.1494,10.1494,10.1494,10.1494,10.1494,10.1494,10.1494,10.1494,10.1494,10.1494,10.1494,10.1494,10.1494,10.1494,10.1494,10.1494,10.1494,10.1494,10.1494,10.1494,10.1494,10.1494,10.1494,10.1494,10.1494,10.1604,10.1677,10.1494,10.1494,10.1494,10.1677,10.1788,10.1788,10.2008,10.2485,10.2999,10.2999,10.3513,10.388,10.388,10.41,10.421,10.421,10.4908,10.5422,10.5422,10.6192,10.7183,10.8615,10.8982,10.9679,11.1111,11.1221,11.1221,11.1221,11.1221,11.1221,11.1221,11.1221,11.1221,11.1221,10.9811,10.8382,10.7346,10.5776,10.4555,10.3473,10.32,10.3039,5.3592,5.8143,6.2475,6.3613,6.086,6.0419,7.0183,6.9633,6.8385,7.3303,7.4955,7.5506,7.5579,7.6497,7.7488,7.8222,8.226,8.7252,9.2978,9.4189,9.4887,9.6061,9.6171,9.6318,9.6685,9.8117,9.9035,9.9108,10.0503,10.1384,10.1494,10.1494,10.1494,10.1494,10.1494,10.1494,10.1494,10.1494,10.1494,10.1494,10.1494,10.1494,10.1494,10.1494,10.1494,10.1494,10.1494,10.1494,10.1494,10.1494,10.1494,10.1494,10.1494,10.1494,10.1494,10.1494,10.1494,10.1494,10.1494,10.1494,10.1494,10.1494,10.1494,10.1494,10.1494,10.1494,10.1494,10.1494,10.2008,10.2412,10.1677,10.1494,10.1677,10.2412,10.2595,10.2815,10.3586,10.3806,10.3806,10.3806,10.388,10.388,10.388,10.4504,10.5018,10.5018,10.5789,10.6302,10.6302,10.7,10.7807,10.8688,10.9496,11.0304,11.1111,11.1221,11.1221,11.1221,11.1221,11.1221,11.1221,11.1221,11.1221,11.1221,10.9811,10.8953,10.8854,10.7382,10.6591,10.6517,10.5076,10.4366,5.3885,5.851,6.3135,6.4494,6.3833,6.5448,7.5506,7.7378,7.6754,7.5836,7.8699,8.0461,7.7414,8.2039,8.549,8.2994,8.7362,9.2024,9.4666,9.5731,9.6355,9.6649,9.6685,9.6906,9.7383,9.8447,9.9328,9.9805,10.0907,10.1494,10.1494,10.1494,10.1494,10.1494,10.1494,10.1494,10.1494,10.1494,10.1494,10.1494,10.1494,10.1494,10.1494,10.1494,10.1494,10.1494,10.1494,10.1494,10.1494,10.1494,10.1494,10.1494,10.1494,10.1494,10.1494,10.1494,10.1494,10.1494,10.1494,10.1494,10.1494,10.1494,10.1494,10.1494,10.1494,10.1788,10.2191,10.2191,10.2815,10.3293,10.2485,10.2595,10.3072,10.3403,10.3403,10.3513,10.3806,10.4284,10.4614,10.4614,10.5091,10.5495,10.5495,10.5678,10.5899,10.5899,10.6192,10.6376,10.6376,10.7073,10.7881,10.8688,11.001,11.0891,11.1221,11.1221,11.1221,11.1221,11.1221,11.1221,11.1221,11.1221,11.1221,11.1221,11.07,10.9869,10.8989,10.8418,10.7663,10.6845,10.5274,10.4605,5.6565,5.9869,6.3649,6.71,6.7393,6.9486,7.947,8.1415,8.1085,8.1048,8.3141,8.3875,8.0277,8.5453,8.9307,8.6297,9.0776,9.4887,9.5437,9.6208,9.6685,9.6685,9.6685,9.7016,9.7823,9.8631,9.9438,10.0209,10.098,10.1494,10.1494,10.1494,10.1494,10.1494,10.1494,10.1494,10.1494,10.1494,10.1494,10.1494,10.1494,10.1494,10.1494,10.1494,10.1494,10.1494,10.1494,10.1494,10.1494,10.1494,10.1494,10.1494,10.1494,10.1494,10.1494,10.1494,10.1494,10.1494,10.1494,10.1494,10.1494,10.1494,10.1677,10.1898,10.1898,10.2412,10.3109,10.3109,10.3696,10.421,10.3623,10.3696,10.399,10.421,10.4284,10.4394,10.4614,10.5091,10.5495,10.5495,10.6009,10.6376,10.6376,10.6376,10.6376,10.6376,10.6376,10.6376,10.6376,10.7294,10.8395,10.9423,11.0524,11.1221,11.1221,11.1221,11.1221,11.1221,11.1221,11.1221,11.1221,11.1221,11.1221,11.1221,11.1221,11.0663,10.9643,10.9643,10.9221,10.8148,10.6701,10.5768,6.2108,6.2805,6.4604,7.1835,7.0697,7.055,8.1048,7.969,7.9176,8.9638,8.861,8.5527,8.4756,8.5967,8.6811,8.5967,9.1289,9.5511,9.5511,9.6208,9.6685,9.6685,9.6685,9.7016,9.7823,9.8631,9.9438,10.0283,10.098,10.1494,10.1494,10.1494,10.1494,10.1494,10.1494,10.1494,10.1494,10.1494,10.1494,10.1494,10.1494,10.1494,10.1494,10.1494,10.1494,10.1494,10.1494,10.1494,10.1494,10.1494,10.1494,10.1494,10.1494,10.1494,10.1494,10.1494,10.1494,10.1494,10.1494,10.1494,10.1494,10.1494,10.2081,10.2705,10.2705,10.3293,10.388,10.388,10.4504,10.5128,10.5128,10.4504,10.41,10.4908,10.5128,10.5311,10.6192,10.6376,10.6376,10.6376,10.6376,10.6376,10.6376,10.6376,10.6376,10.6376,10.6376,10.6376,10.6413,10.7807,10.9386,11.1001,11.1221,11.1221,11.1221,11.1221,11.1221,11.1221,11.1221,11.1221,11.1221,11.1221,11.1221,11.1221,11.1221,11.1221,11.1221,11.1221,11.1221,11.1221,10.9679,10.8215,5.7226,6.2732,6.8164,6.9192,7.3707,7.8993,8.3287,8.3544,8.4792,9.1363,8.8573,8.5049,8.538,8.8647,9.0482,8.7912,9.1987,9.5694,9.6282,9.6539,9.6685,9.6685,9.6685,9.7236,9.8631,9.8961,9.9659,10.098,10.1384,10.1494,10.1494,10.1494,10.1494,10.1494,10.1494,10.1494,10.1494,10.1494,10.1494,10.1494,10.1494,10.1494,10.1494,10.1494,10.1494,10.1494,10.1494,10.1494,10.1494,10.1494,10.1494,10.1494,10.1494,10.1494,10.1494,10.1494,10.1494,10.1494,10.1494,10.1898,10.2301,10.2301,10.2889,10.3513,10.3513,10.41,10.4724,10.4724,10.5385,10.6009,10.6009,10.5789,10.5678,10.6009,10.6009,10.6082,10.6302,10.6376,10.6376,10.6376,10.6376,10.6376,10.6376,10.6376,10.6376,10.6376,10.6376,10.678,10.7918,10.8505,10.9386,11.1001,11.1221,11.1221,11.1221,11.1221,11.1221,11.1221,11.1221,11.1221,11.1221,11.1221,11.1221,11.1221,11.1221,11.1221,11.1221,11.1221,11.1221,11.1221,10.9679,10.9079,6.3172,6.7357,7.1101,7.5285,7.9286,8.3214,8.7105,8.8059,8.9117,9.2414,9.0821,8.8996,8.9496,9.283,9.4629,9.1924,9.4568,9.6833,9.6688,9.699,9.7027,9.6762,9.6685,9.7199,9.8521,9.8924,9.9622,10.0907,10.1274,10.1494,10.1494,10.1494,10.1494,10.1494,10.1494,10.1494,10.1494,10.1494,10.1494,10.1494,10.1494,10.1494,10.1494,10.1494,10.1494,10.1494,10.1494,10.1494,10.1494,10.1494,10.1494,10.1494,10.1494,10.1494,10.1494,10.1494,10.1494,10.1494,10.1898,10.2301,10.2815,10.3109,10.3696,10.4394,10.4394,10.4981,10.5605,10.5605,10.6009,10.6376,10.6376,10.6376,10.6376,10.6376,10.6376,10.6376,10.6376,10.6376,10.6376,10.6376,10.6376,10.6376,10.6376,10.6376,10.6376,10.6376,10.667,10.7294,10.8615,10.9092,10.979,11.1111,11.1221,11.1221,11.1221,11.1221,11.1221,11.1221,11.1221,11.1221,11.1221,11.1221,11.1221,11.1221,11.1221,11.1221,11.1221,11.1221,11.1405,11.1698,11.0826,11.0453,7.4111,7.4133,7.3823,8.5747,8.5894,8.4792,9.1473,9.2427,9.2126,9.297,9.4254,9.5294,9.5386,9.7309,9.8433,9.705,9.8041,9.8467,9.699,9.7388,9.7525,9.6838,9.6685,9.7016,9.7823,9.8557,9.9328,10.0099,10.0907,10.1384,10.1384,10.1494,10.1494,10.1494,10.1494,10.1494,10.1494,10.1494,10.1494,10.1494,10.1494,10.1494,10.1494,10.1494,10.1494,10.1494,10.1494,10.1494,10.1494,10.1494,10.1494,10.1494,10.1494,10.1494,10.1494,10.1494,10.1494,10.1677,10.2412,10.2815,10.2999,10.3806,10.4614,10.5201,10.5201,10.5789,10.6376,10.6376,10.6376,10.6376,10.6376,10.6376,10.6376,10.6376,10.6376,10.6376,10.6376,10.6376,10.6376,10.6376,10.6376,10.6376,10.6376,10.6376,10.6376,10.6376,10.7073,10.7881,10.8688,10.9496,11.0304,11.1111,11.1221,11.1221,11.1221,11.1221,11.1221,11.1221,11.1221,11.1221,11.1221,11.1221,11.1221,11.1221,11.1221,11.1221,11.1295,11.1295,11.1698,11.2506,11.2506,11.2252,6.5469,7.1743,7.8555,8.2711,8.6775,9.0152,9.173,9.2409,9.3016,9.3779,9.4217,9.4834,9.6026,9.7234,9.8119,9.8433,9.874,9.8651,9.7695,9.7695,9.7525,9.6838,9.6685,9.7016,9.7823,9.8043,9.8484,9.9292,10.0099,10.0576,10.0576,10.12,10.1494,10.1494,10.1494,10.1494,10.1494,10.1494,10.1494,10.1494,10.1494,10.1494,10.1494,10.1494,10.1494,10.1494,10.1494,10.1494,10.1494,10.1494,10.1494,10.1494,10.1494,10.1494,10.1494,10.1494,10.1898,10.2485,10.2595,10.3513,10.4614,10.4798,10.5422,10.6082,10.6082,10.6302,10.6376,10.6376,10.6376,10.6376,10.6376,10.6376,10.6376,10.6376,10.6376,10.6376,10.6376,10.6376,10.6376,10.6376,10.6376,10.6376,10.6376,10.6376,10.6376,10.6376,10.7073,10.7881,10.8688,10.9496,11.0304,11.1111,11.1221,11.1221,11.1221,11.1221,11.1221,11.1221,11.1221,11.1221,11.1221,11.1221,11.1221,11.1221,11.1221,11.1515,11.2102,11.2102,11.2579,11.3277,11.3277,11.3627,6.8015,7.265,7.6753,8.3897,8.8757,9.1912,9.2262,9.2699,9.3352,9.4443,9.5347,9.6209,9.7409,9.8611,9.9466,9.9577,9.986,9.9706,9.8529,9.8342,9.8252,9.7868,9.7174,9.6948,9.7801,9.7909,9.808,9.8484,9.9255,9.9879,10.0283,10.0686,10.109,10.1494,10.1494,10.1494,10.1494,10.1494,10.1494,10.1494,10.1494,10.1494,10.1494,10.1494,10.1494,10.1494,10.1494,10.1494,10.1494,10.1494,10.1494,10.1494,10.1494,10.1677,10.2081,10.2081,10.2595,10.3293,10.3696,10.443,10.5201,10.5605,10.6009,10.6376,10.6376,10.6376,10.6376,10.6376,10.6376,10.6376,10.6376,10.6376,10.6376,10.6376,10.6376,10.6376,10.6376,10.6376,10.6376,10.6376,10.6376,10.6376,10.6376,10.6376,10.6376,10.6376,10.7073,10.7881,10.8688,10.9496,11.0304,11.1111,11.1221,11.1221,11.1221,11.1221,11.1221,11.1221,11.1221,11.1221,11.1221,11.1588,11.1588,11.1221,11.1588,11.1992,11.2396,11.28,11.3387,11.4194,11.4194,11.4598,7.1818,7.4074,7.4955,8.6518,9.0735,9.2159,9.2896,9.3239,9.3706,9.4915,9.6523,9.7936,9.8673,10.0212,10.1091,10.0497,10.0928,10.0765,9.9401,9.9122,9.8949,9.8831,9.7663,9.7101,9.7525,9.7728,9.787,9.7676,9.8447,9.9181,9.9842,10.0099,10.0613,10.1274,10.1384,10.1494,10.1494,10.1494,10.1494,10.1494,10.1494,10.1494,10.1494,10.1494,10.1494,10.1494,10.1494,10.1494,10.1494,10.1494,10.1494,10.1494,10.1677,10.2081,10.2705,10.2889,10.3403,10.421,10.4908,10.5201,10.5422,10.6192,10.6376,10.6376,10.6376,10.6376,10.6376,10.6376,10.6376,10.6376,10.6376,10.6376,10.6376,10.6376,10.6376,10.6376,10.6376,10.6376,10.6376,10.6376,10.6376,10.6376,10.6376,10.6376,10.6376,10.6376,10.7073,10.7881,10.8688,10.9496,11.0304,11.1111,11.1221,11.1221,11.1221,11.1221,11.1221,11.1221,11.1295,11.1405,11.1405,11.2212,11.2286,11.1588,11.2286,11.2689,11.28,11.3497,11.4194,11.5002,11.5002,11.5406,6.407,7.2569,8.2003,8.7949,9.1148,9.2858,9.2987,9.3991,9.4963,9.5142,9.6523,9.7936,9.8673,10.0212,10.1288,10.121,10.1211,10.1011,10.0223,9.9401,9.8772,9.8058,9.7763,9.7422,9.6915,9.7391,9.7536,9.6909,9.7603,9.8117,9.819,9.9548,10.0319,10.0503,10.109,10.1494,10.1494,10.1494,10.1494,10.1494,10.1494,10.1494,10.1494,10.1494,10.1494,10.1494,10.1494,10.1494,10.1494,10.1494,10.1494,10.1567,10.2301,10.2595,10.2815,10.3513,10.421,10.5018,10.5091,10.5605,10.6192,10.6376,10.6376,10.6376,10.6376,10.6376,10.6376,10.6376,10.6376,10.6376,10.6376,10.6376,10.6376,10.6376,10.6376,10.6376,10.6376,10.6376,10.6376,10.6376,10.6376,10.6376,10.6376,10.6376,10.6376,10.6376,10.7073,10.7881,10.8688,10.9496,11.0304,11.1111,11.1221,11.1221,11.1221,11.1221,11.1221,11.1221,11.1882,11.2212,11.2212,11.2983,11.3387,11.3277,11.3387,11.3791,11.4488,11.4598,11.5112,11.581,11.581,11.5883,6.4816,7.3707,8.2223,8.7986,9.0846,9.2517,9.3417,9.4424,9.5318,9.5741,9.6741,9.782,9.8635,10.0212,10.1289,10.1289,10.1289,10.121,10.0885,10.0223,9.9547,9.9179,9.8342,9.7626,9.7388,9.7282,9.7027,9.6685,9.7016,9.7419,9.786,9.8557,9.9365,10.0283,10.0613,10.098,10.1494,10.1494,10.1494,10.1494,10.1494,10.1494,10.1494,10.1494,10.1494,10.1494,10.1494,10.1494,10.1494,10.1494,10.1788,10.2191,10.2595,10.3293,10.41,10.443,10.5091,10.5789,10.5789,10.6082,10.6376,10.6376,10.6376,10.6376,10.6376,10.6376,10.6376,10.6376,10.6376,10.6376,10.6376,10.6376,10.6376,10.6376,10.6376,10.6376,10.6376,10.6376,10.6376,10.6376,10.6376,10.6376,10.6376,10.6376,10.6376,10.6376,10.7073,10.7881,10.8688,10.9496,11.0304,11.1111,11.1221,11.1405,11.1808,11.1882,11.2102,11.2506,11.2873,11.3093,11.3093,11.3791,11.4305,11.4305,11.4305,11.4415,11.4818,11.5296,11.5699,11.5993,11.5993,11.5993,6.5228,7.2092,7.7953,8.5611,8.8801,9.0809,9.3456,9.4763,9.5657,9.6213,9.6942,9.7711,9.8365,9.9865,10.1096,10.1289,10.1289,10.1289,10.1289,10.0672,10.0185,10.0185,9.8949,9.8058,9.783,9.7317,9.6915,9.6685,9.6685,9.6942,9.7566,9.7787,9.8521,9.9952,10.0209,10.0686,10.1494,10.1494,10.1494,10.1494,10.1494,10.1494,10.1494,10.1494,10.1494,10.1494,10.1494,10.1494,10.1494,10.1677,10.2191,10.2705,10.3219,10.4027,10.5128,10.5311,10.5789,10.6376,10.6376,10.6376,10.6376,10.6376,10.6376,10.6376,10.6376,10.6376,10.6376,10.6376,10.6376,10.6376,10.6376,10.6376,10.6376,10.6376,10.6376,10.6376,10.6376,10.6376,10.6376,10.6376,10.6376,10.6376,10.6376,10.6376,10.6376,10.6376,10.7073,10.7881,10.8688,10.9679,11.0597,11.1405,11.1698,11.2102,11.2689,11.2689,11.2983,11.357,11.3791,11.3901,11.3901,11.4708,11.5112,11.5112,11.5112,11.5112,11.5112,11.5699,11.5993,11.5993,11.5993,11.5993,6.1557,6.4604,6.871,7.9633,8.4185,8.7344,9.2679,9.5125,9.6251,9.6288,9.6942,9.7519,9.7557,9.8981,10.0404,10.1212,10.1289,10.1289,10.1289,10.0672,10.0185,10.0185,9.9455,9.8651,9.786,9.7763,9.7422,9.6762,9.6685,9.6722,9.6759,9.7493,9.83,9.9145,9.9916,10.0686,10.1494,10.1494,10.1494,10.1494,10.1494,10.1494,10.1494,10.1494,10.1494,10.1494,10.1494,10.1494,10.1567,10.2301,10.2705,10.2889,10.4394,10.5018,10.5201,10.6009,10.6376,10.6376,10.6376,10.6376,10.6376,10.6376,10.6376,10.6376,10.6376,10.6376,10.6376,10.6376,10.6376,10.6376,10.6376,10.6376,10.6376,10.6376,10.6376,10.6376,10.6376,10.6376,10.6376,10.6376,10.6376,10.6376,10.6376,10.6376,10.6376,10.6376,10.7073,10.7881,10.8688,11.0193,11.1405,11.2286,11.2983,11.3497,11.3497,11.3497,11.357,11.357,11.4305,11.4708,11.4708,11.5479,11.5883,11.5883,11.5883,11.5883,11.5883,11.5993,11.5993,11.5993,11.5993,11.5993,6.0493,6.2842,6.5647,7.385,8.0399,8.5527,8.798,9.2588,9.6288,9.6288,9.6519,9.6903,9.7403,9.8481,9.9519,10.0404,10.0481,10.0712,10.1212,10.1091,10.0722,10.0309,9.9949,9.9455,9.8651,9.8124,9.7695,9.7422,9.699,9.6915,9.7351,9.7719,9.8497,9.9869,10.0128,10.0721,10.1494,10.1494,10.1494,10.1494,10.1494,10.1494,10.1494,10.1494,10.1494,10.1494,10.1494,10.1494,10.1567,10.2412,10.2999,10.3586,10.4724,10.5422,10.6009,10.6302,10.6376,10.6376,10.6376,10.6376,10.6376,10.6376,10.6376,10.6376,10.6376,10.6376,10.6376,10.6376,10.6376,10.6376,10.6376,10.6376,10.6376,10.6376,10.6376,10.6376,10.6376,10.6376,10.6376,10.6376,10.6376,10.6376,10.6376,10.6376,10.6596,10.7073,10.8285,10.9386,11.0193,11.1698,11.2873,11.3093,11.3387,11.3791,11.4305,11.4378,11.4598,11.5075,11.5406,11.5589,11.5589,11.581,11.5993,11.5993,11.5993,11.5993,11.5993,11.5993,11.5993,11.5993,11.5993,11.5993,5.8107,5.9575,6.1569,6.8351,7.42,7.963,8.4461,8.9447,9.3678,9.5828,9.6288,9.648,9.7019,9.7557,9.8327,9.9481,9.9635,9.9942,10.0789,10.0904,10.0824,10.0595,10.0404,9.9999,9.9455,9.8712,9.8124,9.783,9.7388,9.7245,9.7763,9.783,9.8575,10.0215,10.0272,10.0721,10.1494,10.1494,10.1494,10.1494,10.1494,10.1494,10.1494,10.1494,10.1494,10.1494,10.1788,10.1898,10.1971,10.2815,10.3586,10.4394,10.5201,10.5899,10.6376,10.6376,10.6376,10.6376,10.6376,10.6376,10.6376,10.6376,10.6376,10.6376,10.6376,10.6376,10.6376,10.6376,10.6376,10.6376,10.6376,10.6376,10.6376,10.6376,10.6376,10.6376,10.6376,10.6376,10.6376,10.6376,10.6596,10.678,10.678,10.7,10.7404,10.7881,10.9386,11.0597,11.1111,11.28,11.3974,11.3974,11.4194,11.4598,11.5185,11.5185,11.5406,11.5993,11.5993,11.5993,11.5993,11.5993,11.5993,11.5993,11.5993,11.5993,11.5993,11.5993,11.5993,11.5993,11.5993,11.5993,0.0,0.0,0.0,6.3051,6.5577,6.9637,8.1993,8.5818,8.8499,9.4752,9.6174,9.6327,9.6288,9.6288,9.6826,9.8442,9.875,9.9058,9.9904,9.9981,10.0404,10.1096,10.0595,10.0233,10.0233,9.9509,9.8712,9.786,9.783,9.783,9.783,9.7897,9.8643,10.0177,10.0275,10.065,10.1494,10.1494,10.1494,10.1494,10.1494,10.1494,10.1494,10.1494,10.1494,10.1494,10.2375,10.2705,10.2815,10.3586,10.4394,10.5201,10.6082,10.6376,10.6376,10.6376,10.6376,10.6376,10.6376,10.6376,10.6376,10.6376,10.6376,10.6376,10.6376,10.6376,10.6376,10.6376,10.6376,10.6376,10.6376,10.6376,10.6376,10.6376,10.6413,10.6413,10.6413,10.6486,10.6486,10.6413,10.7073,10.7587,10.7587,10.8285,10.8799,10.8909,11.0193,11.1295,11.1295,11.3387,11.4818,11.4818,11.5516,11.5993,11.5993,11.5993,11.5993,11.5993,11.5993,11.5993,11.5993,11.5993,11.5993,11.5993,11.5993,11.5993,11.5993,11.5993,11.5993,11.5993,11.5993,11.5993,5.2601,0.0,0.0,0.0,0.0,0.0,7.0856,7.9917,8.7977,8.911,9.3548,9.703,9.6405,9.6288,9.6442,9.6903,9.748,9.7942,9.8173,9.875,9.925,9.9481,9.9863,10.0128,10.0128,9.9937,9.9547,9.8712,9.8651,9.8651,9.8651,9.9746,10.0294,10.0193,10.0805,10.098,10.0576,10.12,10.1494,10.1494,10.1494,10.1494,10.1494,10.1494,10.1494,10.1494,10.2375,10.2999,10.3586,10.4394,10.4908,10.5201,10.6082,10.6376,10.6376,10.6376,10.6376,10.6376,10.6376,10.6376,10.6376,10.6376,10.6376,10.6376,10.6376,10.6376,10.6376,10.6376,10.6376,10.6376,10.6376,10.6376,10.6376,10.6376,10.678,10.7294,10.7294,10.7697,10.7991,10.7367,10.7881,10.8505,10.8505,10.8688,10.9202,11.0414,11.1405,11.2506,11.3681,11.4892,11.5699,11.5699,11.5883,11.5993,11.5993,11.5993,11.5993,11.5993,11.5993,11.5993,11.5993,11.5993,11.5993,11.5993,11.5993,11.5993,11.5993,11.5993,11.5993,11.5993,11.5993,11.5993,0.0,0.0,0.0,0.0,0.0,0.0,6.8579,7.6381,8.3823,8.8653,9.3328,9.627,9.5438,9.5829,9.6059,9.5402,9.6251,9.7134,9.7442,9.7942,9.8404,9.875,9.8976,9.9083,9.9083,9.9155,9.8854,9.8064,9.8605,9.9179,9.9455,10.0406,10.067,10.0215,10.0694,10.0827,10.0276,10.1108,10.1329,10.0978,10.1329,10.1274,10.098,10.131,10.1677,10.2008,10.2889,10.3868,10.4967,10.578,10.6075,10.6186,10.6666,10.6851,10.6925,10.647,10.6376,10.6376,10.6376,10.6376,10.6376,10.6376,10.6376,10.6376,10.6376,10.6376,10.6376,10.6376,10.6376,10.6376,10.6376,10.6596,10.689,10.689,10.7477,10.8101,10.8101,10.8688,10.9092,10.8285,10.8799,10.9312,10.9312,10.99,11.0597,11.1588,11.2689,11.3717,11.4708,11.5479,11.5993,11.5993,11.5993,11.5993,11.5993,11.5993,11.5993,11.5993,11.5993,11.5993,11.5993,11.5993,11.5993,11.5993,11.5993,11.5993,11.5993,11.5993,11.5993,11.5993,11.5993,11.5993,0.0,0.0,0.0,0.0,0.0,0.0,6.9728,7.3219,7.7103,8.8346,9.1989,9.2948,9.2182,9.3287,9.3831,9.2411,9.3979,9.5789,9.7057,9.725,9.7558,9.8442,9.7872,9.7468,9.7562,9.7703,9.7513,9.6826,9.8223,9.9417,10.0204,10.028,10.0215,10.0104,10.028,10.0382,10.0314,10.1092,10.1092,10.0426,10.1052,10.1108,10.056,10.106,10.2022,10.2991,10.372,10.5013,10.6616,10.7509,10.7846,10.7701,10.7701,10.7701,10.7702,10.6931,10.6636,10.647,10.647,10.646,10.6376,10.6376,10.6376,10.6376,10.6376,10.6376,10.6376,10.6376,10.6486,10.6486,10.6486,10.7073,10.7697,10.7697,10.8285,10.8909,10.8909,10.9606,10.99,10.9202,10.9606,11.0193,11.0267,11.1478,11.2506,11.2616,11.3901,11.4818,11.4892,11.5589,11.5993,11.5993,11.5993,11.5993,11.5993,11.5993,11.5993,11.5993,11.5993,11.5993,11.5993,11.5993,11.5993,11.5993,11.5993,11.5993,11.5993,11.5993,11.5993,11.5993,11.5993,11.5993,0.0,0.0,0.0,0.0,0.0,0.0,5.774,6.3891,6.9546,0.0,7.704,8.1377,8.0553,8.1178,8.171,8.1393,8.5963,9.0915,9.4943,9.5591,9.5925,9.6712,9.6172,9.602,9.6591,9.7305,9.7679,9.7609,9.9054,10.0013,10.013,10.0707,10.0492,9.9188,10.048,10.086,10.024,10.1033,10.1333,10.1195,10.0687,10.1066,10.2182,10.1129,10.2093,10.4725,10.4906,10.5903,10.7634,10.9082,10.9303,10.8596,10.8596,10.8596,10.8634,10.8472,10.7955,10.7365,10.7365,10.6894,10.6376,10.6376,10.6376,10.6376,10.6376,10.6376,10.6376,10.6376,10.689,10.7367,10.7367,10.7991,10.8578,10.8578,10.9202,10.979,10.979,11.0414,11.0891,11.0817,11.0891,11.1184,11.1808,11.2212,11.28,11.4121,11.4598,11.5002,11.5699,11.5883,11.5993,11.5993,11.5993,11.5993,11.5993,11.5993,11.5993,11.5993,11.5993,11.5993,11.5993,11.5993,11.5993,11.5993,11.5993,11.5993,11.5993,11.5993,11.5993,11.5993,11.5993,11.5993,0.0,0.0,0.0,5.3004,0.0,0.0,0.0,6.199,6.6007,6.8734,7.3188,7.63,7.5517,7.6614,7.7576,7.722,8.2889,8.7158,8.6737,9.1906,9.5862,9.6251,9.5662,9.5387,9.5799,9.6235,9.702,9.8272,9.9073,9.9702,10.0135,10.0904,10.0624,9.8926,10.0528,10.0976,10.0207,10.1031,10.1162,10.0798,10.1294,10.1484,10.1476,10.2303,10.3635,10.5233,10.6067,10.7408,10.8992,10.9862,11.0214,11.0199,10.9714,10.9503,10.9483,10.9057,10.8634,10.8193,10.8193,10.7665,10.701,10.701,10.6726,10.6376,10.6376,10.667,10.7,10.7,10.7587,10.8175,10.8175,10.8799,10.9386,10.9386,11.001,11.0597,11.0597,11.0891,11.1221,11.1221,11.1221,11.1515,11.2286,11.2689,11.3387,11.4598,11.5112,11.5516,11.5883,11.5993,11.5993,11.5993,11.5993,11.5993,11.5993,11.5993,11.5993,11.5993,11.5993,11.5993,11.5993,11.5993,11.5993,11.5993,11.5993,11.5993,11.5993,11.5993,11.5993,11.5993,11.5993,11.5993,0.0,0.0,0.0,0.0,0.0,5.4533,0.0,0.0,0.0,0.0,0.0,0.0,0.0,7.1944,7.3144,7.2235,0.0,0.0,0.0,8.5626,0.0,9.3064,9.4223,9.462,9.3678,9.3794,9.5234,9.8372,9.7952,9.814,9.9558,10.0519,10.0397,9.8923,10.0413,10.0909,10.0413,10.1073,10.1073,10.0413,10.1611,10.1712,10.0802,10.3466,10.5113,10.5803,10.7275,10.8898,11.05,11.05,11.0874,11.1401,11.0701,11.05,11.041,10.9733,10.9303,10.9219,10.9219,10.8606,10.7773,10.7702,10.7089,10.6413,10.6596,10.7073,10.7587,10.7771,10.8395,10.9019,10.9019,10.9606,11.0193,11.0193,11.0707,11.1221,11.1221,11.1221,11.1221,11.1221,11.1221,11.1515,11.2506,11.3203,11.3901,11.4892,11.5589,11.5993,11.5993,11.5993,11.5993,11.5993,11.5993,11.5993,11.5993,11.5993,11.5993,11.5993,11.5993,11.5993,11.5993,11.5993,11.5993,11.5993,11.5993,11.5993,11.5993,11.5993,11.5993,11.5993,11.5993,11.5993,0.0,0.0,0.0,0.0,5.3225,0.0,0.0,0.0,0.0,5.6282,0.0,0.0,0.0,0.0,0.0,0.0,0.0,0.0,6.8034,0.0,0.0,0.0,8.901,9.2526,8.8166,8.8457,9.1321,9.7211,9.4477,9.4094,9.7634,9.9327,9.9788,9.8865,9.9749,10.0518,10.121,10.1283,10.1283,10.117,10.068,10.11,10.2317,10.2804,10.4584,10.75,10.8386,10.9798,11.1396,11.1396,11.1396,11.1522,11.1396,11.1396,11.1275,11.1192,11.0701,11.0107,11.0107,10.9483,10.8634,10.7883,10.7089,10.6486,10.7183,10.7477,10.7697,10.8505,10.9202,10.99,10.99,11.0487,11.1111,11.1111,11.1111,11.1221,11.1221,11.1221,11.1221,11.1221,11.1221,11.1698,11.3203,11.3497,11.4084,11.5589,11.5883,11.5993,11.5993,11.5993,11.5993,11.5993,11.5993,11.5993,11.5993,11.5993,11.5993,11.5993,11.5993,11.5993,11.5993,11.5993,11.5993,11.5993,11.5993,11.5993,11.5993,11.5993,11.5993,11.5993,11.5993,11.5993,0.0,0.0,0.0,0.0,0.0,0.0,5.4049,0.0,5.3702,0.0,0.0,0.0,0.0,0.0,0.0,0.0,6.1862,0.0,0.0,0.0,0.0,0.0,0.0,0.0,8.7268,9.1178,9.4655,9.7327,9.6925,9.7069,9.8173,9.9865,10.0212,9.8827,10.0096,10.0712,10.0596,10.1096,10.1289,10.1327,10.1507,10.1933,10.2712,10.4737,10.643,10.7829,10.9604,11.0801,11.1522,11.1522,11.1522,11.1522,11.1522,11.1522,11.1522,11.1522,11.1269,11.1008,11.1008,11.041,10.9483,10.8596,10.8074,10.7946,10.8163,10.8607,10.9092,10.9386,11.0083,11.0707,11.0707,11.0891,11.1221,11.1221,11.1221,11.1221,11.1221,11.1221,11.1221,11.1221,11.1221,11.1698,11.3277,11.357,11.4084,11.5773,11.5993,11.5993,11.5993,11.5993,11.5993,11.5993,11.5993,11.5993,11.5993,11.5993,11.5993,11.5993,11.5993,11.5993,11.5993,11.5993,11.5993,11.5993,11.5993,11.5993,11.5993,11.5993,11.5993,11.5993,11.5993,11.5993,6.0108,0.0,0.0,0.0,0.0,0.0,0.0,0.0,0.0,0.0,0.0,0.0,0.0,0.0,0.0,0.0,0.0,0.0,0.0,0.0,0.0,0.0,0.0,0.0,0.0,9.0189,9.3754,9.4792,9.67,9.799,9.8404,9.9827,10.0096,9.8827,10.0212,10.0712,10.0096,10.0904,10.1289,10.1289,10.1904,10.2404,10.2712,10.5905,10.7521,10.779,11.0406,11.1522,11.1522,11.1522,11.1522,11.1522,11.1522,11.1522,11.1522,11.1522,11.1522,11.1522,11.1522,11.0884,11.0069,10.971,10.9216,10.8932,10.9305,10.9673,11.0097,11.0624,11.0932,11.1323,11.181,11.1546,11.1309,11.146,11.1447,11.1221,11.1221,11.1221,11.1221,11.1221,11.1221,11.1698,11.3277,11.3387,11.3901,11.5699,11.581,11.5773,11.5993,11.5993,11.5993,11.5993,11.5993,11.5993,11.5993,11.5993,11.5993,11.5993,11.5993,11.5993,11.5993,11.5993,11.5993,11.5993,11.5993,11.5993,11.5993,11.5993,11.5993,11.5993,11.5993,11.5993,0.0,0.0,0.0,5.7198,0.0,0.0,0.0,0.0,5.4363,0.0,0.0,0.0,0.0,0.0,0.0,0.0,0.0,0.0,0.0,0.0,0.0,0.0,0.0,0.0,0.0,8.1007,8.4167,0.0,9.0542,9.3611,9.7366,9.8404,9.8865,9.8788,9.9673,10.0096,10.0096,10.0904,10.1289,10.1289,10.1289,10.1789,10.2712,10.529,10.6905,10.779,11.0406,11.1522,11.1522,11.1522,11.1522,11.1522,11.1522,11.1522,11.1522,11.1522,11.1522,11.1522,11.1522,11.0884,11.0291,11.1092,11.0228,10.9118,11.0683,11.0606,11.0306,11.2009,11.1819,11.1594,11.3399,11.2468,11.1373,11.2269,11.1773,11.1221,11.1221,11.1221,11.1221,11.1221,11.1221,11.1698,11.3277,11.2983,11.3203,11.5589,11.5296,11.5112,11.5883,11.5993,11.5993,11.5993,11.5993,11.5993,11.5993,11.5993,11.5993,11.5993,11.5993,11.5993,11.5993,11.5993,11.5993,11.5993,11.5993,11.5993,11.5993,11.5993,11.5993,11.5993,11.5993,11.5993,7.3212,7.4973,7.5355,6.5277,0.0,0.0,0.0,0.0,0.0,0.0,0.0,0.0,0.0,0.0,0.0,0.0,0.0,0.0,0.0,0.0,0.0,0.0,0.0,0.0,0.0,0.0,0.0,0.0,0.0,0.0,9.8289,9.9173,9.9404,9.8827,10.0212,10.0404,9.925,10.0596,10.1289,10.1289,10.1289,10.2097,10.3482,10.4905,10.629,10.779,10.979,11.0598,11.0714,11.1291,11.1522,11.1522,11.1522,11.1522,11.1522,11.1522,11.1522,11.1522,11.1522,11.1698,11.1899,11.2167,11.2213,11.2256,11.2786,11.2805,11.2736,11.3286,11.3218,11.3146,11.3739,11.3037,11.2072,11.2431,11.1819,11.1221,11.1221,11.1221,11.1221,11.1221,11.1221,11.1698,11.3277,11.291,11.3203,11.5589,11.5773,11.5699,11.5993,11.5993,11.5993,11.5993,11.5993,11.5993,11.5993,11.5993,11.5993,11.5993,11.5993,11.5993,11.5993,11.5993,11.5993,11.5993,11.5993,11.5993,11.5993,11.5993,11.5993,11.5993,11.5993,11.5993,7.9015,8.1231,8.1766,7.1811,7.2267,0.0,6.216,0.0,0.0,0.0,0.0,0.0,0.0,0.0,0.0,0.0,0.0,0.0,0.0,0.0,0.0,0.0,0.0,0.0,0.0,0.0,0.0,0.0,0.0,0.0,0.0,9.9327,9.9365,9.8827,10.0404,10.0519,9.8827,10.0519,10.1289,10.1289,10.1289,10.2212,10.3905,10.4713,10.6097,10.779,10.9098,10.9713,10.979,11.0714,11.1021,11.1098,11.1406,11.1522,11.1522,11.1522,11.1522,11.1522,11.1522,11.2022,11.2791,11.3099,11.3529,11.399,11.4295,11.4117,11.3902,11.3922,11.3908,11.3968,11.4329,11.3713,11.3,11.3,11.2311,11.1631,11.1309,11.1221,11.1221,11.1221,11.1221,11.1588,11.291,11.2689,11.3203,11.5589,11.5773,11.5699,11.5993,11.5993,11.5993,11.5993,11.5993,11.5993,11.5993,11.5993,11.5993,11.5993,11.5993,11.5993,11.5993,11.5993,11.5883,11.5589,11.5883,11.5883,11.5589,11.5883,11.5993,11.5993,11.5993,11.5993]},{"header":{"parameterUnit":"m.s-1","parameterCategory":1,"la1":30.6,"la2":29.2853,"lo1":-89.7004,"lo2":-87.6739,"dx":0.0162,"dy":0.0183,"nx":112,"ny":82,"refTime":"2022-11-20T18:00:00:Z","depth":0,"parameterNumber":3,"parameterNumberName":"V-component_of_WINDS"},"data":[0.0,0.0,0.0,0.0,0.0,0.0,0.0,0.0,0.0,0.0,0.0,0.0,0.0,0.0,0.0,0.0,0.0,0.0,0.0,0.0,0.0,0.0,0.0,0.0,0.0,0.0,0.0,0.0,0.0,0.0,0.0,0.0,0.0,0.0,0.0,0.0,0.0,0.0,0.0,0.0,0.0,0.0,0.0,0.0,0.0,0.0,0.0,0.0,0.0,0.0,0.0,0.0,0.0,0.0,0.0,0.0,0.0,0.0,0.0,0.0,0.0,0.0,0.0,0.0,0.0,0.0,0.0,0.0,0.0,0.0,0.0,0.0,0.0,0.0,0.0,0.0,0.0,0.0,0.0,0.0,0.0,0.0,0.0,0.0,0.0,0.0,0.0,0.0,0.0,0.0,-3.0527,-3.1406,-3.5156,-3.7559,-3.75,-3.7441,-3.6042,-3.2879,0.0,0.0,0.0,0.0,0.0,0.0,0.0,0.0,0.0,0.0,0.0,0.0,0.0,0.0,0.0,0.0,0.0,0.0,0.0,0.0,0.0,0.0,0.0,0.0,0.0,0.0,0.0,0.0,0.0,0.0,0.0,0.0,0.0,0.0,0.0,0.0,0.0,0.0,0.0,0.0,0.0,0.0,0.0,0.0,0.0,0.0,0.0,0.0,0.0,0.0,0.0,0.0,0.0,0.0,0.0,0.0,0.0,0.0,0.0,0.0,0.0,0.0,0.0,0.0,0.0,0.0,0.0,0.0,0.0,0.0,0.0,0.0,0.0,0.0,0.0,0.0,0.0,0.0,0.0,0.0,0.0,0.0,0.0,0.0,0.0,0.0,0.0,0.0,0.0,0.0,0.0,0.0,0.0,0.0,0.0,0.0,0.0,0.0,0.0,0.0,0.0,0.0,0.0,0.0,-3.2031,-3.6797,-3.8262,-3.8769,-3.8418,-3.8047,-3.6363,-3.2944,0.0,0.0,0.0,0.0,0.0,0.0,0.0,0.0,0.0,0.0,0.0,0.0,0.0,0.0,0.0,0.0,0.0,0.0,0.0,0.0,0.0,0.0,0.0,0.0,0.0,0.0,0.0,0.0,0.0,0.0,0.0,0.0,0.0,0.0,0.0,0.0,0.0,0.0,0.0,0.0,0.0,0.0,0.0,0.0,0.0,0.0,0.0,0.0,0.0,0.0,0.0,0.0,0.0,0.0,0.0,0.0,0.0,0.0,0.0,0.0,0.0,0.0,0.0,0.0,0.0,0.0,0.0,0.0,0.0,0.0,0.0,0.0,0.0,0.0,0.0,0.0,0.0,0.0,0.0,0.0,0.0,0.0,0.0,0.0,0.0,0.0,0.0,0.0,0.0,0.0,0.0,0.0,0.0,0.0,0.0,0.0,0.0,0.0,0.0,0.0,0.0,0.0,0.0,-3.0312,-3.3066,-3.8691,-3.9473,-3.9492,-3.9316,-3.8867,-3.7245,-3.4086,-3.2771,0.0,0.0,0.0,0.0,0.0,0.0,0.0,0.0,0.0,0.0,0.0,0.0,0.0,0.0,0.0,0.0,0.0,0.0,0.0,0.0,0.0,0.0,0.0,0.0,0.0,0.0,0.0,0.0,0.0,0.0,0.0,0.0,0.0,0.0,0.0,0.0,0.0,0.0,0.0,0.0,0.0,0.0,0.0,0.0,0.0,0.0,0.0,0.0,0.0,0.0,0.0,0.0,0.0,0.0,0.0,0.0,0.0,0.0,0.0,0.0,0.0,0.0,0.0,0.0,0.0,0.0,0.0,0.0,0.0,0.0,0.0,0.0,0.0,0.0,0.0,0.0,0.0,0.0,0.0,0.0,0.0,0.0,0.0,0.0,0.0,0.0,0.0,0.0,0.0,0.0,0.0,0.0,0.0,0.0,0.0,0.0,0.0,0.0,0.0,0.0,0.0,0.0,-3.2754,-3.5293,-3.959,-4.0039,-4.0039,-4.0039,-3.9629,-3.8046,-3.5035,-3.3547,0.0,0.0,0.0,0.0,0.0,0.0,0.0,0.0,0.0,0.0,0.0,0.0,0.0,0.0,0.0,0.0,0.0,0.0,0.0,0.0,0.0,0.0,0.0,0.0,0.0,0.0,0.0,0.0,0.0,0.0,0.0,0.0,0.0,0.0,0.0,0.0,0.0,0.0,0.0,0.0,0.0,0.0,0.0,0.0,0.0,0.0,0.0,0.0,0.0,0.0,0.0,0.0,0.0,0.0,0.0,0.0,0.0,0.0,0.0,0.0,0.0,0.0,0.0,0.0,0.0,0.0,0.0,0.0,0.0,0.0,0.0,0.0,0.0,0.0,0.0,0.0,0.0,0.0,0.0,0.0,0.0,0.0,0.0,0.0,0.0,0.0,0.0,0.0,0.0,0.0,0.0,0.0,0.0,0.0,0.0,0.0,0.0,0.0,0.0,0.0,0.0,0.0,-3.6426,-4.0039,-4.043,-4.0469,-4.0469,-4.0469,-4.0098,-3.8407,-3.5057,-3.4285,0.0,0.0,0.0,0.0,0.0,0.0,0.0,0.0,0.0,0.0,0.0,0.0,0.0,0.0,0.0,0.0,0.0,0.0,0.0,0.0,0.0,0.0,0.0,0.0,0.0,0.0,0.0,0.0,0.0,0.0,0.0,0.0,0.0,0.0,0.0,0.0,0.0,0.0,0.0,0.0,0.0,0.0,0.0,0.0,0.0,0.0,0.0,0.0,0.0,0.0,0.0,0.0,0.0,0.0,0.0,0.0,0.0,0.0,0.0,0.0,0.0,0.0,0.0,0.0,0.0,0.0,0.0,0.0,0.0,0.0,0.0,0.0,0.0,0.0,0.0,0.0,0.0,0.0,0.0,0.0,0.0,0.0,0.0,0.0,0.0,0.0,0.0,0.0,0.0,0.0,0.0,0.0,0.0,0.0,0.0,0.0,0.0,0.0,0.0,0.0,0.0,0.0,-3.5547,-3.8848,0.0,-4.0937,-4.0937,-4.0937,-4.0527,-3.8848,-3.5392,0.0,0.0,0.0,0.0,0.0,0.0,0.0,0.0,0.0,0.0,0.0,0.0,0.0,0.0,0.0,0.0,0.0,0.0,0.0,0.0,0.0,0.0,0.0,0.0,0.0,0.0,0.0,0.0,0.0,0.0,0.0,0.0,0.0,0.0,0.0,0.0,0.0,0.0,0.0,0.0,0.0,0.0,0.0,0.0,0.0,0.0,0.0,0.0,0.0,0.0,0.0,0.0,0.0,0.0,0.0,0.0,0.0,0.0,0.0,0.0,0.0,0.0,0.0,0.0,0.0,0.0,0.0,0.0,0.0,0.0,0.0,0.0,0.0,0.0,0.0,0.0,0.0,0.0,0.0,0.0,0.0,0.0,0.0,0.0,0.0,0.0,0.0,0.0,0.0,0.0,0.0,0.0,0.0,0.0,0.0,0.0,0.0,0.0,0.0,0.0,0.0,0.0,-3.1914,-3.5644,-3.8887,0.0,-4.1172,-4.1172,-4.1172,-4.0898,-3.9309,-3.6005,0.0,0.0,0.0,0.0,0.0,0.0,0.0,0.0,0.0,0.0,0.0,0.0,0.0,0.0,0.0,0.0,0.0,0.0,0.0,0.0,0.0,0.0,0.0,0.0,0.0,0.0,0.0,0.0,0.0,0.0,0.0,0.0,0.0,0.0,0.0,0.0,0.0,0.0,0.0,0.0,0.0,0.0,0.0,0.0,0.0,0.0,0.0,0.0,0.0,0.0,0.0,0.0,0.0,0.0,0.0,0.0,0.0,0.0,0.0,0.0,0.0,0.0,0.0,0.0,0.0,0.0,0.0,0.0,0.0,0.0,0.0,0.0,0.0,0.0,0.0,0.0,0.0,0.0,0.0,0.0,0.0,0.0,0.0,0.0,0.0,0.0,0.0,0.0,0.0,0.0,0.0,0.0,0.0,0.0,0.0,0.0,0.0,0.0,0.0,0.0,0.0,0.0,-3.2168,-3.7441,-4.1172,-4.1172,-4.1172,-4.1172,-4.1172,-4.1172,-3.975,0.0,0.0,0.0,0.0,0.0,0.0,0.0,0.0,0.0,0.0,0.0,0.0,0.0,0.0,0.0,0.0,0.0,0.0,0.0,0.0,0.0,0.0,0.0,0.0,0.0,0.0,0.0,0.0,0.0,0.0,0.0,0.0,0.0,0.0,0.0,0.0,0.0,0.0,0.0,0.0,0.0,0.0,0.0,0.0,0.0,0.0,0.0,0.0,0.0,0.0,0.0,0.0,0.0,0.0,0.0,0.0,0.0,0.0,0.0,0.0,0.0,0.0,0.0,0.0,0.0,0.0,0.0,0.0,0.0,0.0,0.0,0.0,0.0,0.0,0.0,0.0,0.0,0.0,0.0,0.0,0.0,0.0,0.0,0.0,0.0,0.0,0.0,0.0,0.0,0.0,0.0,0.0,0.0,0.0,0.0,0.0,0.0,0.0,0.0,0.0,0.0,0.0,0.0,-3.2617,-3.7617,-4.1172,-4.1172,-4.1172,-4.1172,-4.1172,-4.1172,-3.975,-3.6501,0.0,0.0,0.0,0.0,0.0,0.0,0.0,0.0,0.0,0.0,0.0,0.0,0.0,0.0,0.0,0.0,0.0,0.0,0.0,0.0,0.0,0.0,0.0,0.0,0.0,0.0,0.0,0.0,0.0,0.0,0.0,0.0,0.0,0.0,0.0,0.0,0.0,0.0,0.0,0.0,0.0,0.0,0.0,0.0,0.0,0.0,0.0,0.0,0.0,0.0,0.0,0.0,0.0,0.0,0.0,0.0,0.0,0.0,0.0,0.0,0.0,0.0,0.0,0.0,0.0,0.0,0.0,0.0,0.0,0.0,0.0,0.0,0.0,0.0,0.0,0.0,0.0,0.0,0.0,0.0,0.0,0.0,0.0,0.0,0.0,0.0,0.0,0.0,0.0,0.0,0.0,0.0,0.0,0.0,0.0,0.0,0.0,0.0,0.0,0.0,0.0,0.0,-3.2793,-3.7695,-4.1172,-4.1172,-4.1172,-4.1172,-4.1172,-4.1172,-4.0144,-3.7615,0.0,0.0,0.0,0.0,0.0,0.0,0.0,0.0,0.0,0.0,0.0,0.0,0.0,0.0,0.0,0.0,0.0,0.0,0.0,0.0,0.0,0.0,0.0,0.0,0.0,0.0,0.0,0.0,0.0,0.0,0.0,0.0,0.0,0.0,0.0,0.0,0.0,0.0,0.0,0.0,0.0,0.0,0.0,0.0,0.0,0.0,0.0,0.0,0.0,0.0,0.0,0.0,0.0,0.0,0.0,0.0,0.0,0.0,0.0,0.0,0.0,0.0,0.0,0.0,0.0,0.0,0.0,0.0,0.0,0.0,0.0,0.0,0.0,0.0,0.0,0.0,0.0,0.0,0.0,0.0,0.0,0.0,0.0,0.0,0.0,0.0,0.0,0.0,0.0,0.0,0.0,0.0,0.0,0.0,0.0,0.0,0.0,0.0,0.0,0.0,0.0,0.0,-3.291,-3.7773,-4.125,-4.1289,-4.1289,-4.1289,-4.1289,-4.1289,-4.0742,-3.9265,0.0,0.0,0.0,0.0,0.0,0.0,0.0,0.0,0.0,0.0,0.0,0.0,0.0,0.0,0.0,0.0,0.0,0.0,0.0,0.0,0.0,0.0,0.0,0.0,0.0,0.0,0.0,0.0,0.0,0.0,0.0,0.0,0.0,0.0,0.0,0.0,0.0,0.0,0.0,0.0,0.0,0.0,0.0,0.0,0.0,0.0,0.0,0.0,0.0,0.0,0.0,0.0,0.0,0.0,0.0,0.0,0.0,0.0,0.0,0.0,-2.4485,-2.3634,0.0,0.0,0.0,0.0,0.0,0.0,0.0,0.0,0.0,0.0,0.0,0.0,0.0,0.0,0.0,0.0,0.0,0.0,0.0,0.0,0.0,0.0,0.0,0.0,0.0,0.0,0.0,0.0,0.0,0.0,0.0,0.0,0.0,0.0,0.0,0.0,0.0,0.0,0.0,0.0,-3.375,-3.8398,-4.1797,-4.2129,-4.2148,-4.2148,-4.2148,-4.2148,-4.1495,-3.9757,-3.9522,0.0,0.0,0.0,0.0,0.0,0.0,0.0,0.0,0.0,0.0,0.0,0.0,0.0,0.0,0.0,0.0,0.0,0.0,0.0,0.0,0.0,0.0,0.0,0.0,0.0,0.0,0.0,0.0,0.0,0.0,0.0,0.0,0.0,0.0,0.0,0.0,0.0,0.0,0.0,0.0,0.0,0.0,0.0,0.0,0.0,0.0,0.0,0.0,0.0,0.0,0.0,0.0,0.0,0.0,0.0,0.0,0.0,0.0,0.0,-2.3256,-2.335,0.0,0.0,0.0,0.0,0.0,0.0,0.0,0.0,0.0,0.0,0.0,0.0,0.0,0.0,0.0,0.0,0.0,0.0,0.0,0.0,0.0,0.0,0.0,0.0,0.0,0.0,0.0,0.0,0.0,0.0,0.0,0.0,0.0,0.0,0.0,0.0,0.0,0.0,0.0,0.0,-3.4043,-3.8769,-4.2187,-4.2402,-4.2422,-4.2422,-4.2422,-4.2422,-4.2152,-4.1363,-4.1,0.0,0.0,0.0,0.0,0.0,0.0,0.0,0.0,0.0,0.0,0.0,0.0,0.0,0.0,0.0,0.0,0.0,0.0,0.0,0.0,0.0,0.0,0.0,0.0,0.0,0.0,0.0,0.0,0.0,0.0,0.0,0.0,0.0,0.0,0.0,0.0,0.0,0.0,0.0,0.0,0.0,0.0,0.0,0.0,0.0,0.0,0.0,0.0,0.0,0.0,0.0,0.0,0.0,-1.9715,-1.9947,-1.9669,-2.0356,-2.2631,-2.5657,-2.2005,-2.2903,-2.6716,-2.2178,0.0,0.0,0.0,0.0,0.0,0.0,0.0,0.0,0.0,0.0,0.0,0.0,0.0,0.0,0.0,0.0,0.0,0.0,0.0,0.0,0.0,0.0,-2.6537,-2.6537,-2.6491,-2.6532,-2.6421,0.0,0.0,0.0,0.0,0.0,0.0,0.0,0.0,0.0,0.0,0.0,-3.5019,-3.9512,-4.2715,-4.2871,-4.2871,-4.2871,-4.2871,-4.2871,-4.3008,-4.3281,-4.2281,-4.157,0.0,0.0,0.0,0.0,0.0,0.0,0.0,0.0,0.0,0.0,0.0,0.0,0.0,0.0,0.0,0.0,0.0,0.0,0.0,0.0,0.0,0.0,0.0,0.0,0.0,0.0,0.0,0.0,0.0,0.0,0.0,0.0,-1.4852,-1.5192,0.0,0.0,0.0,0.0,0.0,0.0,0.0,0.0,0.0,0.0,0.0,0.0,0.0,-1.8703,-1.7023,-2.0203,-2.0735,-1.8598,-2.3672,-2.5097,-2.3305,-2.5549,-2.6822,-2.7237,-2.4912,0.0,-2.5742,-2.5988,0.0,0.0,0.0,0.0,0.0,0.0,0.0,0.0,0.0,0.0,0.0,0.0,0.0,0.0,0.0,0.0,0.0,0.0,0.0,0.0,0.0,0.0,-2.7962,-2.7962,-2.7962,-2.7892,-2.7853,-2.7114,-2.6549,-2.7078,-2.711,0.0,0.0,0.0,0.0,0.0,0.0,0.0,-3.873,-4.1699,-4.3828,-4.459,-4.4687,-4.4687,-4.4687,-4.4687,-4.4551,-4.4238,-4.4405,-4.3698,-4.1637,-4.1439,0.0,0.0,0.0,0.0,0.0,0.0,0.0,0.0,0.0,0.0,0.0,0.0,0.0,0.0,0.0,0.0,0.0,0.0,0.0,0.0,0.0,0.0,0.0,0.0,0.0,0.0,0.0,0.0,0.0,-1.564,-1.5784,-1.5877,-1.6187,-1.6586,0.0,0.0,0.0,0.0,0.0,0.0,0.0,0.0,0.0,-2.0646,-2.1983,-2.257,-2.2388,-2.4074,-2.3728,-2.1621,-2.4196,-2.4906,-2.4081,-2.5354,-2.6594,-2.7949,-2.7045,-2.6851,-2.6894,-2.4933,-2.4607,-2.5022,0.0,0.0,0.0,0.0,-2.6124,-2.5771,-2.6634,-2.7094,-2.7244,-2.6511,0.0,0.0,0.0,0.0,0.0,0.0,0.0,-2.7493,-2.7876,-2.7976,-2.8066,-2.8103,-2.827,-2.8444,-2.8617,-2.8412,-2.8043,0.0,-2.7617,-2.7471,-2.7417,0.0,0.0,0.0,0.0,-3.8262,-4.0019,-4.2715,-4.459,-4.498,-4.5019,-4.5019,-4.5019,-4.5254,-4.541,-4.5469,-4.5859,-4.5464,-4.4335,-4.3366,-4.1731,0.0,0.0,0.0,0.0,0.0,0.0,0.0,0.0,0.0,0.0,0.0,0.0,0.0,0.0,0.0,0.0,0.0,0.0,0.0,0.0,0.0,0.0,0.0,0.0,0.0,0.0,0.0,0.0,-1.6106,-1.6136,-1.6348,-1.6253,-1.6391,0.0,0.0,0.0,0.0,0.0,0.0,-1.7444,-1.9636,-2.142,-2.231,-2.4177,-2.5391,-2.5824,-2.6518,-2.6042,-2.4409,-2.5023,-2.5322,-2.5334,-2.553,-2.6601,-2.8377,-2.8377,-2.8377,-2.8074,-2.4889,-2.4817,-2.6744,-2.5896,-2.5618,-2.5981,-2.6663,-2.668,-2.6553,-2.7352,-2.7777,-2.8004,-2.7593,-2.7702,-2.79,-2.7961,0.0,0.0,0.0,0.0,-2.8339,-2.8647,-2.8783,-2.8753,-2.8893,-2.8991,-2.9232,-2.9446,-2.965,-2.957,0.0,-2.8892,-2.9218,-2.9059,0.0,0.0,0.0,0.0,-4.0605,-4.1699,-4.3887,-4.5391,-4.5508,-4.5605,-4.5683,-4.5683,-4.6074,-4.6406,-4.6621,-4.7012,-4.707,-4.6641,-4.5151,-4.3893,-4.2616,0.0,0.0,0.0,0.0,0.0,0.0,0.0,0.0,0.0,0.0,0.0,0.0,0.0,0.0,0.0,0.0,0.0,0.0,0.0,0.0,0.0,0.0,0.0,0.0,0.0,0.0,0.0,0.0,0.0,-1.5838,-1.5302,0.0,0.0,0.0,0.0,-1.5887,-1.8047,-1.9968,-2.154,-2.396,-2.5059,-2.4503,-2.4773,-2.4001,-2.2173,-2.4317,-2.5513,-2.5748,-2.7823,-2.8778,-2.8778,-2.8791,-2.8804,-2.8991,-2.8991,-2.8991,-2.8925,-2.7808,-2.66,-2.5391,-2.6581,-2.5355,-2.3433,-2.6127,-2.6256,-2.5362,-2.7136,-2.7942,-2.7969,-2.6571,-2.6224,-2.659,-2.8327,-2.8837,0.0,0.0,-2.9583,-2.9756,-3.0546,-3.0738,-3.0751,-3.0648,-3.0675,-3.0688,-3.0702,-3.0594,-3.0255,0.0,-3.2155,-3.3624,-3.3726,0.0,-3.8218,-4.0376,-4.0937,-4.2148,-4.5039,-4.5898,-4.6387,-4.6797,-4.7207,-4.7461,-4.7461,-4.7832,-4.793,-4.7539,-4.791,-4.7949,-4.7539,-4.6973,-4.5758,-4.3575,-4.3096,0.0,0.0,0.0,0.0,0.0,0.0,0.0,0.0,0.0,0.0,0.0,0.0,0.0,0.0,0.0,0.0,0.0,0.0,0.0,0.0,0.0,0.0,0.0,0.0,0.0,0.0,0.0,0.0,-1.5849,-1.536,0.0,-1.5932,-1.6997,-1.7625,-1.7615,-1.9478,-2.0895,-2.1705,-2.3937,-2.5288,-2.5335,-2.6686,-2.7147,-2.6533,-2.7247,-2.7836,-2.7938,-2.8548,-2.9045,-2.9045,-2.9045,-2.9045,-2.9045,-2.9045,-2.9045,-2.9018,-2.8698,-2.819,-2.7629,-2.8098,-2.7771,-2.6894,-2.7907,-2.7946,-2.7776,-2.8778,-2.9192,-2.9259,-2.9112,-2.9109,-2.922,-2.9863,-3.0032,-3.0083,-3.034,-3.0383,-3.0383,-3.0778,-3.0795,-3.0835,-3.1022,-3.1223,-3.141,-3.1597,-3.1651,-3.1861,-3.1853,-3.1817,-3.2263,-3.3788,-3.6342,-3.9102,-4.1529,-4.3633,-4.5371,-4.6719,-4.7031,-4.7187,-4.7324,-4.7734,-4.7988,-4.7988,-4.8652,-4.9004,-4.8848,-4.9238,-4.9277,-4.8848,-4.8398,-4.762,-4.661,-4.6154,-4.356,0.0,0.0,0.0,0.0,0.0,0.0,0.0,0.0,0.0,0.0,0.0,0.0,0.0,0.0,0.0,0.0,0.0,0.0,0.0,0.0,0.0,0.0,0.0,0.0,0.0,0.0,-1.5192,-1.591,-1.522,-1.5034,-1.5861,-1.7399,-1.8411,-1.8476,-2.1119,-2.2738,-2.3074,-2.5196,-2.6524,-2.6709,-2.8147,-2.9085,-2.9192,-2.9192,-2.9285,-2.9486,-2.9486,-2.9539,-2.9633,-2.9633,-2.9633,-2.9633,-2.9633,-2.9633,-2.9633,-2.9633,-2.9633,-2.9593,-2.9192,-2.9045,-2.9045,-2.9152,-2.9192,-2.9272,-2.986,-3.0127,-3.0274,-3.0662,-3.0929,-3.1089,-3.1089,-3.1223,-3.1383,-3.1383,-3.1383,-3.1383,-3.1383,-3.1383,-3.145,-3.1744,-3.1971,-3.2198,-3.2492,-3.2706,-3.2839,-3.2839,-3.3257,-3.4266,-3.5783,-3.9106,-4.1918,-4.2693,-4.543,-4.709,-4.6367,-4.7422,-4.8183,-4.8027,-4.8535,-4.8867,-4.8867,-4.8613,-4.8808,-4.9687,-4.9199,-4.9141,-4.9726,-4.8476,-4.7578,-4.7148,-4.6562,-4.4101,-3.9648,0.0,0.0,0.0,0.0,0.0,0.0,0.0,0.0,0.0,0.0,0.0,0.0,0.0,0.0,0.0,0.0,0.0,0.0,0.0,0.0,0.0,0.0,0.0,-1.5615,-1.5176,-1.5308,-1.6204,-1.5116,-1.4771,-1.5806,-1.7346,-1.8475,-1.8664,-2.2956,-2.5642,-2.5642,-2.7622,-2.8884,-2.8897,-2.9072,-2.9219,-2.9526,-2.9526,-2.9806,-3.0381,-3.0381,-3.0528,-3.0795,-3.0795,-3.0795,-3.0795,-3.0795,-3.0795,-3.0795,-3.0795,-3.0795,-3.0688,-2.9539,-2.9098,-2.9138,-2.9432,-2.9553,-2.9646,-3.0221,-3.0608,-3.0849,-3.0849,-3.1236,-3.169,-3.169,-3.2091,-3.2545,-3.2545,-3.2545,-3.2545,-3.2545,-3.2545,-3.2612,-3.2906,-3.2986,-3.308,-3.3387,-3.3454,-3.344,-3.3641,-3.7176,-4.0132,-4.0099,-4.4233,-4.66,-4.4258,-4.6387,0.0,-4.4277,-4.7207,-4.9336,-4.8808,-4.9531,-5.0058,-5.0058,-4.7754,-4.7441,-5.0058,-4.7851,-4.7598,-5.0117,-4.7402,-4.5625,-4.5195,-4.4238,-4.3535,-4.3268,0.0,0.0,0.0,0.0,0.0,0.0,0.0,0.0,0.0,0.0,0.0,0.0,0.0,0.0,0.0,0.0,0.0,0.0,0.0,0.0,0.0,-1.9282,-1.8835,-1.5744,-1.4758,-1.4515,-1.4961,-1.4696,-1.5312,-1.7521,-1.9683,-2.164,-2.3488,-2.4749,-2.5548,-2.5736,-2.6282,-2.6819,-2.739,-2.9067,-3.014,-3.0434,-3.0434,-3.0515,-3.0675,-3.0675,-3.0715,-3.0795,-3.0795,-3.0795,-3.0795,-3.0795,-3.0795,-3.0795,-3.0795,-3.0915,-3.1049,-3.0515,-3.0434,-3.0635,-3.0715,-3.1022,-3.141,-3.157,-3.1824,-3.2064,-3.2064,-3.2171,-3.2305,-3.2305,-3.2412,-3.2545,-3.2545,-3.2545,-3.2545,-3.2545,-3.2545,-3.2612,-3.2906,-3.3146,-3.3374,-3.3694,-3.3921,-3.4667,-3.6637,-3.9423,-4.1469,-4.0941,-4.2223,-4.45,-4.7462,-4.8906,0.0,-4.8516,-4.9336,-4.9121,-4.6797,-4.7051,-4.7363,-4.7363,-4.6992,-4.7988,-5.0898,-5.041,-5.0351,-5.1055,-5.0,-4.9199,-4.8769,-4.6055,-4.4916,0.0,0.0,0.0,0.0,0.0,0.0,0.0,0.0,0.0,0.0,0.0,0.0,0.0,0.0,0.0,0.0,0.0,0.0,0.0,0.0,0.0,0.0,-2.1011,-2.0434,-1.6892,-1.6894,-1.7337,-1.7591,-1.7624,-1.7869,-1.8414,-2.0592,-2.2281,-2.2837,-2.3763,-2.4958,-2.613,-2.6323,-2.683,-2.8457,-2.9795,-3.0621,-3.0795,-3.0795,-3.0849,-3.0969,-3.0969,-3.1036,-3.1169,-3.1289,-3.1343,-3.1343,-3.1476,-3.153,-3.153,-3.153,-3.1623,-3.173,0.0,0.0,0.0,0.0,-3.1891,-3.2291,-3.2291,-3.2398,-3.2545,-3.2545,-3.2625,-3.2732,-3.2732,-3.2812,-3.2906,-3.2906,-3.2906,-3.2906,-3.2906,-3.2906,-3.3013,-3.344,-3.3574,-3.3761,-3.4322,-3.4469,-3.4936,-3.6668,-3.8294,0.0,-4.0363,-4.3173,-4.5907,-4.7955,-4.9473,-4.998,-4.8711,-4.9824,-4.9961,-4.8027,-4.8203,-4.8457,-4.8457,-4.7519,0.0,0.0,0.0,-4.9551,-4.9551,-4.9316,0.0,0.0,0.0,-4.6304,-4.7969,-4.5904,0.0,0.0,-4.2607,-4.2621,0.0,0.0,0.0,0.0,0.0,0.0,0.0,0.0,0.0,0.0,0.0,0.0,0.0,0.0,0.0,0.0,-2.2455,-2.1577,-1.9701,-2.1114,-2.1998,-2.1334,-2.1383,-2.0582,-1.8826,-2.0655,-2.1365,-2.0091,-2.1798,-2.4122,-2.6783,-2.6981,0.0,0.0,0.0,-3.0862,-3.0889,-3.0889,-3.1022,-3.1276,-3.1276,-3.141,-3.1677,-3.1971,-3.2104,-3.2118,-3.2412,-3.2545,-3.2545,-3.2545,-3.2559,-3.2519,-3.173,-3.1583,-3.1851,-3.2144,-3.2412,-3.2639,-3.2639,0.0,0.0,-3.2639,-3.2812,-3.3026,-3.3026,-3.32,-3.3414,-3.3414,-3.3414,-3.3414,-3.3414,-3.3414,-3.3547,-3.4082,-3.4068,-3.4148,-3.4937,-3.495,-3.5092,-3.5558,-3.5599,-3.6621,-3.927,-4.5195,-4.8761,-4.6671,-4.8955,-4.9902,-4.7226,-4.9551,-5.1152,-5.0449,-5.0703,0.0,-5.0918,-4.8476,-4.8223,-5.125,-4.8926,-4.7441,-4.7441,-4.7441,-4.7441,-4.7441,-4.7031,-4.793,-5.0176,-5.0176,-4.998,-4.9453,-4.4482,-4.382,0.0,0.0,0.0,0.0,0.0,0.0,0.0,0.0,0.0,0.0,0.0,0.0,0.0,0.0,0.0,-2.5857,-2.7019,-2.7877,-2.7608,-2.7776,-2.5121,-1.7277,-1.6375,-1.7042,-1.8827,-1.9414,-2.1367,-2.5186,-2.3895,-2.4292,-2.6993,-2.6993,-2.7473,-2.8065,-2.9994,-3.1263,-3.1503,-3.1503,-3.153,-3.1583,-3.1583,0.0,-3.1677,-3.1971,-3.2104,-3.2118,-3.2412,-3.2545,-3.2545,-3.2545,-3.2679,-3.2879,-3.2706,-3.2679,-3.2759,-3.3053,-3.32,-3.324,-3.324,-3.324,-3.324,-3.324,-3.328,-3.3334,-3.3334,-3.3374,0.0,-3.3414,-3.3414,-3.3414,-3.3414,-3.3414,-3.344,-3.3561,-3.3921,-3.4282,-3.4456,-3.4817,-3.5741,-3.804,-3.8456,-3.927,-4.2099,-4.3607,-4.5188,-4.6925,-4.9527,-5.1094,-5.0508,-5.1016,-5.0469,-4.7949,-4.7754,-4.7793,-4.7793,-4.7266,-4.8223,-5.125,-5.0879,-5.0566,-5.0566,-5.0566,-5.0566,-5.0566,-5.0156,-5.0019,-5.0176,-5.0176,-5.0137,-5.0019,-4.8483,-4.8232,0.0,0.0,0.0,0.0,0.0,0.0,0.0,0.0,0.0,0.0,0.0,-2.4436,0.0,0.0,-2.7509,-2.8243,-2.9245,-2.9647,-2.8635,-2.849,-2.6523,-2.1296,-2.0714,-2.0277,-1.9268,-2.0422,-2.182,-2.3164,-2.3375,-2.4567,-2.7381,-2.7392,-2.802,-2.9507,-3.087,-3.1517,-3.1664,-3.1664,-3.1664,-3.1664,-3.1664,-3.1664,-3.1677,-3.2118,-3.2318,-3.2345,-3.2786,-3.2973,-3.2973,-3.2973,-3.3066,-3.32,-3.32,-3.32,-3.3213,-3.336,-3.3414,-3.3414,-3.3414,-3.3414,-3.3414,-3.3414,-3.3414,-3.3414,-3.3414,-3.3414,-3.3414,-3.3414,-3.3414,-3.3414,-3.3414,-3.3414,-3.3494,-3.3788,-3.3988,-3.4269,-3.4843,-3.5097,-3.5693,-3.7434,-3.7702,-3.811,-3.9554,-4.2008,-4.4819,-4.729,-4.9912,-5.1836,-5.2051,-5.207,-5.1484,-4.998,-4.9824,-4.9824,-4.9824,-4.9824,-5.0469,-5.1973,-5.207,-5.207,-5.207,-5.207,-5.207,-5.207,-5.166,-5.123,-5.0801,-5.0801,-5.0703,-5.0488,-5.0488,-5.0488,0.0,0.0,0.0,0.0,0.0,0.0,0.0,0.0,-2.2806,-2.4596,-2.5424,-2.6186,-2.7375,-2.803,-2.8778,-2.998,-3.0421,-2.9938,-2.8258,-2.829,-2.8089,-2.6946,-2.6294,-2.448,-2.0726,-2.226,-2.2921,-2.1606,-2.3505,-2.5687,-2.8428,-2.8584,-2.9529,-3.1664,-3.1664,-3.1664,-3.1664,-3.1664,-3.1664,-3.1664,-3.1664,-3.1664,-3.169,-3.2211,-3.2492,-3.2572,-3.316,-3.3414,-3.3414,-3.3414,-3.3414,-3.3414,-3.3414,-3.3414,-3.3414,-3.3414,-3.3414,-3.3414,-3.3414,-3.3414,-3.3414,-3.3414,-3.3414,-3.3414,-3.3414,-3.3414,-3.3414,-3.3414,-3.3454,-3.3507,-3.3507,-3.3547,-3.3721,-3.4269,-3.4269,-3.4416,-3.5418,-3.5485,-3.5511,-3.5979,-3.6072,-3.6072,-3.6072,-4.065,-4.5119,-4.7094,-5.0128,-5.2324,-5.2656,-5.2715,-5.2715,-5.2715,-5.2715,-5.2715,-5.2715,-5.2715,-5.2715,-5.2715,-5.2715,-5.2715,-5.2715,-5.2715,-5.2715,-5.2715,-5.2383,-5.1992,-5.1562,-5.1641,-5.1465,-5.1074,-5.1484,-5.1582,-1.8437,-1.9586,-2.1537,-2.2739,-2.3233,-2.4195,0.0,0.0,-2.7081,-2.8858,-2.97,-3.0154,-3.0314,-3.0608,-3.0889,-3.1049,-3.133,-3.153,-3.1178,-3.1204,-3.0522,-2.8355,-2.6023,-2.4442,-2.3886,-2.4102,-2.5373,-2.7604,-2.7605,-2.8874,-3.1461,-3.1416,-3.1474,-3.1664,-3.1664,-3.1664,-3.1664,-3.1664,-3.1664,-3.1664,-3.1664,-3.1664,-3.1677,-3.2011,-3.2291,-3.2572,-3.316,-3.3414,-3.3414,-3.3414,-3.3414,-3.3414,-3.3414,-3.3414,-3.3414,-3.3414,-3.3414,-3.3414,-3.3414,-3.3414,-3.3414,-3.3414,-3.3414,-3.3414,-3.3414,-3.3414,-3.3414,-3.3414,-3.3614,-3.3828,-3.3828,-3.4028,-3.4309,-3.4629,-3.4883,-3.5151,-3.5551,-3.5805,-3.5992,-3.6059,-3.6072,-3.6072,-3.6072,-4.065,-4.4582,-4.4756,-4.9313,-5.2656,-5.2695,-5.2715,-5.2715,-5.2715,-5.2715,-5.2715,-5.2715,-5.2715,-5.2715,-5.2715,-5.2715,-5.2715,-5.2715,-5.2715,-5.2715,-5.2715,-5.2656,-5.2422,-5.2012,-5.2383,-5.2344,-5.1953,-5.2363,-5.2148,-2.2485,-2.2659,-2.31,-2.4903,-2.5585,-2.6199,-2.7736,-2.7923,-2.8283,-3.006,-3.0755,-3.1049,-3.1049,-3.1423,-3.173,0.0,-3.1984,-3.2238,-3.2412,-3.2438,-3.2142,-3.1419,-3.033,-2.8381,-2.5012,-2.6002,-2.743,-2.8543,-3.0032,-3.0493,-2.9941,-3.1203,-3.1251,-2.9529,-3.089,-3.1664,-3.1664,-3.1664,-3.1664,-3.1664,-3.1664,-3.1664,-3.169,-3.2144,-3.2612,-3.3066,-3.3307,-3.3414,-3.3414,-3.3414,-3.3414,-3.3427,-3.3614,-3.3694,-3.3668,-3.348,-3.3414,-3.3414,-3.3414,-3.3414,-3.344,-3.3627,-3.3694,-3.3721,-3.3895,-3.3935,-3.3935,-3.3935,-3.4042,-3.4135,-3.4135,-3.4229,-3.4389,-3.4696,-3.4977,-3.5324,-3.5792,-3.6112,-3.638,-3.654,-3.658,-3.658,-3.658,-3.9963,-4.2492,-4.2492,-4.8613,-5.3183,-5.3437,-5.198,-5.0288,-4.8603,-5.1572,-5.283,-5.1126,-5.2405,-5.3476,-5.3476,-5.3476,-5.3476,-5.3476,-5.3476,-5.3476,-5.3476,-5.3223,-5.3008,-5.2832,-5.2754,-5.2617,-5.2461,-5.2637,-5.2519,-2.4516,-2.469,-2.473,-2.6694,-2.7722,-2.8297,-2.8497,-2.8778,-2.9352,-3.0648,-3.1142,-3.137,-3.145,-3.181,-3.2131,-3.2211,-3.2478,-3.2732,-3.2946,-3.3053,-3.2974,-3.2358,-3.2183,-3.0387,-2.5354,-2.7348,-2.8556,-2.7758,-2.9489,-2.9566,-2.7384,-2.9615,-3.0072,-2.7991,-3.0383,-3.1704,-3.1784,-3.1704,-3.1664,-3.1664,-3.1664,-3.1664,-3.169,-3.2278,-3.2906,-3.3547,-3.3547,-3.3587,-3.3668,-3.3668,-3.3668,-3.3681,-3.3921,-3.4002,-3.3975,-3.3748,-3.3668,-3.3668,-3.3668,-3.3668,-3.3694,-3.3935,-3.4002,-3.4042,-3.4255,-3.4322,-3.4322,-3.4322,-3.4376,-3.4442,-3.4442,-3.4509,-3.4656,-3.503,-3.5284,-3.5591,-3.6179,-3.6473,-3.6687,-3.6901,-3.6941,-3.6941,-3.6941,-3.9294,-4.1213,-4.1213,-4.6936,-5.1313,-5.1631,-4.9728,-4.8018,-4.6737,-5.037,-5.2306,-5.1011,-5.2737,-5.4023,-5.4023,-5.4023,-5.4023,-5.4023,-5.4023,-5.4023,-5.4023,-5.3711,-5.3555,-5.3535,-5.3223,-5.3066,-5.3066,-5.3066,-5.3066,-2.2325,-2.4182,-2.5879,-2.7655,-2.9406,-3.0688,-3.0702,-3.0915,-3.1142,-3.1196,-3.145,-3.1744,-3.2024,-3.2091,-3.2198,-3.2492,-3.2772,-3.2973,-3.2973,-3.3213,-3.2371,-2.9724,-2.9319,-2.8291,0.0,-2.7658,-2.8269,-2.5604,-2.5185,-2.5053,-2.4841,-2.7024,-2.825,-2.8299,-3.0574,-3.1797,-3.2091,-3.181,-3.1664,-3.1664,-3.1664,-3.1664,-3.169,-3.2278,-3.3026,-3.3868,-3.3868,-3.4028,-3.4295,-3.4295,-3.4295,-3.4295,-3.4295,-3.4309,-3.4309,-3.4295,-3.4295,-3.4295,-3.4295,-3.4295,-3.4295,-3.4295,-3.4309,-3.4309,-3.4322,-3.4322,-3.4322,-3.4322,-3.4523,-3.475,-3.475,-3.4963,-3.5311,-3.5899,-3.6046,-3.6206,-3.6794,-3.6901,-3.6941,-3.6941,-3.6941,-3.6941,-3.6941,-3.9294,-4.1213,-4.1213,-4.3756,-4.5677,-4.5677,-4.5694,-4.6737,-4.9293,-4.971,-5.1011,-5.3595,-5.4023,-5.4023,-5.4023,-5.4023,-5.4023,-5.4023,-5.4023,-5.4023,-5.4023,-5.4023,-5.4004,-5.4004,-5.4004,-5.3984,-5.3984,-5.3984,-5.3984,-2.4363,-2.5905,-2.7682,-2.9459,-3.0488,-3.1076,-3.1076,-3.1303,-3.1517,-3.1517,-3.0822,-3.0247,-3.0341,-3.0688,-3.0982,-3.1076,-3.2318,-3.3267,-3.3267,-3.3347,-3.2384,-2.9724,-2.9319,0.0,0.0,0.0,0.0,-2.7884,-2.7806,-2.7683,-2.7716,-2.9958,-3.034,-2.8285,-3.0677,-3.1904,-3.1824,-3.1904,-3.1957,-3.1957,-3.2158,-3.2345,-3.2559,-3.2946,-3.34,-3.3895,-3.4095,-3.4229,-3.4322,-3.4322,-3.4322,-3.4336,-3.4536,-3.4616,-3.4643,-3.483,-3.4897,-3.4843,-3.4456,-3.4322,-3.4349,-3.4549,-3.4616,-3.4656,-3.4843,-3.4897,-3.4897,-3.4897,-3.4977,-3.5057,-3.5057,-3.5124,-3.5297,-3.5685,-3.5925,-3.6179,-3.658,-3.6794,-3.6941,-3.6941,-3.6941,-3.6941,-3.6941,-3.7784,-3.8431,-3.8431,-4.2497,-4.4825,-4.2912,-4.4414,-4.4414,-4.1415,-4.6313,-4.9311,-4.8456,-5.1875,-5.416,-5.4433,-5.4453,-5.459,-5.4863,-5.4883,-5.4883,-5.4883,-5.4609,-5.4453,-5.4453,-5.418,-5.4023,-5.4023,-5.4023,-5.4023,-2.6689,-2.7843,-2.9045,-3.0822,-3.1316,-3.1383,-3.1383,-3.153,-3.1704,-3.1797,-3.0581,-2.9553,-2.9753,-3.01,-3.0181,-2.9659,-3.1196,-3.2478,-3.2478,-3.2478,-3.1711,-2.9462,-2.8495,-2.6035,0.0,0.0,0.0,-2.624,-2.7261,-2.7817,-2.7649,-3.0289,-3.0777,-2.8918,-3.1227,-3.2478,-3.2305,-3.2478,-3.2519,-3.2412,-3.2505,-3.2746,-3.3146,-3.332,-3.3694,-3.4215,-3.4402,-3.4536,-3.4629,-3.4629,-3.4629,-3.4656,-3.4843,-3.4923,-3.4937,-3.5124,-3.5191,-3.5137,-3.4763,-3.4629,-3.467,-3.4857,-3.4923,-3.495,-3.5137,-3.5191,-3.5191,-3.5191,-3.5191,-3.5191,-3.5191,-3.5191,-3.5297,-3.5698,-3.5939,-3.6179,-3.658,-3.6901,-3.7088,-3.7088,-3.7195,-3.7261,-3.7261,-3.7261,-3.7261,-3.7261,-4.0269,-4.1904,-3.9965,-4.1318,-4.1595,-3.8818,-4.4721,-4.8225,-4.7374,-5.1682,-5.4609,-5.4883,-5.4902,-5.5019,-5.5293,-5.5312,-5.5312,-5.5312,-5.5039,-5.4902,-5.4902,-5.4629,-5.4492,-5.4492,-5.4492,-5.4492,-2.8831,-2.9753,-3.002,-3.169,-3.1891,-3.169,-3.1677,-3.1664,-3.173,-3.1931,-3.0581,-2.9513,0.0,0.0,-2.978,-2.8377,-2.9713,-3.0929,-3.0929,-3.0929,-3.0583,0.0,0.0,0.0,0.0,0.0,0.0,-2.1535,-2.4,-2.544,-2.5645,-2.8122,-2.9675,-2.9912,-3.2136,-3.344,-3.344,-3.344,-3.3307,-3.304,-3.2772,-3.2919,-3.344,-3.3467,-3.3935,-3.4736,-3.4776,-3.4937,-3.5191,-3.5191,-3.5191,-3.5191,-3.5191,-3.5191,-3.5191,-3.5191,-3.5191,-3.5191,-3.5191,-3.5191,-3.5191,-3.5191,-3.5191,-3.5191,-3.5191,-3.5191,-3.5191,-3.5191,-3.5204,-3.5217,-3.5217,-3.5231,-3.5391,-3.5965,-3.6099,-3.6273,-3.6834,-3.7195,-3.7422,-3.7422,-3.7635,-3.7809,-3.7809,-3.7809,-3.7782,-3.7782,-3.7782,-3.7595,-3.7048,-3.7235,-3.85,-4.1311,-4.4646,-4.7674,-5.0277,-5.3556,-5.5312,-5.5332,-5.5332,-5.5351,-5.5371,-5.5371,-5.5371,-5.5371,-5.5332,-5.5312,-5.5312,-5.5293,-5.5273,-5.5273,-5.5293,-5.5312,-2.9582,-3.0488,-3.1543,-3.1984,-3.2051,-3.1931,-3.1717,-3.1664,-3.1383,-3.0368,-2.8911,-2.7535,-2.66,-2.7682,0.0,-2.8203,-3.0728,0.0,-3.2746,-3.2746,0.0,-2.9474,0.0,-2.7261,-2.4392,-2.6191,0.0,0.0,-2.8152,-2.9612,-3.1476,-3.2507,-3.298,-3.2838,-3.3396,-3.3654,-3.3427,-3.3654,-3.3841,-3.3975,-3.3908,-3.3828,-3.3788,-3.4215,-3.4429,-3.4456,-3.4897,-3.5124,-3.5191,-3.5191,-3.5191,-3.5191,-3.5191,-3.5191,-3.5191,-3.5191,-3.5191,-3.5191,-3.5191,-3.5191,-3.5191,-3.5191,-3.5191,-3.5191,-3.5191,-3.5191,-3.5191,-3.5191,-3.5351,-3.5511,-3.5511,-3.5685,-3.5939,-3.6313,-3.658,-3.6834,-3.7195,-3.7489,-3.7702,-3.7702,-3.7782,-3.7809,-3.7809,-3.7635,-3.7489,-3.7489,-3.7489,-3.7529,-3.7595,-3.7662,-3.7928,-3.8789,-4.3483,-4.6805,-4.7674,-5.2462,-5.5449,-5.5762,-5.5781,-5.5918,-5.625,-5.6269,-5.6269,-5.6269,-5.5625,-5.5312,-5.5312,-5.5,-5.4844,-5.4844,-5.5156,-5.5312,-3.0894,-3.145,-3.2104,-3.2104,-3.2011,-3.1664,-3.0728,-3.0515,-3.01,-2.8617,-2.7041,-2.5745,-2.5184,-2.6653,-2.7736,0.0,0.0,0.0,-3.2265,-3.2265,-3.1946,0.0,-2.9939,0.0,-2.7414,-2.8792,-2.9753,0.0,-3.1133,-3.2391,-3.4068,-3.4362,-3.4442,-3.4282,-3.4402,-3.4376,-3.4202,-3.4122,-3.4229,-3.4509,-3.4389,-3.4229,-3.4095,-3.4549,-3.467,-3.4536,-3.499,-3.5191,-3.5191,-3.5191,-3.5191,-3.5191,-3.5191,-3.5191,-3.5191,-3.5191,-3.5271,-3.5391,-3.5391,-3.5471,-3.5538,-3.5284,-3.5284,-3.5391,-3.5391,-3.5471,-3.5578,-3.5578,-3.5698,-3.5819,-3.5819,-3.5952,-3.6139,-3.6433,-3.6727,-3.7008,-3.7315,-3.7716,-3.8036,-3.8183,-3.821,-3.8183,-3.8036,-3.7889,-3.7782,-3.7782,-3.7782,-3.7823,-3.7996,-3.7996,-3.7996,-3.7996,-4.3423,-4.7049,-4.7049,-5.2553,-5.5879,-5.5937,-5.6113,-5.625,-5.6289,-5.6484,-5.6582,-5.6582,-5.6113,-5.5879,-5.5859,-5.5625,-5.5508,-5.5527,-5.5762,-5.5879,-3.1984,-3.2291,-3.2104,-3.2104,-3.1917,-3.1249,-2.9446,-2.9045,-2.8551,-2.6827,-2.5264,-2.4302,-2.4609,-2.6132,-2.7014,-2.5972,0.0,-3.0875,-3.1102,-3.1142,-3.1704,-3.3227,-3.1365,-3.0035,-3.031,-3.037,-3.049,-3.0754,-3.3136,-3.4416,-3.4376,-3.4656,-3.4817,-3.4817,-3.507,-3.5191,-3.5191,-3.4696,-3.4563,-3.4817,-3.4563,-3.4416,-3.4389,-3.4683,-3.4803,-3.4776,-3.507,-3.5191,-3.5204,-3.5244,-3.5257,-3.5257,-3.5297,-3.5311,-3.5311,-3.5311,-3.5471,-3.5685,-3.5685,-3.5859,-3.5992,-3.5471,-3.5485,-3.5685,-3.5685,-3.5872,-3.6072,-3.6072,-3.6099,-3.6126,-3.6126,-3.6166,-3.6246,-3.65,-3.6794,-3.7088,-3.7382,-3.7889,-3.8397,-3.8691,-3.8691,-3.8584,-3.829,-3.8183,-3.8143,-3.8143,-3.8143,-3.8143,-3.8183,-3.8263,-3.829,-3.8263,-4.3896,-4.7643,-4.7643,-5.3216,-5.6426,-5.6055,-5.6367,-5.6387,-5.5957,-5.6289,-5.6504,-5.6504,-5.6445,-5.6445,-5.6504,-5.6504,-5.6504,-5.6504,-5.6562,-5.6582,-3.2011,-3.2144,-3.2104,-3.2104,-3.2064,-3.1503,-2.9499,-2.9045,-2.8203,-2.5264,-2.4409,-2.3861,-2.2726,-2.4168,-2.5932,-2.7121,-2.9272,-3.1303,-3.2759,-3.2959,-3.3066,0.0,-3.3,0.0,0.0,-3.3468,0.0,0.0,-3.4687,-3.4937,-3.4696,-3.4963,-3.5124,-3.5124,-3.5177,-3.5191,-3.5191,-3.5097,-3.507,-3.5124,-3.507,-3.4923,-3.4696,-3.499,-3.499,-3.4776,-3.507,0.0,-3.5217,-3.5458,-3.5551,-3.5578,-3.5819,-3.5925,-3.5925,-3.5925,-3.5952,-3.5992,-3.5992,-3.6032,-3.6059,-3.5952,-3.5952,-3.5992,-3.5992,-3.6032,-3.6072,-3.6072,-3.6246,-3.6433,-3.6433,-3.662,-3.6794,-3.6861,-3.7088,-3.7382,-3.7676,-3.821,-3.8651,-3.8718,-3.8504,-3.833,-3.8263,-3.7863,-3.7529,-3.7529,-3.7529,-3.7635,-3.7849,-3.833,-3.8544,-3.829,-4.3896,-4.766,-4.7643,-5.3216,-5.6562,-5.6484,-5.6543,-5.6387,-5.5957,-5.6015,-5.6055,-5.6055,-5.5703,-5.5703,-5.6055,-5.6055,-5.6055,-5.6055,-5.6426,-5.6582,-3.1797,-3.1877,-3.1877,-3.1877,-3.1877,-3.1142,-2.831,-2.7655,-2.6694,-2.33,-2.2592,-2.2418,-2.1857,-2.3447,-2.517,-2.6172,-2.8845,-3.1089,-3.1931,-3.2839,-3.3414,-3.3414,-3.3414,-3.3601,0.0,-3.4242,-3.4509,-3.495,-3.5124,-3.5137,-3.5004,-3.5124,-3.5191,-3.5191,-3.5191,-3.5191,-3.5191,-3.5191,-3.5191,-3.5191,-3.5191,-3.5124,-3.499,-3.5137,-3.5204,-3.5217,-3.5364,-3.5511,-3.5658,-3.5805,-3.5859,-3.5872,-3.6019,-3.6072,-3.6072,-3.6072,-3.6166,-3.6299,-3.6299,-3.6393,-3.6513,-3.6513,-3.6433,-3.6299,-3.6299,-3.6393,-3.6513,-3.6513,-3.662,-3.6727,-3.6727,-3.6834,-3.6941,-3.6941,-3.7275,-3.7676,-3.7996,-3.829,-3.8477,-3.8477,-3.8223,-3.7969,-3.7823,-3.7569,-3.7382,-3.7382,-3.7382,-3.7489,-3.7782,-3.821,-3.8477,-3.8504,-4.2657,-4.5435,-4.5209,-4.9265,-5.2254,-5.3802,-5.4036,-5.4603,-5.5937,-5.6152,-5.6269,-5.6269,-5.6074,-5.6074,-5.6269,-5.6269,-5.6269,-5.6269,-5.6484,-5.6582,-3.149,-3.1664,-3.1664,-3.1664,-3.1664,-3.0742,-2.7201,-2.6386,-2.5384,-2.1844,-2.1109,-2.1176,-2.1416,-2.2832,-2.4195,-2.4877,-2.7562,-2.986,-3.0675,-3.1984,-3.2986,0.0,-3.3467,0.0,-3.4269,-3.4376,0.0,-3.428,-3.4319,-3.4544,-3.5191,-3.5191,-3.5191,-3.5191,-3.5191,-3.5191,-3.5191,-3.5191,-3.5191,-3.5191,-3.5257,-3.5284,-3.5284,-3.5351,-3.5511,-3.5725,-3.5725,-3.5859,-3.6072,-3.6139,-3.6166,-3.6166,-3.6233,-3.6259,-3.6259,-3.6259,-3.6393,-3.6607,-3.6607,-3.6754,-3.6941,-3.6941,-3.6794,-3.6607,-3.6607,-3.6754,-3.6941,-3.6941,-3.6941,-3.6941,-3.6941,-3.6941,-3.6941,-3.6941,-3.7342,-3.7782,-3.801,-3.8116,-3.8143,-3.8143,-3.7929,-3.7635,-3.7422,-3.7342,-3.7275,-3.7275,-3.7342,-3.7462,-3.7702,-3.8036,-3.837,-3.8584,-4.136,-4.3156,-4.3112,-4.5519,-4.8417,-5.119,-5.1693,-5.3019,-5.559,-5.6211,-5.6445,-5.6445,-5.6445,-5.6484,-5.6582,-5.6582,-5.6582,-5.6582,-5.6582,-5.6582,-3.1156,-3.1664,-3.1664,-3.1664,-3.1664,-3.0742,-2.7201,-2.6386,-2.5384,-2.1844,-2.1109,-2.1122,-2.1149,-2.1523,-2.2458,-2.4369,-2.5197,-2.6814,-3.0301,-3.0929,-3.1623,-3.3227,0.0,0.0,-3.4282,-3.4563,-3.3771,-3.1473,-3.1272,-3.2361,-3.498,-3.5191,-3.5191,-3.5191,-3.5191,-3.5191,-3.5191,-3.5191,-3.5191,-3.5204,-3.5458,-3.5591,-3.5591,-3.5872,-3.6006,-3.6032,-3.6032,-3.6046,0.0,-3.6353,-3.6473,-3.65,-3.6754,-3.6861,-3.6861,-3.6861,-3.6861,-3.6901,-3.6901,-3.6901,-3.6941,-3.6941,-3.6901,-3.6901,-3.6901,-3.6901,-3.6941,-3.6941,-3.6941,-3.6941,-3.6941,-3.6941,-3.6941,-3.6941,-3.7195,-3.7422,-3.7462,-3.7676,-3.7849,-3.7849,-3.7635,-3.7422,-3.7382,-3.7155,-3.6981,-3.6981,-3.7195,-3.7382,-3.7422,-3.7929,-3.8263,-3.829,-4.1246,-4.3082,-4.2783,-4.5392,-4.8281,-5.0795,-5.1548,-5.2907,-5.5162,-5.5762,-5.5996,-5.5996,-5.5996,-5.6191,-5.6582,-5.6582,-5.6582,-5.6582,-5.6582,-5.6582,-3.0889,-3.153,-3.1664,-3.1664,-3.0875,-2.9432,-2.6947,-2.5571,-2.4102,-2.1617,-2.1109,-2.1109,-2.1109,-2.1349,-2.1884,-2.2873,-2.4182,-2.5678,-2.7375,-2.9606,-3.1249,-3.177,-3.1765,0.0,0.0,0.0,-2.9929,-3.0822,-3.0846,-3.2148,-3.498,-3.5191,-3.5191,-3.5191,-3.5191,-3.5284,-3.5458,-3.5458,-3.5551,-3.5725,-3.5845,-3.5899,-3.5899,-3.6019,-3.6166,-3.6326,-3.6326,-3.6433,0.0,-3.6727,-3.6754,-3.6794,-3.6901,-3.6941,-3.6941,-3.6941,-3.6941,-3.6941,-3.6941,-3.6941,-3.6941,-3.6941,-3.6941,-3.6941,-3.6941,-3.6941,-3.6941,-3.6941,-3.6941,-3.6941,-3.6941,-3.6941,-3.6941,-3.6941,-3.7155,-3.7382,-3.7382,-3.7489,-3.7555,-3.7555,-3.7301,-3.7128,-3.7128,-3.7008,-3.6941,-3.6941,-3.7048,-3.7195,-3.7342,-3.7742,-3.8076,-3.8223,-3.9656,-4.0456,-4.0344,-4.1272,-4.3188,-4.6123,-4.8029,-5.0232,-5.3186,-5.534,-5.6328,-5.6328,-5.6328,-5.6406,-5.6582,-5.6582,-5.6582,-5.6582,-5.6582,-5.6582,-3.0047,-3.1116,-3.1664,-3.1664,-3.0341,-2.8577,-2.68,-2.5037,-2.326,-2.1483,-2.1109,-2.1109,-2.1109,-2.1283,-2.155,-2.1924,-2.3207,-2.4476,-2.5384,-2.7829,-2.9659,-2.9967,0.0,-2.9495,-2.9139,-2.6524,-2.6572,-3.0609,-3.0193,-3.1308,-3.5099,-3.5324,-3.5324,-3.5324,-3.5324,-3.5471,-3.5765,-3.5765,-3.5872,-3.6072,-3.6166,-3.6206,-3.6206,-3.6286,-3.6433,-3.6647,-3.6647,-3.6754,0.0,-3.6941,-3.6941,-3.6941,-3.6941,-3.6941,-3.6941,-3.6941,-3.6941,-3.6941,-3.6941,-3.6941,-3.6941,-3.6941,-3.6941,-3.6941,-3.6941,-3.6941,-3.6941,-3.6941,-3.6941,-3.6941,-3.6941,-3.6941,-3.6941,-3.6941,-3.7088,-3.7235,-3.7235,-3.7235,-3.7235,-3.7235,-3.7088,-3.6941,-3.6941,-3.6941,-3.6941,-3.6941,-3.7008,-3.7155,-3.7342,-3.7702,-3.8036,-3.8223,-3.8544,-3.8691,-3.8584,-3.8397,-3.9664,-4.2691,-4.5663,-4.8536,-5.1711,-5.4946,-5.6582,-5.6582,-5.6582,-5.6582,-5.6582,-5.6582,-5.6582,-5.6582,-5.6582,-5.6582,-2.8417,-3.0341,-3.1664,-3.1664,-3.0341,-2.8577,-2.68,-2.5037,-2.326,-2.1483,-2.1109,-2.1109,-2.1109,-2.1109,-2.1309,-2.1884,-2.2004,-2.2832,-2.5184,-2.5545,-2.6213,-2.7963,-2.8711,-2.8501,-2.7448,-2.425,-2.458,-3.0407,-2.8253,-2.9222,-3.5178,-3.5631,-3.5631,-3.5631,-3.5631,-3.5765,-3.6059,-3.6072,-3.6072,-3.6072,-3.6366,-3.65,-3.65,-3.6794,-3.6941,-3.6941,-3.6941,-3.6941,0.0,-3.6941,-3.6941,-3.6941,-3.6941,-3.6941,-3.6941,-3.6941,-3.6941,-3.6941,-3.6941,-3.6941,-3.6941,-3.6941,-3.6941,-3.6941,-3.6941,-3.6941,-3.6941,-3.6941,-3.6941,-3.6941,-3.6941,-3.6941,-3.6941,-3.6941,-3.6941,-3.6941,-3.6941,-3.6941,-3.6941,-3.6941,-3.6941,-3.6941,-3.6941,-3.6941,-3.6941,-3.6941,-3.7195,-3.7382,-3.7382,-3.7889,-3.8263,-3.8263,-3.8544,-3.8611,-3.829,-3.8263,-3.947,-4.2022,-4.5359,-4.8434,-5.1316,-5.4794,-5.6582,-5.6582,-5.6582,-5.6582,-5.6582,-5.6582,-5.6582,-5.6582,-5.6582,-5.6582,-2.6092,-2.7188,-2.7816,-2.8016,-2.6734,-2.5291,-2.473,-2.3233,-2.179,-2.1229,-2.1109,-2.1109,-2.1109,-2.1109,-2.1309,-2.1884,-2.1991,-2.2392,-2.3541,-2.5972,-2.7762,-2.8096,-2.739,-2.5903,-2.3956,-2.2794,-2.4589,-3.0407,-3.0151,-3.1378,-3.5405,-3.5819,-3.5939,-3.5939,-3.5939,-3.6072,-3.6366,-3.6366,-3.6473,-3.6647,-3.6754,-3.6794,-3.6794,-3.6901,-3.6941,-3.6941,-3.6941,-3.6941,-3.6941,-3.6941,-3.6941,-3.6941,-3.6941,-3.6941,-3.6941,-3.6941,-3.6941,-3.6941,-3.6941,-3.6941,-3.6941,-3.6941,-3.6941,-3.6941,-3.6941,-3.6941,-3.6941,-3.6941,-3.6941,-3.6941,-3.6941,-3.6941,-3.6941,-3.6941,-3.6941,-3.6941,-3.6941,-3.6941,-3.6941,-3.6941,-3.6941,-3.6941,-3.6941,-3.6941,-3.6941,-3.6941,-3.7008,-3.7155,-3.7342,-3.7716,-3.8036,-3.8223,-3.8544,-3.8691,-3.8584,-3.8584,-3.8992,-3.9775,-4.2765,-4.5694,-4.879,-5.1837,-5.4553,-5.6582,-5.6875,-5.7012,-5.7012,-5.7305,-5.7461,-5.7461,-5.7461,-5.7461,-2.3968,-2.5224,-2.5999,-2.6186,-2.4983,-2.3768,-2.3768,-2.2392,-2.1109,-2.1109,-2.1109,-2.1109,-2.1109,-2.1203,-2.143,-2.1911,-2.2071,-2.2552,-2.3701,-2.5932,-2.7696,-2.8404,-2.7366,-2.6006,-2.449,-2.4103,-2.588,-3.0621,-3.1092,-3.2601,-3.5577,-3.6072,-3.6286,-3.6393,-3.6286,-3.638,-3.6647,-3.6687,-3.6754,-3.6941,-3.6941,-3.6941,-3.6941,-3.6941,-3.6941,-3.6941,-3.6941,-3.6941,0.0,-3.6941,-3.6941,-3.6941,-3.6941,-3.6941,-3.6941,-3.6941,-3.6941,-3.6941,-3.6941,-3.6941,-3.6941,-3.6941,-3.6941,-3.6941,-3.6941,-3.6941,-3.6941,-3.6941,-3.6941,-3.6941,-3.6941,-3.6941,-3.6941,-3.6941,-3.6941,-3.6941,-3.6941,-3.6941,-3.6941,-3.6941,-3.6941,-3.6941,-3.6941,-3.6941,-3.6941,-3.6941,-3.7048,-3.7195,-3.7489,-3.7809,-3.8103,-3.8397,-3.8611,-3.8718,-3.8718,-3.8718,-3.8718,-3.8718,-4.2532,-4.5692,-4.7825,-5.0767,-5.3748,-5.707,-5.618,-5.6333,-5.7461,-5.7734,-5.7871,-5.7871,-5.7871,-5.7871,0.0,-2.4035,-2.5531,-2.5571,-2.4556,-2.3554,-2.3581,-2.2298,0.0,-2.1109,-2.1109,-2.1122,-2.1136,-2.1363,-2.1657,-2.1964,-2.2245,-2.314,-2.5224,-2.5745,-2.6573,-2.8604,-2.8368,-2.7974,-2.8125,-2.7424,-2.8038,-3.1083,-3.1558,-3.2927,-3.5869,-3.638,-3.6647,-3.6941,-3.6687,-3.6647,-3.6941,-3.6941,-3.6941,-3.6941,-3.6941,-3.6941,-3.6941,-3.6941,-3.6941,-3.6941,-3.6941,-3.6941,-3.6941,-3.6941,-3.6941,-3.6941,-3.6941,-3.6941,-3.6941,-3.6941,-3.6941,-3.6941,-3.6941,-3.6941,-3.6941,-3.6941,-3.6941,-3.6941,-3.6941,-3.6941,-3.6941,-3.6941,-3.6941,-3.6941,-3.6941,-3.6941,-3.6941,-3.6941,-3.6941,-3.6941,-3.6941,-3.6941,-3.6941,-3.6941,-3.6941,-3.6941,-3.6941,-3.6941,-3.6941,-3.6941,-3.7195,-3.7489,-3.7782,-3.8076,-3.837,-3.8691,-3.8691,-3.8718,-3.8758,-3.8731,-3.8731,-3.8758,-4.3883,-4.7185,-4.7979,-5.0466,-5.3603,-5.7156,-5.4672,-5.469,-5.7711,-5.7949,-5.7969,-5.7969,-5.7969,-5.7969,-1.9973,0.0,-2.1349,-2.1804,-2.1657,-2.1456,0.0,-2.1416,-2.1109,-2.1109,-2.1109,-2.1176,-2.1403,-2.151,-2.1724,-2.2231,-2.2378,-2.314,-2.5224,-2.803,-2.9248,-2.7908,-2.9013,-2.9349,-2.8229,-2.9308,-3.1142,-3.4192,-3.4704,-3.5423,-3.6393,-3.6687,-3.6861,-3.6941,-3.6861,-3.6861,-3.6941,-3.6941,-3.6941,-3.6941,-3.6941,-3.6941,-3.6941,-3.6941,-3.6941,-3.6941,-3.6941,-3.6941,-3.6941,-3.6941,-3.6941,-3.6941,-3.6941,-3.6941,-3.6941,-3.6941,-3.6941,-3.6941,-3.6941,-3.6941,-3.6941,-3.6941,-3.6941,-3.6941,-3.6941,-3.6941,-3.6941,-3.6941,-3.6941,-3.6941,-3.6941,-3.6941,-3.6941,-3.6941,-3.6941,-3.6941,-3.6941,-3.6941,-3.6941,-3.6941,-3.6941,-3.6941,-3.6941,-3.6941,-3.6941,-3.6941,-3.7195,-3.7489,-3.7782,-3.7889,-3.8143,-3.8651,-3.8504,-3.8544,-3.9012,-3.8865,-3.8825,-3.9052,-4.0411,-4.2353,-4.4949,-4.5657,-4.7493,-5.055,-5.267,-5.4084,-5.5352,-5.7694,-5.8887,-5.8887,-5.8887,-5.8887,-1.9118,-1.9479,-1.988,-2.0201,-2.0481,-2.0722,-2.0869,-2.1015,-2.1109,-2.1109,-2.1109,-2.1203,-2.1496,-2.2325,-2.2846,-2.2472,-2.3901,-2.5491,-2.676,-2.8831,-3.007,-2.9579,-3.0528,-3.1451,-3.1463,-3.2274,-3.3561,-3.5391,-3.5912,-3.6206,-3.65,-3.6794,-3.6941,-3.6941,-3.6941,-3.6941,-3.6941,-3.6941,-3.6941,-3.6941,-3.6941,-3.6941,-3.6941,-3.6941,-3.6941,-3.6941,-3.6941,-3.6941,-3.6941,-3.6941,-3.6941,-3.6941,-3.6941,-3.6941,-3.6941,-3.6941,-3.6941,-3.6941,-3.6941,-3.6941,-3.6941,-3.6941,-3.6941,-3.6941,-3.6941,-3.6941,-3.6941,-3.6941,-3.6941,-3.6941,-3.6941,-3.6941,-3.6941,-3.6941,-3.6941,-3.6941,-3.6941,-3.6941,-3.6941,-3.6941,-3.6941,-3.6941,-3.6941,-3.6941,-3.6941,-3.6941,-3.7301,-3.7635,-3.7782,-3.8063,-3.8397,-3.8865,-3.8758,-3.8865,-3.9306,-3.9225,-3.9199,-3.9346,-4.0716,-4.2233,-4.4382,-4.4397,-4.5174,-4.6914,-5.1727,-5.4237,-5.4472,-5.7756,-5.918,-5.918,-5.918,-5.918,-1.8971,-1.9586,-2.0134,-1.9867,-2.0214,-2.0615,-2.0668,-2.0895,-2.1109,-2.1109,-2.1149,-2.1349,-2.1924,-2.3273,-2.3995,-2.3046,-2.5852,-2.835,-2.8925,-2.9499,-3.0408,-3.1917,-3.2599,-3.344,-3.467,-3.507,-3.5391,-3.5672,-3.5965,-3.6259,-3.654,-3.6794,-3.6941,-3.6941,-3.6941,-3.6941,-3.6941,-3.6941,-3.6941,-3.6941,-3.6941,-3.6941,-3.6941,-3.6941,-3.6941,-3.6941,-3.6941,-3.6941,-3.6941,-3.6941,-3.6941,-3.6941,-3.6941,-3.6941,-3.6941,-3.6941,-3.6941,-3.6941,-3.6941,-3.6941,-3.6941,-3.6941,-3.6941,-3.6941,-3.6941,-3.6941,-3.6941,-3.6941,-3.6941,-3.6941,-3.6941,-3.6941,-3.6941,-3.6941,-3.6941,-3.6941,-3.6941,-3.6941,-3.6941,-3.6941,-3.6941,-3.6941,-3.6941,-3.6981,-3.7008,-3.7008,-3.7515,-3.7889,-3.7889,-3.833,-3.8798,-3.9118,-3.9118,-3.9239,-3.964,-3.9666,-3.968,-3.9746,-4.1978,-4.3695,-4.4033,-4.4048,-4.3943,-4.443,-5.0487,-5.375,-5.375,-5.7531,-5.918,-5.918,-5.918,-5.918,-1.9158,-2.0628,-2.1657,-2.0174,-2.0054,-2.0361,-2.0615,-2.0895,-2.1109,-2.1109,-2.1309,-2.2031,-2.3834,-2.3394,-2.326,-2.4783,-2.68,-2.8791,-3.0581,-3.2372,-3.316,-3.2211,-3.3694,-3.4309,-3.3066,-3.4536,-3.5685,-3.5979,-3.6273,-3.658,-3.6861,-3.6901,-3.6941,-3.6941,-3.6941,-3.6941,-3.6941,-3.6941,-3.6941,-3.6941,-3.6941,-3.6941,-3.6941,-3.6941,-3.6941,-3.6941,-3.6941,-3.6941,-3.6941,-3.6941,-3.6941,-3.6941,-3.6941,-3.6941,-3.6941,-3.6941,-3.6941,-3.6941,-3.6941,-3.6941,-3.6941,-3.6941,-3.6941,-3.6941,-3.6941,-3.6941,-3.6941,-3.6941,-3.6941,-3.6941,-3.6941,-3.6941,-3.6941,-3.6941,-3.6941,-3.6941,-3.6941,-3.6941,-3.6941,-3.6941,-3.6941,-3.6941,-3.6941,-3.7155,-3.7315,-3.7315,-3.7823,-3.8183,-3.8183,-3.8263,-3.8544,-3.9092,-3.8945,-3.9118,-3.9893,-3.996,-4.0067,-4.0334,-4.0574,-4.0773,-4.1086,-4.1113,-4.1113,-4.1195,-4.726,-5.0521,-5.0521,-5.6364,-5.918,-5.918,-5.918,-5.918,-1.9011,-2.004,-2.1042,-2.1176,-2.2285,-2.3367,-2.35,-2.3875,-2.3928,-2.2979,-2.302,-2.3554,-2.4676,-2.509,-2.6253,-2.9285,-2.9005,-2.9125,-3.1183,-3.161,-3.1864,-3.2291,-3.3187,-3.3814,-3.3961,-3.4977,-3.5752,-3.6046,-3.634,-3.6647,-3.6941,-3.6941,-3.6941,-3.6941,-3.6941,-3.6941,-3.6941,-3.6941,-3.6941,-3.6941,-3.6941,-3.6941,-3.6941,-3.6941,-3.6941,-3.6941,-3.6941,-3.6941,-3.6941,-3.6941,-3.6941,-3.6941,-3.6941,-3.6941,-3.6941,-3.6941,-3.6941,-3.6941,-3.6941,-3.6941,-3.6941,-3.6941,-3.6941,-3.6941,-3.6941,-3.6941,-3.6941,-3.6941,-3.6941,-3.6941,-3.6941,-3.6941,-3.6941,-3.6941,-3.6941,-3.6941,-3.6941,-3.7048,-3.7168,-3.7168,-3.7301,-3.7408,-3.7408,-3.7529,-3.7595,-3.7595,-3.7969,-3.8263,-3.8263,-3.8397,-3.8731,-3.9346,-3.9265,-3.9493,-4.0214,-4.0254,-4.0334,-4.0481,-4.0361,-4.0334,-4.0481,-4.0481,-4.0481,-4.0481,-4.4922,-4.8169,-4.9806,-5.449,-5.7512,-5.918,-5.918,-5.918,-1.9011,-1.98,-2.0855,-2.2271,-2.3688,-2.4957,-2.5852,-2.6132,-2.5959,-2.5104,-2.5157,-2.5424,-2.5651,-2.6854,-2.8764,-3.1704,-3.0515,-2.994,-3.1998,-3.1383,-3.133,-3.2973,-3.3173,-3.3694,-3.507,-3.5525,-3.5832,-3.6059,-3.6393,-3.6687,-3.6941,-3.6941,-3.6941,-3.6941,-3.6941,-3.6941,-3.6941,-3.6941,-3.6941,-3.6941,-3.6941,-3.6941,-3.6941,-3.6941,-3.6941,-3.6941,-3.6941,-3.6941,-3.6941,-3.6941,-3.6941,-3.6941,-3.6941,-3.6941,-3.6941,-3.6941,-3.6941,-3.6941,-3.6941,-3.6941,-3.6941,-3.6941,-3.6941,-3.6941,-3.6941,-3.6941,-3.6941,-3.6941,-3.6981,-3.7008,-3.6941,-3.6941,-3.6941,-3.7008,-3.7048,-3.7048,-3.7128,-3.7301,-3.7489,-3.7489,-3.7676,-3.7809,-3.7809,-3.7889,-3.7929,-3.7929,-3.8183,-3.837,-3.837,-3.8651,-3.9012,-3.9533,-3.9666,-3.992,-4.0441,-4.0481,-4.0481,-4.0481,-4.0481,-4.0481,-4.0481,-4.0481,-4.0481,-4.0481,-4.3533,-4.6285,-4.8638,-5.1876,-5.4718,-5.7061,-5.7795,-5.8,-1.9506,-2.1162,-2.2739,-2.3153,-2.2151,-2.1991,-2.5545,-2.5344,-2.489,-2.668,-2.7281,-2.7482,-2.7509,-2.7843,-2.8203,-2.847,-2.994,-3.1757,-3.3841,-3.4282,-3.4536,-3.4963,-3.5004,-3.5057,-3.5191,-3.5712,-3.6046,-3.6072,-3.658,-3.6901,-3.6941,-3.6941,-3.6941,-3.6941,-3.6941,-3.6941,-3.6941,-3.6941,-3.6941,-3.6941,-3.6941,-3.6941,-3.6941,-3.6941,-3.6941,-3.6941,-3.6941,-3.6941,-3.6941,-3.6941,-3.6941,-3.6941,-3.6941,-3.6941,-3.6941,-3.6941,-3.6941,-3.6941,-3.6941,-3.6941,-3.6941,-3.6941,-3.6941,-3.6941,-3.6941,-3.6941,-3.6941,-3.6941,-3.7128,-3.7275,-3.7008,-3.6941,-3.7008,-3.7275,-3.7342,-3.7422,-3.7702,-3.7782,-3.7782,-3.7782,-3.7809,-3.7809,-3.7809,-3.8036,-3.8223,-3.8223,-3.8504,-3.8691,-3.8691,-3.8945,-3.9239,-3.9559,-3.9853,-4.0147,-4.0441,-4.0481,-4.0481,-4.0481,-4.0481,-4.0481,-4.0481,-4.0481,-4.0481,-4.0481,-4.3533,-4.513,-4.5367,-4.8654,-5.0272,-5.0521,-5.3539,-5.491,-1.9613,-2.1296,-2.2979,-2.3474,-2.3233,-2.3821,-2.7482,-2.8163,-2.7936,-2.7602,-2.8644,-2.9285,-2.8177,-2.986,-3.1116,-3.0207,-3.1797,-3.3494,-3.4456,-3.4843,-3.507,-3.5177,-3.5191,-3.5271,-3.5444,-3.5832,-3.6153,-3.6326,-3.6727,-3.6941,-3.6941,-3.6941,-3.6941,-3.6941,-3.6941,-3.6941,-3.6941,-3.6941,-3.6941,-3.6941,-3.6941,-3.6941,-3.6941,-3.6941,-3.6941,-3.6941,-3.6941,-3.6941,-3.6941,-3.6941,-3.6941,-3.6941,-3.6941,-3.6941,-3.6941,-3.6941,-3.6941,-3.6941,-3.6941,-3.6941,-3.6941,-3.6941,-3.6941,-3.6941,-3.6941,-3.7048,-3.7195,-3.7195,-3.7422,-3.7595,-3.7301,-3.7342,-3.7515,-3.7635,-3.7635,-3.7676,-3.7782,-3.7956,-3.8076,-3.8076,-3.825,-3.8397,-3.8397,-3.8464,-3.8544,-3.8544,-3.8651,-3.8718,-3.8718,-3.8972,-3.9265,-3.9559,-4.004,-4.0361,-4.0481,-4.0481,-4.0481,-4.0481,-4.0481,-4.0481,-4.0481,-4.0481,-4.0481,-4.0481,-4.1664,-4.3279,-4.5145,-4.63,-4.7934,-4.9823,-5.3062,-5.4454,-2.0588,-2.179,-2.3166,-2.4422,-2.4529,-2.5291,-2.8925,-2.9633,-2.9513,-2.9499,-3.0261,-3.0528,-2.9219,-3.1102,-3.2505,-3.141,-3.304,-3.4536,-3.4736,-3.5017,-3.5191,-3.5191,-3.5191,-3.5311,-3.5605,-3.5899,-3.6193,-3.6473,-3.6754,-3.6941,-3.6941,-3.6941,-3.6941,-3.6941,-3.6941,-3.6941,-3.6941,-3.6941,-3.6941,-3.6941,-3.6941,-3.6941,-3.6941,-3.6941,-3.6941,-3.6941,-3.6941,-3.6941,-3.6941,-3.6941,-3.6941,-3.6941,-3.6941,-3.6941,-3.6941,-3.6941,-3.6941,-3.6941,-3.6941,-3.6941,-3.6941,-3.6941,-3.7008,-3.7088,-3.7088,-3.7275,-3.7529,-3.7529,-3.7742,-3.7929,-3.7716,-3.7742,-3.7849,-3.7929,-3.7956,-3.7996,-3.8076,-3.825,-3.8397,-3.8397,-3.8584,-3.8718,-3.8718,-3.8718,-3.8718,-3.8718,-3.8718,-3.8718,-3.8718,-3.9052,-3.9452,-3.9827,-4.0227,-4.0481,-4.0481,-4.0481,-4.0481,-4.0481,-4.0481,-4.0481,-4.0481,-4.0481,-4.0481,-4.0481,-4.0481,-4.1651,-4.3743,-4.3743,-4.4683,-4.7024,-5.0039,-5.2159,-2.2605,-2.2859,-2.3514,-2.6146,-2.5732,-2.5678,-2.9499,-2.9005,-2.8818,-3.2625,-3.2251,-3.1129,-3.0849,-3.1289,-3.1597,-3.1289,-3.3227,-3.4763,-3.4763,-3.5017,-3.5191,-3.5191,-3.5191,-3.5311,-3.5605,-3.5899,-3.6193,-3.65,-3.6754,-3.6941,-3.6941,-3.6941,-3.6941,-3.6941,-3.6941,-3.6941,-3.6941,-3.6941,-3.6941,-3.6941,-3.6941,-3.6941,-3.6941,-3.6941,-3.6941,-3.6941,-3.6941,-3.6941,-3.6941,-3.6941,-3.6941,-3.6941,-3.6941,-3.6941,-3.6941,-3.6941,-3.6941,-3.6941,-3.6941,-3.6941,-3.6941,-3.6941,-3.7155,-3.7382,-3.7382,-3.7595,-3.7809,-3.7809,-3.8036,-3.8263,-3.8263,-3.8036,-3.7889,-3.8183,-3.8263,-3.833,-3.8651,-3.8718,-3.8718,-3.8718,-3.8718,-3.8718,-3.8718,-3.8718,-3.8718,-3.8718,-3.8718,-3.8718,-3.8731,-3.9239,-3.9813,-4.0401,-4.0481,-4.0481,-4.0481,-4.0481,-4.0481,-4.0481,-4.0481,-4.0481,-4.0481,-4.0481,-4.0481,-4.0481,-4.0481,-4.0481,-4.0481,-4.0481,-4.0481,-4.0481,-4.3758,-4.6773,-2.0828,-2.2832,-2.481,-2.5184,-2.6827,-2.8751,-3.0314,-3.0408,-3.0862,-3.3253,-3.2238,-3.0955,-3.1076,-3.2265,-3.2933,-3.1998,-3.348,-3.483,-3.5044,-3.5137,-3.5191,-3.5191,-3.5191,-3.5391,-3.5899,-3.6019,-3.6273,-3.6754,-3.6901,-3.6941,-3.6941,-3.6941,-3.6941,-3.6941,-3.6941,-3.6941,-3.6941,-3.6941,-3.6941,-3.6941,-3.6941,-3.6941,-3.6941,-3.6941,-3.6941,-3.6941,-3.6941,-3.6941,-3.6941,-3.6941,-3.6941,-3.6941,-3.6941,-3.6941,-3.6941,-3.6941,-3.6941,-3.6941,-3.6941,-3.7088,-3.7235,-3.7235,-3.7448,-3.7676,-3.7676,-3.7889,-3.8116,-3.8116,-3.8357,-3.8584,-3.8584,-3.8504,-3.8464,-3.8584,-3.8584,-3.8611,-3.8691,-3.8718,-3.8718,-3.8718,-3.8718,-3.8718,-3.8718,-3.8718,-3.8718,-3.8718,-3.8718,-3.8865,-3.9279,-3.9493,-3.9813,-4.0401,-4.0481,-4.0481,-4.0481,-4.0481,-4.0481,-4.0481,-4.0481,-4.0481,-4.0481,-4.0481,-4.0481,-4.0481,-4.0481,-4.0481,-4.0481,-4.0481,-4.0481,-4.0481,-4.3758,-4.5741,-2.2993,-2.4516,-2.5879,-2.7402,-2.8858,-3.0287,-3.1704,-3.2051,-3.1996,-3.2046,-3.1272,-3.021,-2.9079,-2.9939,-3.0975,-3.1428,-3.1413,-3.24,-3.4953,-3.4108,-3.3883,-3.498,-3.5191,-3.5378,-3.5859,-3.6006,-3.6259,-3.6727,-3.6861,-3.6941,-3.6941,-3.6941,-3.6941,-3.6941,-3.6941,-3.6941,-3.6941,-3.6941,-3.6941,-3.6941,-3.6941,-3.6941,-3.6941,-3.6941,-3.6941,-3.6941,-3.6941,-3.6941,-3.6941,-3.6941,-3.6941,-3.6941,-3.6941,-3.6941,-3.6941,-3.6941,-3.6941,-3.6941,-3.7088,-3.7235,-3.7422,-3.7529,-3.7742,-3.7996,-3.7996,-3.821,-3.8437,-3.8437,-3.8584,-3.8718,-3.8718,-3.8718,-3.8718,-3.8718,-3.8718,-3.8718,-3.8718,-3.8718,-3.8718,-3.8718,-3.8718,-3.8718,-3.8718,-3.8718,-3.8718,-3.8718,-3.8825,-3.9052,-3.9533,-3.9706,-3.996,-4.0441,-4.0481,-4.0481,-4.0481,-4.0481,-4.0481,-4.0481,-4.0481,-4.0481,-4.0481,-4.0481,-4.0481,-4.0481,-4.0481,-4.0481,-4.0481,-4.0481,-4.0548,-4.0655,-4.2542,-4.4346,-2.6974,-2.6799,-2.6505,-3.1209,-3.1263,-3.0862,-3.3293,-3.3413,-3.2397,-2.976,-2.9718,-2.9134,-2.6005,-2.6074,-2.7298,-2.9671,-2.8113,-2.8468,-3.4108,-3.2586,-3.1923,-3.4768,-3.5191,-3.5311,-3.5605,-3.5872,-3.6153,-3.6433,-3.6727,-3.6901,-3.6901,-3.6941,-3.6941,-3.6941,-3.6941,-3.6941,-3.6941,-3.6941,-3.6941,-3.6941,-3.6941,-3.6941,-3.6941,-3.6941,-3.6941,-3.6941,-3.6941,-3.6941,-3.6941,-3.6941,-3.6941,-3.6941,-3.6941,-3.6941,-3.6941,-3.6941,-3.6941,-3.7008,-3.7275,-3.7422,-3.7489,-3.7782,-3.8076,-3.829,-3.829,-3.8504,-3.8718,-3.8718,-3.8718,-3.8718,-3.8718,-3.8718,-3.8718,-3.8718,-3.8718,-3.8718,-3.8718,-3.8718,-3.8718,-3.8718,-3.8718,-3.8718,-3.8718,-3.8718,-3.8718,-3.8718,-3.8972,-3.9265,-3.9559,-3.9853,-4.0147,-4.0441,-4.0481,-4.0481,-4.0481,-4.0481,-4.0481,-4.0481,-4.0481,-4.0481,-4.0481,-4.0481,-4.0481,-4.0481,-4.0481,-4.0481,-4.0508,-4.0508,-4.0655,-4.0949,-4.0949,-4.2529,-2.3184,-2.4528,-2.5714,-2.9493,-3.1583,-3.2812,-3.3387,-3.1819,-2.9999,-2.9794,-2.9706,-2.8768,-2.618,-2.6054,-2.6521,-2.7298,-2.692,-2.7823,-3.1272,-3.1272,-3.1923,-3.4768,-3.5191,-3.5311,-3.5605,-3.5685,-3.5845,-3.6139,-3.6433,-3.6607,-3.6607,-3.6834,-3.6941,-3.6941,-3.6941,-3.6941,-3.6941,-3.6941,-3.6941,-3.6941,-3.6941,-3.6941,-3.6941,-3.6941,-3.6941,-3.6941,-3.6941,-3.6941,-3.6941,-3.6941,-3.6941,-3.6941,-3.6941,-3.6941,-3.6941,-3.6941,-3.7088,-3.7301,-3.7342,-3.7676,-3.8076,-3.8143,-3.837,-3.8611,-3.8611,-3.8691,-3.8718,-3.8718,-3.8718,-3.8718,-3.8718,-3.8718,-3.8718,-3.8718,-3.8718,-3.8718,-3.8718,-3.8718,-3.8718,-3.8718,-3.8718,-3.8718,-3.8718,-3.8718,-3.8718,-3.8718,-3.8972,-3.9265,-3.9559,-3.9853,-4.0147,-4.0441,-4.0481,-4.0481,-4.0481,-4.0481,-4.0481,-4.0481,-4.0481,-4.0481,-4.0481,-4.0481,-4.0481,-4.0481,-4.0481,-4.0588,-4.0802,-4.0802,-4.0976,-4.1229,-4.1229,-4.1638,-2.442,-2.5371,-2.6054,-3.0122,-3.2305,-3.3,-3.1768,-3.0343,-2.854,-2.6191,-2.5548,-2.4881,-2.2265,-2.2087,-2.2735,-2.4136,-2.3284,-2.3937,-2.8253,-2.8897,-2.9337,-3.0858,-3.346,-3.4808,-3.3437,-3.4671,-3.5698,-3.5845,-3.6126,-3.6353,-3.65,-3.6647,-3.6794,-3.6941,-3.6941,-3.6941,-3.6941,-3.6941,-3.6941,-3.6941,-3.6941,-3.6941,-3.6941,-3.6941,-3.6941,-3.6941,-3.6941,-3.6941,-3.6941,-3.6941,-3.6941,-3.6941,-3.6941,-3.7008,-3.7155,-3.7155,-3.7342,-3.7595,-3.7742,-3.801,-3.829,-3.8437,-3.8584,-3.8718,-3.8718,-3.8718,-3.8718,-3.8718,-3.8718,-3.8718,-3.8718,-3.8718,-3.8718,-3.8718,-3.8718,-3.8718,-3.8718,-3.8718,-3.8718,-3.8718,-3.8718,-3.8718,-3.8718,-3.8718,-3.8718,-3.8718,-3.8972,-3.9265,-3.9559,-3.9853,-4.0147,-4.0441,-4.0481,-4.0481,-4.0481,-4.0481,-4.0481,-4.0481,-4.0481,-4.0481,-4.0481,-4.0615,-4.0615,-4.0481,-4.0615,-4.0762,-4.0909,-4.1056,-4.1269,-4.1563,-4.1563,-4.171,-2.5962,-2.6961,-2.7281,-3.149,-3.2577,-3.2183,-2.9736,-2.8506,-2.6649,-2.2131,-2.1399,-2.0594,-1.7843,-1.767,-1.8736,-2.1132,-1.939,-1.9815,-2.5014,-2.6097,-2.6745,-2.7176,-3.1497,-3.3672,-3.1923,-3.365,-3.4898,-3.5551,-3.5832,-3.6099,-3.634,-3.6433,-3.662,-3.6861,-3.6901,-3.6941,-3.6941,-3.6941,-3.6941,-3.6941,-3.6941,-3.6941,-3.6941,-3.6941,-3.6941,-3.6941,-3.6941,-3.6941,-3.6941,-3.6941,-3.6941,-3.6941,-3.7008,-3.7155,-3.7382,-3.7448,-3.7635,-3.7929,-3.8183,-3.829,-3.837,-3.8651,-3.8718,-3.8718,-3.8718,-3.8718,-3.8718,-3.8718,-3.8718,-3.8718,-3.8718,-3.8718,-3.8718,-3.8718,-3.8718,-3.8718,-3.8718,-3.8718,-3.8718,-3.8718,-3.8718,-3.8718,-3.8718,-3.8718,-3.8718,-3.8718,-3.8972,-3.9265,-3.9559,-3.9853,-4.0147,-4.0441,-4.0481,-4.0481,-4.0481,-4.0481,-4.0481,-4.0481,-4.0508,-4.0548,-4.0548,-4.0842,-4.0869,-4.0615,-4.0869,-4.1016,-4.1056,-4.131,-4.1563,-4.1857,-4.1857,-4.2004,-2.2688,-2.6413,-2.9847,-3.2011,-3.1163,-2.9724,-2.9319,-2.5625,-2.1924,-2.131,-2.1399,-2.0594,-1.7843,-1.767,-1.8088,-1.8302,-1.8074,-1.8949,-2.2219,-2.5014,-2.7392,-2.9979,-3.1059,-3.2361,-3.4319,-3.2823,-3.2635,-3.5033,-3.5525,-3.5712,-3.5738,-3.6233,-3.6513,-3.658,-3.6794,-3.6941,-3.6941,-3.6941,-3.6941,-3.6941,-3.6941,-3.6941,-3.6941,-3.6941,-3.6941,-3.6941,-3.6941,-3.6941,-3.6941,-3.6941,-3.6941,-3.6967,-3.7235,-3.7342,-3.7422,-3.7676,-3.7929,-3.8223,-3.825,-3.8437,-3.8651,-3.8718,-3.8718,-3.8718,-3.8718,-3.8718,-3.8718,-3.8718,-3.8718,-3.8718,-3.8718,-3.8718,-3.8718,-3.8718,-3.8718,-3.8718,-3.8718,-3.8718,-3.8718,-3.8718,-3.8718,-3.8718,-3.8718,-3.8718,-3.8718,-3.8718,-3.8972,-3.9265,-3.9559,-3.9853,-4.0147,-4.0441,-4.0481,-4.0481,-4.0481,-4.0481,-4.0481,-4.0481,-4.0722,-4.0842,-4.0842,-4.1122,-4.1269,-4.1229,-4.1269,-4.1416,-4.167,-4.171,-4.1897,-4.2151,-4.2151,-4.2178,-2.3271,-2.6827,-2.9927,-3.2024,-3.0838,-2.8727,-2.7229,-2.3981,-2.0696,-1.9044,-1.9024,-1.8793,-1.7614,-1.767,-1.786,-1.786,-1.786,-1.8302,-1.961,-2.2219,-2.4589,-2.588,-2.8897,-3.1485,-3.2586,-3.3023,-3.3883,-3.5191,-3.5311,-3.5458,-3.5618,-3.5872,-3.6166,-3.65,-3.662,-3.6754,-3.6941,-3.6941,-3.6941,-3.6941,-3.6941,-3.6941,-3.6941,-3.6941,-3.6941,-3.6941,-3.6941,-3.6941,-3.6941,-3.6941,-3.7048,-3.7195,-3.7342,-3.7595,-3.7889,-3.801,-3.825,-3.8504,-3.8504,-3.8611,-3.8718,-3.8718,-3.8718,-3.8718,-3.8718,-3.8718,-3.8718,-3.8718,-3.8718,-3.8718,-3.8718,-3.8718,-3.8718,-3.8718,-3.8718,-3.8718,-3.8718,-3.8718,-3.8718,-3.8718,-3.8718,-3.8718,-3.8718,-3.8718,-3.8718,-3.8718,-3.8972,-3.9265,-3.9559,-3.9853,-4.0147,-4.0441,-4.0481,-4.0548,-4.0695,-4.0722,-4.0802,-4.0949,-4.1082,-4.1163,-4.1163,-4.1416,-4.1603,-4.1603,-4.1603,-4.1644,-4.179,-4.1964,-4.2111,-4.2218,-4.2218,-4.2218,-2.3741,-2.6239,-2.818,-3.0316,-2.9068,-2.6683,-2.4605,-2.2096,-1.9462,-1.7398,-1.7093,-1.7229,-1.7344,-1.7609,-1.7826,-1.786,-1.786,-1.786,-1.786,-2.0482,-2.221,-2.221,-2.6745,-2.9979,-3.0846,-3.2798,-3.4319,-3.5191,-3.5191,-3.5284,-3.5511,-3.5591,-3.5859,-3.638,-3.6473,-3.6647,-3.6941,-3.6941,-3.6941,-3.6941,-3.6941,-3.6941,-3.6941,-3.6941,-3.6941,-3.6941,-3.6941,-3.6941,-3.6941,-3.7008,-3.7195,-3.7382,-3.7569,-3.7863,-3.8263,-3.833,-3.8504,-3.8718,-3.8718,-3.8718,-3.8718,-3.8718,-3.8718,-3.8718,-3.8718,-3.8718,-3.8718,-3.8718,-3.8718,-3.8718,-3.8718,-3.8718,-3.8718,-3.8718,-3.8718,-3.8718,-3.8718,-3.8718,-3.8718,-3.8718,-3.8718,-3.8718,-3.8718,-3.8718,-3.8718,-3.8718,-3.8972,-3.9265,-3.9559,-3.992,-4.0254,-4.0548,-4.0655,-4.0802,-4.1016,-4.1016,-4.1122,-4.1336,-4.1416,-4.1456,-4.1456,-4.175,-4.1897,-4.1897,-4.1897,-4.1897,-4.1897,-4.2111,-4.2218,-4.2218,-4.2218,-4.2218,-2.2405,-2.3514,-2.4331,-2.5682,-2.414,-2.2183,-2.1397,-1.9137,-1.7188,-1.6978,-1.7093,-1.7195,-1.7202,-1.7453,-1.7704,-1.7846,-1.786,-1.786,-1.786,-2.0482,-2.221,-2.221,-2.4797,-2.7823,-3.0621,-3.1059,-3.2361,-3.498,-3.5191,-3.5204,-3.5217,-3.5485,-3.5778,-3.6086,-3.6366,-3.6647,-3.6941,-3.6941,-3.6941,-3.6941,-3.6941,-3.6941,-3.6941,-3.6941,-3.6941,-3.6941,-3.6941,-3.6941,-3.6967,-3.7235,-3.7382,-3.7448,-3.7996,-3.8223,-3.829,-3.8584,-3.8718,-3.8718,-3.8718,-3.8718,-3.8718,-3.8718,-3.8718,-3.8718,-3.8718,-3.8718,-3.8718,-3.8718,-3.8718,-3.8718,-3.8718,-3.8718,-3.8718,-3.8718,-3.8718,-3.8718,-3.8718,-3.8718,-3.8718,-3.8718,-3.8718,-3.8718,-3.8718,-3.8718,-3.8718,-3.8718,-3.8972,-3.9265,-3.9559,-4.0107,-4.0548,-4.0869,-4.1122,-4.131,-4.131,-4.131,-4.1336,-4.1336,-4.1603,-4.175,-4.175,-4.2031,-4.2178,-4.2178,-4.2178,-4.2178,-4.2178,-4.2218,-4.2218,-4.2218,-4.2218,-4.2218,-2.2017,-2.2873,-2.3731,-2.5609,-2.4006,-2.1721,-2.1732,-1.9258,-1.6978,-1.6978,-1.7019,-1.7087,-1.7175,-1.7365,-1.7548,-1.7704,-1.7717,-1.7758,-1.7846,-1.8736,-2.0035,-2.2008,-2.3075,-2.4797,-2.7823,-2.9765,-3.1272,-3.2361,-3.4108,-3.4319,-3.2573,-3.2459,-3.2718,-3.3173,-3.326,-3.4435,-3.6941,-3.6941,-3.6941,-3.6941,-3.6941,-3.6941,-3.6941,-3.6941,-3.6941,-3.6941,-3.6941,-3.6941,-3.6967,-3.7275,-3.7489,-3.7702,-3.8116,-3.837,-3.8584,-3.8691,-3.8718,-3.8718,-3.8718,-3.8718,-3.8718,-3.8718,-3.8718,-3.8718,-3.8718,-3.8718,-3.8718,-3.8718,-3.8718,-3.8718,-3.8718,-3.8718,-3.8718,-3.8718,-3.8718,-3.8718,-3.8718,-3.8718,-3.8718,-3.8718,-3.8718,-3.8718,-3.8718,-3.8718,-3.8798,-3.8972,-3.9412,-3.9813,-4.0107,-4.0655,-4.1082,-4.1163,-4.1269,-4.1416,-4.1603,-4.163,-4.171,-4.1884,-4.2004,-4.2071,-4.2071,-4.2151,-4.2218,-4.2218,-4.2218,-4.2218,-4.2218,-4.2218,-4.2218,-4.2218,-4.2218,-4.2218,-2.1149,-2.1683,-2.2257,-2.3702,-2.2508,-2.0965,-2.0667,-1.9013,-1.7362,-1.7113,-1.6978,-1.7012,-1.7107,-1.7202,-1.7338,-1.7541,-1.7568,-1.7623,-1.7772,-1.7792,-1.8459,-2.0466,-2.1571,-2.2857,-2.4797,-2.7607,-2.9765,-3.0846,-3.2586,-3.301,-3.1059,-3.0846,-3.1081,-3.1598,-3.2822,-3.4435,-3.6941,-3.6941,-3.6941,-3.6941,-3.6941,-3.6941,-3.6941,-3.6941,-3.6941,-3.6941,-3.7048,-3.7088,-3.7114,-3.7422,-3.7702,-3.7996,-3.829,-3.8544,-3.8718,-3.8718,-3.8718,-3.8718,-3.8718,-3.8718,-3.8718,-3.8718,-3.8718,-3.8718,-3.8718,-3.8718,-3.8718,-3.8718,-3.8718,-3.8718,-3.8718,-3.8718,-3.8718,-3.8718,-3.8718,-3.8718,-3.8718,-3.8718,-3.8718,-3.8718,-3.8798,-3.8865,-3.8865,-3.8945,-3.9092,-3.9265,-3.9813,-4.0254,-4.0441,-4.1056,-4.1483,-4.1483,-4.1563,-4.171,-4.1924,-4.1924,-4.2004,-4.2218,-4.2218,-4.2218,-4.2218,-4.2218,-4.2218,-4.2218,-4.2218,-4.2218,-4.2218,-4.2218,-4.2218,-4.2218,-4.2218,-4.2218,0.0,0.0,0.0,-1.9427,-1.958,-1.9312,-1.8178,-1.8046,-1.8005,-1.7134,-1.7174,-1.7202,-1.6978,-1.6978,-1.7073,-1.7358,-1.7412,-1.7467,-1.7616,-1.7629,-1.7704,-1.7826,-2.0466,-2.1992,-2.1992,-2.458,-2.7607,-3.0621,-3.0846,-3.0846,-3.0846,-3.0632,-3.0866,-3.1586,-3.4772,-3.6633,-3.6941,-3.6941,-3.6941,-3.6941,-3.6941,-3.6941,-3.6941,-3.6941,-3.6941,-3.6941,-3.7261,-3.7382,-3.7422,-3.7702,-3.7996,-3.829,-3.8611,-3.8718,-3.8718,-3.8718,-3.8718,-3.8718,-3.8718,-3.8718,-3.8718,-3.8718,-3.8718,-3.8718,-3.8718,-3.8718,-3.8718,-3.8718,-3.8718,-3.8718,-3.8718,-3.8718,-3.8718,-3.8718,-3.8731,-3.8731,-3.8731,-3.8758,-3.8758,-3.8731,-3.8972,-3.9159,-3.9159,-3.9412,-3.9599,-3.964,-4.0107,-4.0508,-4.0508,-4.1269,-4.179,-4.179,-4.2044,-4.2218,-4.2218,-4.2218,-4.2218,-4.2218,-4.2218,-4.2218,-4.2218,-4.2218,-4.2218,-4.2218,-4.2218,-4.2218,-4.2218,-4.2218,-4.2218,-4.2218,-4.2218,-4.2218,-1.9145,0.0,0.0,0.0,0.0,0.0,-1.9151,-2.0482,-2.0918,-1.8332,-1.9245,-1.9962,-1.7433,-1.6978,-1.7005,-1.7087,-1.7188,-1.727,-1.7311,-1.7412,-1.75,-1.7541,-1.8283,-1.8784,-1.8784,-2.1698,-2.4589,-2.7607,-2.7823,-2.7823,-2.7823,-2.6028,-2.5938,-2.8257,-3.1542,-3.4524,-3.6607,-3.6834,-3.6941,-3.6941,-3.6941,-3.6941,-3.6941,-3.6941,-3.6941,-3.6941,-3.7261,-3.7489,-3.7702,-3.7996,-3.8183,-3.829,-3.8611,-3.8718,-3.8718,-3.8718,-3.8718,-3.8718,-3.8718,-3.8718,-3.8718,-3.8718,-3.8718,-3.8718,-3.8718,-3.8718,-3.8718,-3.8718,-3.8718,-3.8718,-3.8718,-3.8718,-3.8718,-3.8718,-3.8865,-3.9052,-3.9052,-3.9199,-3.9306,-3.9078,-3.9265,-3.9493,-3.9493,-3.9559,-3.9746,-4.0187,-4.0548,-4.0949,-4.1376,-4.1817,-4.2111,-4.2111,-4.2178,-4.2218,-4.2218,-4.2218,-4.2218,-4.2218,-4.2218,-4.2218,-4.2218,-4.2218,-4.2218,-4.2218,-4.2218,-4.2218,-4.2218,-4.2218,-4.2218,-4.2218,-4.2218,-4.2218,0.0,0.0,0.0,0.0,0.0,0.0,-1.918,-2.011,-2.0318,-1.7835,-1.8564,-1.9586,-1.8767,-1.7761,-1.737,-1.8544,-1.7839,-1.7127,-1.7182,-1.727,-1.7351,-1.7412,-1.8568,-1.926,-1.926,-2.1982,-2.5106,-2.7888,-2.7114,-2.588,-2.4797,-2.318,-2.3936,-2.6852,-3.0306,-3.2761,-3.4528,-3.6053,-3.6131,-3.477,-3.6131,-3.6861,-3.6754,-3.6874,-3.7008,-3.7128,-3.7448,-3.7037,-3.6143,-3.6423,-3.6525,-3.6563,-3.6728,-3.6792,-3.6817,-3.8227,-3.8718,-3.8718,-3.8718,-3.8718,-3.8718,-3.8718,-3.8718,-3.8718,-3.8718,-3.8718,-3.8718,-3.8718,-3.8718,-3.8718,-3.8718,-3.8798,-3.8905,-3.8905,-3.9118,-3.9346,-3.9346,-3.9559,-3.9706,-3.9412,-3.9599,-3.9786,-3.9786,-4.0,-4.0254,-4.0615,-4.1016,-4.139,-4.175,-4.2031,-4.2218,-4.2218,-4.2218,-4.2218,-4.2218,-4.2218,-4.2218,-4.2218,-4.2218,-4.2218,-4.2218,-4.2218,-4.2218,-4.2218,-4.2218,-4.2218,-4.2218,-4.2218,-4.2218,-4.2218,-4.2218,-4.2218,0.0,0.0,0.0,0.0,0.0,0.0,-1.8683,-1.8765,-1.8689,-1.7173,-1.7257,-1.8067,-2.0225,-1.8768,-1.8026,-2.0276,-1.8694,-1.7106,-1.7114,-1.7367,-1.7641,-1.7358,-2.0135,-2.1831,-2.1406,-2.3908,-2.6814,-2.9603,-2.7471,-2.4787,-2.1756,-2.1773,-2.3137,-2.6355,-2.9229,-3.0929,-3.1148,-3.4316,-3.4316,-3.1183,-3.4795,-3.6053,-3.561,-3.6533,-3.663,-3.6471,-3.6984,-3.5647,-3.285,-3.2869,-3.2972,-3.3442,-3.3442,-3.3442,-3.37,-3.6558,-3.7762,-3.8227,-3.8227,-3.8485,-3.8718,-3.8718,-3.8718,-3.8718,-3.8718,-3.8718,-3.8718,-3.8718,-3.8758,-3.8758,-3.8758,-3.8972,-3.9199,-3.9199,-3.9412,-3.964,-3.964,-3.9893,-4.0,-3.9746,-3.9893,-4.0107,-4.0134,-4.0575,-4.0949,-4.0989,-4.1456,-4.179,-4.1817,-4.2071,-4.2218,-4.2218,-4.2218,-4.2218,-4.2218,-4.2218,-4.2218,-4.2218,-4.2218,-4.2218,-4.2218,-4.2218,-4.2218,-4.2218,-4.2218,-4.2218,-4.2218,-4.2218,-4.2218,-4.2218,-4.2218,-4.2218,0.0,0.0,0.0,0.0,0.0,0.0,-1.96,-2.1533,-2.2597,0.0,-2.0823,-2.1995,-1.9711,-1.9115,-1.924,-1.9729,-1.8861,-1.7878,-1.6955,-1.8798,-1.9516,-1.7271,-2.1541,-2.3718,-2.1635,-2.2018,-2.3676,-2.6611,-2.4467,-2.1715,-1.8558,-1.8665,-1.9989,-2.2899,-2.3891,-2.5615,-2.7799,-2.8732,-2.8818,-2.8302,-3.1264,-3.1624,-2.9542,-3.4329,-3.416,-3.0029,-3.2825,-3.2378,-2.9344,-2.7197,-2.7759,-3.0116,-3.0116,-3.0116,-3.0127,-3.0848,-3.2748,-3.4885,-3.4885,-3.6546,-3.8718,-3.8718,-3.8718,-3.8718,-3.8718,-3.8718,-3.8718,-3.8718,-3.8905,-3.9078,-3.9078,-3.9306,-3.9519,-3.9519,-3.9746,-3.996,-3.996,-4.0187,-4.0361,-4.0334,-4.0361,-4.0468,-4.0695,-4.0842,-4.1056,-4.1537,-4.171,-4.1857,-4.2111,-4.2178,-4.2218,-4.2218,-4.2218,-4.2218,-4.2218,-4.2218,-4.2218,-4.2218,-4.2218,-4.2218,-4.2218,-4.2218,-4.2218,-4.2218,-4.2218,-4.2218,-4.2218,-4.2218,-4.2218,-4.2218,-4.2218,-4.2218,0.0,0.0,0.0,-1.9292,0.0,0.0,0.0,-2.0441,-2.097,-1.9062,-1.9953,-2.116,-2.0765,-1.9992,-1.9702,-2.1053,-1.9518,-1.8129,-1.8041,-1.8698,-1.8634,-1.7188,-2.077,-2.268,-2.1238,-2.266,-2.3741,-2.4047,-2.2873,-2.0738,-1.7656,-1.7792,-1.9104,-2.1931,-2.2286,-2.3312,-2.4521,-2.6364,-2.6634,-2.4898,-2.8091,-2.886,-2.7428,-3.079,-3.0698,-2.8197,-3.0164,-2.9283,-2.6418,-2.5111,-2.4434,-2.4683,-2.6087,-2.6795,-2.7044,-2.8712,-3.0127,-3.1535,-3.1535,-3.3688,-3.6325,-3.6325,-3.727,-3.8718,-3.8718,-3.8825,-3.8945,-3.8945,-3.9159,-3.9372,-3.9372,-3.9599,-3.9813,-3.9813,-4.004,-4.0254,-4.0254,-4.0361,-4.0481,-4.0481,-4.0481,-4.0588,-4.0869,-4.1016,-4.1269,-4.171,-4.1897,-4.2044,-4.2178,-4.2218,-4.2218,-4.2218,-4.2218,-4.2218,-4.2218,-4.2218,-4.2218,-4.2218,-4.2218,-4.2218,-4.2218,-4.2218,-4.2218,-4.2218,-4.2218,-4.2218,-4.2218,-4.2218,-4.2218,-4.2218,-4.2218,-4.2218,0.0,0.0,0.0,0.0,0.0,-1.9311,0.0,0.0,0.0,0.0,0.0,0.0,0.0,-2.063,-2.0113,-2.2257,0.0,0.0,0.0,-1.82,0.0,-1.7458,-2.0028,-2.1845,-2.1412,-2.3603,-2.3965,-2.1359,-2.1267,-2.019,-1.7555,-1.7724,-1.8834,-2.1027,-2.1343,-2.1449,-2.1343,-2.4265,-2.4265,-2.1343,-2.4864,-2.6068,-2.5367,-2.724,-2.7429,-2.6625,-2.7494,-2.6144,-2.3487,-2.3487,-2.2054,-1.9894,-2.2522,-2.3487,-2.372,-2.6345,-2.7759,-2.8246,-2.8246,-3.0374,-3.3207,-3.37,-3.6092,-3.8731,-3.8798,-3.8972,-3.9159,-3.9225,-3.9452,-3.968,-3.968,-3.9893,-4.0107,-4.0107,-4.0294,-4.0481,-4.0481,-4.0481,-4.0481,-4.0481,-4.0481,-4.0588,-4.0949,-4.1203,-4.1456,-4.1817,-4.2071,-4.2218,-4.2218,-4.2218,-4.2218,-4.2218,-4.2218,-4.2218,-4.2218,-4.2218,-4.2218,-4.2218,-4.2218,-4.2218,-4.2218,-4.2218,-4.2218,-4.2218,-4.2218,-4.2218,-4.2218,-4.2218,-4.2218,-4.2218,-4.2218,-4.2218,0.0,0.0,0.0,0.0,-1.9372,0.0,0.0,0.0,0.0,-1.9517,0.0,0.0,0.0,0.0,0.0,0.0,0.0,0.0,-1.9669,0.0,0.0,0.0,-2.2606,-2.4144,-2.2596,-2.2876,-2.1714,-1.8017,-1.8793,-1.8716,-1.7216,-1.7514,-1.782,-1.7878,-1.8038,-1.8177,-1.8302,-1.8772,-1.8772,-1.8522,-2.14,-2.149,-1.9194,-2.4918,-2.4867,-2.0167,-2.3285,-2.2838,-2.0144,-2.0144,-2.0144,-1.9664,-2.0144,-2.0144,-2.0373,-2.0608,-2.2522,-2.4915,-2.4915,-2.7044,-3.0127,-3.2983,-3.6092,-3.8758,-3.9012,-3.9118,-3.9199,-3.9493,-3.9746,-4.0,-4.0,-4.0214,-4.0441,-4.0441,-4.0441,-4.0481,-4.0481,-4.0481,-4.0481,-4.0481,-4.0481,-4.0655,-4.1203,-4.131,-4.1523,-4.2071,-4.2178,-4.2218,-4.2218,-4.2218,-4.2218,-4.2218,-4.2218,-4.2218,-4.2218,-4.2218,-4.2218,-4.2218,-4.2218,-4.2218,-4.2218,-4.2218,-4.2218,-4.2218,-4.2218,-4.2218,-4.2218,-4.2218,-4.2218,-4.2218,-4.2218,-4.2218,0.0,0.0,0.0,0.0,0.0,0.0,-1.9273,0.0,-1.9546,0.0,0.0,0.0,0.0,0.0,0.0,0.0,-1.9951,0.0,0.0,0.0,0.0,0.0,0.0,0.0,-2.0348,-2.147,-2.0984,-1.738,-1.9499,-1.9969,-1.7532,-1.7609,-1.767,-1.7426,-1.765,-1.7758,-1.7738,-1.7826,-1.786,-1.7867,-1.9272,-1.9122,-1.8111,-2.1071,-2.117,-1.9013,-2.0809,-2.0786,-1.9664,-1.9664,-1.9664,-1.9664,-1.9664,-1.9664,-1.9664,-1.9664,-2.0622,-2.1578,-2.1578,-2.372,-2.7044,-3.0116,-3.3558,-3.6118,-3.6453,-3.7927,-3.9706,-3.9813,-4.0067,-4.0294,-4.0294,-4.0361,-4.0481,-4.0481,-4.0481,-4.0481,-4.0481,-4.0481,-4.0481,-4.0481,-4.0481,-4.0655,-4.1229,-4.1336,-4.1523,-4.2138,-4.2218,-4.2218,-4.2218,-4.2218,-4.2218,-4.2218,-4.2218,-4.2218,-4.2218,-4.2218,-4.2218,-4.2218,-4.2218,-4.2218,-4.2218,-4.2218,-4.2218,-4.2218,-4.2218,-4.2218,-4.2218,-4.2218,-4.2218,-4.2218,-4.2218,-4.2218,-2.0404,0.0,0.0,0.0,0.0,0.0,0.0,0.0,0.0,0.0,0.0,0.0,0.0,0.0,0.0,0.0,0.0,0.0,0.0,0.0,0.0,0.0,0.0,0.0,0.0,-2.1237,-2.1429,-1.7783,-2.0775,-2.1276,-1.7573,-1.7602,-1.765,-1.7426,-1.767,-1.7758,-1.765,-1.7792,-1.786,-1.786,-1.7968,-1.8057,-1.8111,-1.8674,-1.8959,-1.9006,-1.9468,-1.9664,-1.9664,-1.9664,-1.9664,-1.9664,-1.9664,-1.9664,-1.9664,-1.9664,-1.9664,-1.9664,-1.9664,-2.1805,-2.4906,-2.71,-3.0802,-3.4346,-3.4464,-3.7229,-3.98,-3.8903,-3.9556,-3.9969,-3.8227,-3.9227,-4.0238,-3.947,-3.9739,-4.0481,-4.0481,-4.0481,-4.0481,-4.0481,-4.0481,-4.0655,-4.1229,-4.1269,-4.1456,-4.2111,-4.2151,-4.2138,-4.2218,-4.2218,-4.2218,-4.2218,-4.2218,-4.2218,-4.2218,-4.2218,-4.2218,-4.2218,-4.2218,-4.2218,-4.2218,-4.2218,-4.2218,-4.2218,-4.2218,-4.2218,-4.2218,-4.2218,-4.2218,-4.2218,-4.2218,-4.2218,0.0,0.0,0.0,-1.9975,0.0,0.0,0.0,0.0,-1.9786,0.0,0.0,0.0,0.0,0.0,0.0,0.0,0.0,0.0,0.0,0.0,0.0,0.0,0.0,0.0,0.0,-2.3037,-2.3342,0.0,-2.1946,-2.2043,-1.7387,-1.7351,-1.7433,-1.7419,-1.7575,-1.765,-1.765,-1.7792,-1.786,-1.786,-1.786,-1.7948,-1.8111,-1.8565,-1.885,-1.9006,-1.9468,-1.9664,-1.9664,-1.9664,-1.9664,-1.9664,-1.9664,-1.9664,-1.9664,-1.9664,-1.9664,-1.9664,-1.9664,-2.1805,-2.4451,-2.4628,-2.9021,-3.4405,-3.4898,-3.7277,-3.9333,-3.6394,-3.7957,-3.897,-3.2517,-3.5731,-3.9713,-3.6478,-3.8214,-4.0481,-4.0481,-4.0481,-4.0481,-4.0481,-4.0481,-4.0655,-4.1229,-4.1122,-4.1203,-4.2071,-4.1964,-4.1897,-4.2178,-4.2218,-4.2218,-4.2218,-4.2218,-4.2218,-4.2218,-4.2218,-4.2218,-4.2218,-4.2218,-4.2218,-4.2218,-4.2218,-4.2218,-4.2218,-4.2218,-4.2218,-4.2218,-4.2218,-4.2218,-4.2218,-4.2218,-4.2218,-1.9104,-1.8519,-1.8439,-1.9491,0.0,0.0,0.0,0.0,0.0,0.0,0.0,0.0,0.0,0.0,0.0,0.0,0.0,0.0,0.0,0.0,0.0,0.0,0.0,0.0,0.0,0.0,0.0,0.0,0.0,0.0,-1.7552,-1.7487,-1.7528,-1.7426,-1.767,-1.7704,-1.75,-1.7738,-1.786,-1.786,-1.786,-1.8002,-1.8247,-1.8498,-1.8742,-1.9006,-1.9359,-1.9501,-1.9522,-1.9624,-1.9664,-1.9664,-1.9664,-1.9664,-1.9664,-1.9664,-1.9664,-1.9664,-1.9664,-2.045,-2.1498,-2.1549,-2.462,-2.8509,-2.8644,-3.1019,-3.3394,-3.2484,-3.3,-3.3247,-3.1009,-3.3752,-3.6956,-3.5719,-3.7957,-4.0481,-4.0481,-4.0481,-4.0481,-4.0481,-4.0481,-4.0655,-4.1229,-4.1096,-4.1203,-4.2071,-4.2138,-4.2111,-4.2218,-4.2218,-4.2218,-4.2218,-4.2218,-4.2218,-4.2218,-4.2218,-4.2218,-4.2218,-4.2218,-4.2218,-4.2218,-4.2218,-4.2218,-4.2218,-4.2218,-4.2218,-4.2218,-4.2218,-4.2218,-4.2218,-4.2218,-4.2218,-1.8242,-1.8008,-1.794,-1.8906,-1.8858,0.0,-2.0047,0.0,0.0,0.0,0.0,0.0,0.0,0.0,0.0,0.0,0.0,0.0,0.0,0.0,0.0,0.0,0.0,0.0,0.0,0.0,0.0,0.0,0.0,0.0,0.0,-1.7514,-1.7521,-1.7426,-1.7704,-1.7724,-1.7426,-1.7724,-1.786,-1.786,-1.786,-1.8023,-1.8321,-1.8464,-1.8708,-1.9006,-1.9237,-1.9345,-1.9359,-1.9522,-1.9576,-1.959,-1.9644,-1.9664,-1.9664,-1.9664,-1.9664,-1.9664,-1.9664,-1.9752,-1.9888,-1.9942,-2.2325,-2.5271,-2.5339,-2.7661,-3.0254,-2.8933,-2.9459,-3.0005,-2.7448,-3.0204,-3.374,-3.374,-3.6221,-3.8983,-4.0238,-4.0481,-4.0481,-4.0481,-4.0481,-4.0615,-4.1096,-4.1016,-4.1203,-4.2071,-4.2138,-4.2111,-4.2218,-4.2218,-4.2218,-4.2218,-4.2218,-4.2218,-4.2218,-4.2218,-4.2218,-4.2218,-4.2218,-4.2218,-4.2218,-4.2218,-4.2178,-4.2071,-4.2178,-4.2178,-4.2071,-4.2178,-4.2218,-4.2218,-4.2218,-4.2218]}]]